GFSCGP_925_thetae_000.txt.gz
Theta_e
321 323 325 326 326 325 327 327 329 331 330 330 331 333 331 329 329 330 331 331 331 331 330 328 326 327 325 326 328 330 330 330 330 328 330 331 333 330 330 329 329 327 327 326
320 325 323 324 325 324 325 328 329 328 328 328 328 330 330 329 330 330 329 329 331 332 330 330 328 328 326 326 327 330 330 330 329 330 331 332 333 333 332 330 329 329 328 327
319 322 323 325 325 325 327 328 329 329 328 328 329 331 331 329 329 328 329 328 329 333 331 331 331 330 327 327 327 329 329 329 330 332 331 331 332 332 334 331 330 328 328 328
318 320 324 325 325 326 329 327 328 328 328 329 329 334 332 329 330 328 326 329 330 333 332 331 331 331 328 326 326 328 329 329 331 330 330 331 331 333 332 331 331 329 329 328
318 321 322 327 326 326 327 327 328 328 329 328 328 331 328 330 330 328 325 326 331 333 332 331 331 330 327 326 327 327 328 328 331 331 331 332 333 332 332 329 331 328 328 329
318 320 323 325 327 326 326 327 327 327 327 333 329 330 329 329 327 325 325 325 331 332 332 331 330 329 327 324 326 328 329 327 331 331 330 332 332 332 333 329 329 329 329 327
319 319 322 325 326 327 326 329 330 333 331 333 328 330 331 329 326 325 324 327 333 333 331 331 331 330 327 324 325 327 329 327 327 330 330 331 330 329 331 329 328 329 329 328
322 321 321 324 326 326 328 330 328 337 333 331 331 332 328 326 326 325 325 328 334 332 332 331 331 329 326 325 324 325 328 326 326 327 330 330 331 328 328 325 327 327 329 329
324 322 322 323 325 327 328 328 326 328 328 330 329 330 330 328 325 325 327 333 335 333 332 332 331 328 327 326 324 325 327 326 326 327 330 329 332 331 331 327 324 328 329 328
325 327 324 323 326 327 329 326 327 327 332 337 329 330 329 328 327 329 332 334 337 333 331 331 330 329 327 325 324 325 327 326 325 326 328 328 331 332 330 332 331 327 329 329
326 332 328 326 328 328 328 328 327 329 328 333 334 330 330 331 333 337 334 336 336 333 330 331 330 329 326 324 325 325 327 324 325 325 326 328 331 331 331 332 329 327 328 329
326 329 332 328 327 327 328 328 329 330 334 330 329 331 332 332 330 333 335 335 333 331 330 329 329 329 324 324 326 326 327 323 324 324 325 327 331 331 332 331 331 328 327 330
327 329 335 333 330 329 329 329 329 333 335 336 330 330 332 330 330 330 336 334 332 331 330 329 329 330 324 324 325 325 327 324 321 323 325 325 330 331 331 332 331 328 327 329
329 331 332 336 332 331 332 329 327 329 334 330 330 329 332 330 329 330 336 334 331 331 331 330 330 330 323 324 324 325 326 324 320 321 324 325 329 329 329 329 332 331 328 326
332 330 333 329 329 328 328 327 326 328 330 330 330 329 329 332 331 331 336 334 332 331 330 331 331 330 324 325 324 325 325 323 320 320 325 324 326 331 329 327 328 332 330 328
334 331 332 328 328 328 328 327 327 327 327 327 329 331 330 331 331 331 335 334 332 331 330 330 331 330 325 326 325 324 325 323 319 319 323 324 324 328 329 329 324 324 326 329
335 332 332 334 328 327 331 329 328 328 328 329 330 331 330 329 329 330 336 335 335 333 331 331 332 331 326 326 325 325 325 322 319 320 320 324 323 325 330 329 327 325 325 325
335 335 332 334 332 333 327 329 327 329 328 328 328 329 330 330 330 328 330 335 334 334 333 332 332 332 327 325 325 325 326 323 320 321 320 321 322 325 327 327 327 325 325 325
331 333 332 337 335 329 326 327 329 330 331 330 327 328 327 329 329 330 329 329 335 335 335 333 332 332 327 326 325 326 326 324 321 321 321 319 322 325 325 327 328 327 327 325
329 333 335 334 337 336 329 326 325 328 331 330 330 331 330 329 328 328 331 329 335 335 335 335 333 332 329 327 326 326 327 325 323 322 322 319 319 325 326 327 330 330 330 329
329 331 333 333 340 329 328 326 327 330 329 332 331 332 333 333 331 337 336 333 336 335 336 334 333 333 330 328 327 327 327 327 324 322 323 321 318 322 325 328 330 330 330 330
329 330 333 334 334 331 327 326 329 335 341 336 333 333 333 333 333 334 333 332 336 335 334 335 335 334 332 329 328 328 328 327 325 323 323 322 320 321 325 327 329 328 328 330
328 330 332 331 332 333 332 334 338 336 334 330 333 332 332 331 331 330 333 335 335 335 335 334 335 336 334 330 328 328 328 327 325 323 323 323 321 319 325 328 328 328 326 328
323 323 325 327 330 329 328 330 332 331 331 331 332 332 331 331 331 331 331 335 334 334 335 334 335 337 336 332 330 329 328 328 326 325 324 324 322 320 326 327 328 327 326 326
316 318 324 325 327 328 328 330 329 329 330 330 330 329 332 332 332 332 332 335 333 334 334 334 334 337 337 334 332 330 329 327 326 326 326 326 324 321 326 327 329 327 325 323
313 315 320 327 321 322 329 328 327 331 330 332 331 332 332 331 333 333 334 334 334 335 334 336 335 336 336 336 335 332 330 328 328 328 327 327 326 322 326 326 327 326 325 323

GFSCGP_925_thetae_003.txt.gz
Theta_e
319 315 319 320 321 323 323 325 327 328 327 326 329 329 327 327 326 324 324 325 327 325 324 326 327 327 325 325 326 329 330 330 331 328 331 330 331 330 330 329 329 328 328 327
316 316 317 321 322 324 325 324 325 325 326 327 328 328 328 328 327 325 324 324 324 325 325 325 327 327 325 325 326 330 331 330 329 328 332 331 331 330 331 330 330 329 328 327
314 317 319 322 321 323 325 325 324 325 327 327 327 327 329 328 326 325 325 324 325 325 325 325 327 327 325 325 325 330 330 330 328 330 331 330 330 330 331 330 330 328 327 328
314 316 319 322 323 323 324 325 325 326 328 328 327 327 327 327 325 325 324 324 325 324 325 326 327 327 326 326 327 328 330 328 328 328 329 332 332 331 330 329 329 328 328 326
315 315 317 319 323 323 324 325 325 327 327 326 325 325 325 326 327 325 322 325 325 324 326 326 327 328 326 326 325 330 328 327 330 330 330 332 332 331 331 328 329 327 328 327
316 316 316 317 319 324 325 325 326 327 324 326 327 326 326 327 327 325 323 324 327 325 325 326 328 329 327 326 327 327 328 328 330 331 330 330 329 330 329 329 329 328 328 328
317 316 317 318 319 320 325 323 326 326 323 326 326 327 326 326 326 323 325 326 326 326 326 327 328 326 326 326 325 327 329 326 326 329 330 330 327 329 327 326 327 328 327 327
319 318 316 317 318 321 322 323 327 329 329 326 326 327 327 327 324 323 327 327 327 325 326 327 326 325 325 323 326 326 328 326 325 328 329 330 331 327 325 326 327 327 327 326
318 319 318 318 318 320 321 325 323 325 326 326 326 328 328 324 323 322 330 329 326 325 325 326 326 324 325 323 323 323 328 325 325 328 328 331 330 328 327 323 327 327 326 327
318 319 319 319 318 319 322 325 325 322 325 327 328 329 330 324 323 324 332 329 328 326 326 326 325 324 325 323 322 321 326 325 326 327 328 331 330 330 330 329 327 328 326 326
319 322 323 320 319 319 322 326 323 320 321 325 327 329 325 324 326 330 332 330 328 326 325 326 324 326 326 324 322 323 326 324 325 326 327 329 332 331 332 329 327 327 326 327
318 322 323 325 321 321 324 325 322 323 326 325 328 328 328 330 330 330 333 331 326 325 324 325 324 325 325 325 324 324 326 325 324 326 326 329 331 332 331 331 328 329 329 328
319 320 329 323 324 322 326 325 325 323 325 328 330 329 327 328 332 333 332 331 328 324 324 324 325 323 322 324 325 324 326 323 323 325 325 328 331 331 330 330 328 326 328 330
322 320 320 330 326 325 327 326 324 325 328 329 330 327 329 327 329 332 331 328 327 325 325 325 326 323 322 323 325 325 325 322 322 324 324 330 331 331 331 330 330 326 329 330
322 320 326 323 326 327 327 327 326 325 326 327 327 328 328 326 325 331 330 328 327 326 326 326 326 324 320 322 325 325 325 322 322 324 323 327 330 330 329 331 328 325 329 330
319 323 323 328 326 326 327 327 326 325 325 326 326 327 326 326 325 331 330 329 328 327 327 327 327 324 321 322 324 325 325 321 321 324 323 324 326 332 328 329 328 328 329 329
319 329 324 324 326 327 328 327 326 326 325 325 325 325 328 328 327 331 330 329 328 327 327 328 328 324 321 323 324 325 324 320 319 324 323 323 323 330 328 325 324 330 326 326
319 324 325 323 326 332 326 327 327 326 325 324 325 325 327 327 328 332 331 329 328 327 327 327 327 325 323 324 324 325 325 319 319 323 323 322 322 331 330 327 326 328 325 322
318 324 332 326 325 332 328 327 326 326 325 324 324 326 326 325 326 331 331 331 330 328 327 327 328 326 324 324 324 325 324 320 319 321 323 322 322 328 330 329 326 326 327 322
323 327 330 326 330 332 329 326 325 326 327 326 325 325 326 325 325 324 325 331 330 329 328 328 330 326 325 325 325 325 325 321 320 320 320 322 322 325 327 330 327 326 326 329
327 328 333 330 330 330 328 327 325 327 326 328 326 327 326 324 325 324 326 330 331 331 329 331 331 326 325 325 326 325 327 322 321 321 320 320 321 325 325 331 328 328 328 327
328 330 330 326 331 332 329 326 325 323 330 329 329 328 327 329 329 331 330 331 331 331 331 331 330 327 327 326 326 325 326 325 323 322 322 318 319 326 327 332 331 330 332 330
327 323 325 327 332 326 325 327 331 329 329 328 332 329 327 327 327 327 330 331 331 331 332 332 331 329 329 327 326 326 326 328 325 323 323 319 318 326 329 332 332 330 330 332
315 315 322 323 327 319 324 322 321 325 328 331 332 329 326 326 325 326 330 331 331 330 332 332 333 331 329 328 326 326 326 327 326 325 324 320 320 325 329 330 330 329 328 327
315 314 315 319 318 319 319 317 316 327 325 325 328 329 326 325 326 325 328 330 329 329 331 333 334 332 331 329 328 327 327 327 326 326 325 321 320 324 329 329 329 328 326 324
312 314 315 318 314 315 314 314 312 322 327 326 325 327 329 326 325 325 329 329 328 328 332 333 334 334 333 331 330 329 327 328 327 327 325 321 321 326 328 329 329 328 327 325

GFSCGP_925_thetae_006.txt.gz
Theta_e
318 319 317 318 318 320 321 321 323 323 324 325 325 326 326 325 323 323 321 321 322 321 322 323 324 323 323 325 326 328 328 328 330 330 328 330 329 330 329 329 329 328 328 327
317 316 316 318 319 319 319 322 322 322 323 323 323 324 326 325 324 322 322 322 321 323 324 325 325 324 324 325 327 328 329 329 330 328 329 331 330 330 330 331 330 329 329 328
315 319 318 317 318 320 319 320 324 324 324 323 323 325 324 326 325 324 323 322 323 323 324 325 324 323 324 326 327 329 330 330 328 329 330 329 330 330 330 330 329 329 327 327
313 316 318 317 316 319 320 321 323 326 326 325 323 326 322 324 324 323 322 321 323 323 324 325 324 322 324 325 326 329 329 329 327 328 328 332 331 330 330 329 329 328 326 326
314 314 315 315 315 318 321 320 322 324 325 323 324 322 321 323 325 324 322 322 322 322 323 324 324 323 324 325 327 328 329 327 329 329 330 332 329 330 329 329 328 327 327 327
313 314 314 314 316 318 320 321 322 322 323 326 324 324 326 323 324 324 322 324 322 322 322 324 325 324 324 327 326 329 327 327 329 330 330 330 328 328 327 328 327 327 327 327
315 314 314 315 315 316 320 320 323 323 324 327 323 325 325 324 324 323 320 322 322 323 324 326 325 323 324 325 327 327 327 328 328 328 330 329 327 326 325 327 328 327 327 327
315 315 315 315 315 315 315 316 324 326 326 324 323 325 324 322 323 323 322 323 323 323 325 326 325 323 323 325 326 326 328 325 325 327 329 330 328 325 325 326 327 327 327 327
315 316 317 316 316 315 315 318 317 322 323 323 323 324 326 323 323 326 326 325 324 323 325 325 324 322 321 324 325 325 328 326 324 328 329 330 328 326 324 326 327 326 326 326
315 317 317 317 315 315 315 317 320 319 325 325 324 325 326 323 324 328 327 325 324 324 325 325 323 321 321 324 324 324 326 326 325 328 328 330 330 329 328 327 327 325 326 327
314 317 320 317 316 315 314 316 320 320 320 325 323 323 321 321 321 329 326 325 324 325 325 325 322 322 321 323 321 321 325 325 326 327 328 329 331 330 330 327 326 326 327 327
315 314 317 317 317 316 315 316 320 323 322 321 321 322 322 321 322 327 326 326 324 324 325 324 321 321 321 321 320 323 326 324 324 326 326 328 331 331 330 328 326 327 327 327
316 315 318 323 318 319 316 319 319 318 319 323 322 322 324 326 328 328 327 325 324 323 323 322 321 321 321 321 321 323 325 324 324 325 326 330 330 330 330 328 328 329 328 329
314 316 316 319 320 320 319 318 322 320 321 322 322 324 326 330 331 330 328 325 324 325 325 324 322 320 321 321 322 323 325 324 324 325 327 331 330 328 330 328 327 328 329 330
310 319 316 317 319 323 322 320 323 323 321 323 323 323 323 326 331 331 328 325 325 325 325 325 324 320 319 322 323 323 325 323 324 324 329 330 330 330 330 328 327 328 329 330
310 318 318 318 318 318 319 323 324 324 323 322 323 325 323 326 329 328 328 326 325 325 325 325 325 321 319 321 322 324 324 322 324 323 328 329 329 330 330 326 328 329 329 330
311 318 321 320 320 319 319 321 324 324 324 324 324 322 321 323 329 330 327 327 326 325 325 325 325 323 320 320 323 323 324 321 323 323 325 327 328 330 329 327 329 328 327 329
311 314 316 319 320 326 324 322 324 324 323 322 321 321 322 324 324 329 327 326 326 325 325 325 325 323 320 321 322 324 324 319 323 323 323 324 324 326 326 329 328 326 324 325
310 312 319 320 321 323 327 325 324 323 323 321 322 320 321 322 325 328 327 326 325 324 325 325 325 324 320 321 322 323 322 319 322 322 322 322 323 328 326 328 329 325 323 324
313 313 324 326 321 325 326 325 324 324 326 322 321 321 321 327 331 329 327 326 325 324 324 325 325 322 321 321 322 322 319 317 321 322 322 321 322 330 329 326 326 323 322 322
325 325 324 326 323 328 326 327 325 327 326 323 322 322 322 323 325 326 327 326 325 324 324 325 325 322 322 321 322 322 319 317 319 321 322 321 321 328 330 327 326 327 324 321
321 323 325 324 326 335 321 326 330 323 326 326 321 320 321 321 321 321 326 328 327 325 324 326 325 323 322 322 322 322 319 319 318 320 320 322 321 325 327 328 326 326 327 326
320 319 319 321 327 316 319 318 315 314 318 327 325 323 322 322 323 326 325 327 328 326 326 327 326 323 322 322 323 323 322 320 319 319 319 320 321 324 325 329 327 327 326 327
312 313 317 315 322 314 315 313 313 314 313 319 323 323 323 323 322 325 327 327 329 327 327 328 326 323 323 323 323 323 324 322 320 319 320 318 320 324 326 329 328 329 330 330
312 313 314 315 315 313 315 312 313 313 312 313 320 323 324 321 321 325 327 328 329 329 329 328 326 325 324 323 323 323 324 325 322 321 320 317 319 325 329 330 330 329 329 328
313 312 314 315 312 313 312 311 313 312 312 313 314 322 321 325 320 326 328 328 329 329 329 329 328 327 326 324 324 324 324 325 324 322 321 318 321 328 329 330 329 329 327 326

GFSCGP_925_thetae_009.txt.gz
Theta_e
314 316 318 317 316 316 316 316 317 318 320 322 322 322 323 323 321 322 322 322 320 320 319 319 320 320 321 324 325 326 327 327 327 329 328 330 329 329 329 329 329 329 328 327
315 315 318 319 317 316 317 318 320 321 321 321 321 321 321 321 321 321 323 321 319 322 322 321 320 320 323 324 326 327 327 328 329 329 327 329 330 329 329 329 330 329 329 328
311 314 319 321 318 319 318 318 318 320 321 321 321 323 323 322 321 322 321 320 320 321 323 323 321 320 323 325 327 327 328 328 329 327 329 329 329 330 329 329 329 329 328 327
311 313 316 319 318 317 318 319 319 320 321 324 322 324 322 321 322 321 320 319 319 321 322 323 322 319 323 326 326 328 329 329 327 327 327 330 330 329 329 329 328 327 326 327
311 312 313 316 316 316 318 319 320 321 321 321 323 323 322 320 323 321 319 318 317 320 322 323 321 321 324 325 327 329 329 328 327 328 329 331 328 328 328 328 327 327 326 326
309 313 313 314 317 317 316 318 318 318 319 323 322 322 324 322 322 322 322 321 321 319 321 321 321 322 323 324 327 328 328 327 328 328 329 330 327 326 327 327 327 326 326 327
312 311 313 313 315 314 315 317 319 319 322 325 321 322 323 322 321 321 322 321 320 320 323 322 322 320 322 324 327 328 326 327 328 329 329 328 327 326 325 326 327 326 326 327
314 314 312 314 313 314 314 317 321 325 324 323 322 325 324 321 321 321 320 319 321 321 323 323 321 321 322 324 327 326 326 326 327 326 329 328 328 324 325 326 327 326 326 326
314 314 315 314 314 314 313 317 318 318 321 322 322 322 322 322 322 324 323 322 322 322 323 323 321 320 322 324 326 326 326 325 324 325 328 329 328 325 324 326 326 326 326 326
314 314 314 315 314 313 312 313 314 312 318 322 323 323 324 323 325 326 325 323 322 322 323 323 321 319 322 324 325 325 326 326 323 327 328 328 329 328 326 326 325 325 326 326
312 314 316 315 314 314 312 314 314 316 318 322 322 323 319 321 322 325 323 322 322 323 324 323 320 320 322 324 324 324 325 326 324 327 327 328 330 329 329 326 325 326 326 326
314 311 314 315 315 315 314 313 313 316 318 319 321 324 321 318 319 323 323 322 321 322 323 322 320 318 319 321 322 321 324 326 325 326 327 329 330 330 328 326 325 327 326 327
312 315 314 315 316 314 313 313 313 314 316 320 321 323 321 321 318 324 323 323 322 322 322 320 319 318 317 319 319 321 325 324 324 325 327 330 330 329 328 327 327 328 326 328
310 315 316 316 316 316 316 314 313 315 317 318 321 321 325 326 323 325 324 322 323 324 324 322 320 319 318 318 319 322 324 323 323 324 328 330 329 329 329 327 328 328 328 328
308 312 318 318 315 316 318 317 315 316 316 318 320 319 320 326 325 325 324 322 323 324 323 323 321 319 317 318 319 321 324 323 323 324 329 329 329 329 329 327 327 328 329 328
307 309 316 321 316 315 315 317 316 318 318 319 320 320 318 322 326 327 325 324 324 325 325 324 322 319 318 319 320 321 323 323 323 323 329 329 329 330 327 327 328 328 329 330
309 311 312 321 318 315 316 316 316 319 320 320 320 319 319 325 328 328 325 324 325 325 325 324 323 320 319 320 321 321 323 323 323 323 328 328 328 330 327 328 328 329 329 329
309 309 311 315 317 318 317 316 316 317 321 320 320 319 321 322 328 328 326 325 324 324 325 324 323 321 319 320 321 322 323 321 323 322 327 328 328 329 328 328 328 327 327 329
310 309 312 319 318 318 322 323 317 318 320 320 320 319 320 320 324 327 326 325 324 323 324 323 323 322 320 319 322 322 322 321 322 322 325 326 325 328 328 327 327 325 324 327
314 310 311 321 318 319 325 321 322 323 322 324 327 319 319 322 325 324 324 324 323 322 322 323 323 323 319 319 321 321 319 320 321 321 323 324 325 325 325 327 327 324 323 327
317 312 313 316 320 327 319 319 318 323 322 316 323 325 317 323 323 323 324 324 323 322 321 323 323 321 320 320 320 320 317 319 321 321 321 322 323 326 326 325 327 323 322 324
316 320 323 320 324 332 314 317 320 315 313 314 314 322 320 320 320 323 325 325 323 320 321 323 323 321 320 320 320 320 317 320 320 321 321 320 323 329 326 326 326 322 321 321
317 313 318 320 323 315 312 313 312 312 312 312 312 314 322 321 318 322 325 325 324 322 322 323 323 320 320 320 320 320 319 318 319 320 321 320 322 326 329 326 326 324 322 321
310 310 316 315 318 315 312 311 310 312 311 312 312 313 320 321 318 320 325 325 324 323 322 324 323 320 319 320 320 321 320 318 317 318 319 320 320 321 326 328 326 326 327 323
311 311 312 313 315 313 313 310 310 310 311 312 312 313 319 323 324 321 323 325 326 324 323 324 323 321 320 320 321 321 320 318 316 317 317 318 320 320 324 327 327 326 326 325
311 310 312 314 311 311 312 310 310 311 311 312 312 314 317 317 325 323 322 325 326 325 325 325 324 322 321 321 321 321 321 319 317 316 316 316 318 321 324 326 327 327 327 326

GFSCGP_925_thetae_012.txt.gz
Theta_e
308 312 315 312 314 315 314 313 313 314 317 318 318 319 320 320 319 318 319 319 319 319 317 317 318 318 320 321 321 323 325 325 326 325 327 328 328 329 329 328 329 329 329 328
312 311 312 314 314 315 316 314 314 316 320 319 319 319 319 319 319 318 320 320 319 318 321 319 317 319 321 322 324 325 325 326 326 327 327 327 329 329 328 329 329 329 329 329
308 310 312 315 317 316 316 317 317 317 319 319 319 319 320 320 319 318 318 318 317 317 320 320 317 319 321 322 324 325 326 326 327 328 326 328 328 329 329 329 328 328 328 327
308 309 312 316 318 318 317 317 317 319 320 319 319 323 320 319 321 319 319 317 317 318 321 319 318 319 322 323 325 326 326 327 328 327 327 327 330 328 328 328 327 327 326 326
308 309 311 314 318 319 319 319 319 319 319 318 319 320 321 319 320 320 319 318 316 316 320 319 318 320 323 324 326 326 327 328 327 327 327 330 329 327 327 327 327 326 326 326
308 309 310 313 317 319 317 317 316 316 316 319 318 320 320 320 321 321 320 319 321 319 320 318 319 322 323 325 326 328 328 328 326 327 328 329 327 325 325 326 326 326 326 326
309 308 310 312 314 315 314 313 315 317 318 320 319 320 319 319 319 320 320 319 320 320 320 320 320 320 321 324 327 328 328 326 326 327 328 329 327 325 325 325 326 325 326 326
312 312 308 312 312 315 317 315 315 318 321 323 319 323 322 320 319 319 319 318 319 321 320 320 320 319 321 324 326 327 326 326 327 328 328 328 328 324 324 325 326 325 326 326
313 313 312 311 313 314 314 316 314 317 318 320 320 320 320 320 321 321 321 320 320 321 320 320 319 319 321 324 326 327 325 325 327 325 328 328 328 324 324 325 325 325 326 326
312 313 312 311 312 314 312 313 315 314 318 322 320 321 322 322 321 323 323 320 320 321 321 320 319 319 322 324 326 326 325 325 324 323 327 328 328 327 325 325 325 325 325 325
311 311 315 312 312 312 311 311 312 313 313 318 320 321 318 320 320 322 321 319 320 322 322 321 319 319 322 323 325 325 325 325 323 326 326 327 329 328 326 325 324 325 325 325
311 311 312 313 312 312 312 311 313 314 316 316 319 320 319 318 317 320 320 320 319 321 321 321 319 317 320 322 323 323 324 325 323 326 326 327 329 329 328 326 325 326 326 326
311 314 313 313 314 312 312 312 312 311 313 316 318 319 319 321 320 319 320 320 321 321 320 319 317 317 318 320 321 321 322 325 323 324 326 328 330 328 327 326 325 326 327 327
308 310 315 315 313 313 313 313 312 311 311 315 319 319 320 325 321 319 321 320 321 322 322 321 319 316 317 319 320 319 321 324 324 324 327 329 329 329 327 326 328 326 327 328
306 309 313 312 315 316 316 314 313 312 313 314 315 317 317 318 322 320 320 320 322 323 322 322 321 318 315 317 318 319 323 323 323 323 328 329 328 328 326 327 327 327 328 327
309 310 310 313 317 317 317 314 313 313 313 313 316 316 315 317 323 323 322 323 324 324 324 323 321 319 316 317 318 319 323 323 322 323 328 328 328 328 326 326 327 328 328 327
311 309 309 311 312 316 316 315 314 315 313 313 316 316 318 323 325 323 323 323 324 324 324 323 322 320 318 318 319 319 322 323 322 323 328 328 329 327 326 327 327 328 329 329
310 308 308 310 314 317 316 314 314 313 314 315 315 315 318 319 325 323 323 323 323 324 324 323 322 320 319 319 320 320 321 322 322 323 327 327 329 328 327 328 328 328 327 328
310 312 313 314 317 316 319 320 319 320 317 318 324 323 319 317 325 327 323 323 323 323 324 323 322 320 319 320 321 320 321 322 321 322 326 327 327 329 326 328 327 325 327 328
313 313 315 315 320 319 319 315 316 319 319 314 315 316 322 322 324 323 323 324 322 321 322 322 321 320 319 320 321 320 320 320 320 322 324 326 326 329 326 327 325 323 324 327
316 314 316 313 314 321 315 313 314 323 317 313 313 313 312 322 321 320 320 324 323 321 322 322 321 320 319 320 320 319 319 320 322 321 322 325 325 327 327 326 326 323 324 326
317 316 315 311 319 328 313 313 315 313 312 312 312 312 312 313 314 321 319 324 322 320 321 322 322 320 319 319 320 319 318 322 322 321 321 323 324 325 325 325 326 322 323 325
317 313 314 318 320 315 314 313 311 310 310 311 311 312 312 313 319 320 319 322 322 321 322 322 322 320 318 319 320 319 319 320 321 320 321 321 322 326 325 325 326 322 322 322
311 310 314 314 313 312 311 313 310 309 309 310 310 312 313 314 317 321 317 321 321 321 322 322 321 319 318 319 320 322 320 320 320 320 320 320 320 325 326 326 325 322 321 320
309 310 311 313 312 310 311 310 311 310 310 310 310 313 313 315 317 322 317 321 322 321 321 322 321 320 319 319 320 320 320 319 319 319 319 319 319 322 327 326 325 324 323 322
309 309 312 312 310 310 310 310 310 310 310 309 310 313 314 316 324 324 322 322 322 321 322 322 321 320 319 319 320 320 320 319 318 317 317 318 318 319 322 326 325 325 325 325

GFSCGP_925_thetae_015.txt.gz
Theta_e
309 312 316 315 315 316 318 320 321 321 318 317 318 319 321 322 322 323 324 325 327 328 327 323 322 322 323 324 325 326 327 326 326 326 326 328 329 330 329 329 328 329 330 329
310 312 314 315 314 313 315 318 319 318 317 318 319 320 322 322 323 322 324 326 326 327 327 325 323 323 324 325 326 327 327 325 326 327 327 329 329 330 330 329 329 330 330 329
312 313 311 313 315 314 315 315 316 317 317 318 320 321 320 320 323 323 323 324 326 326 328 327 324 323 325 325 326 327 328 325 325 326 327 327 328 329 331 331 330 329 329 328
310 312 311 312 314 315 316 316 315 315 317 319 320 323 322 322 322 322 324 326 327 326 325 327 325 325 325 326 326 328 328 326 326 326 328 330 332 333 330 330 329 328 326 327
310 310 311 312 313 315 316 316 317 317 319 320 320 323 321 323 322 322 322 326 327 324 325 327 326 325 325 326 327 328 328 328 328 327 329 331 333 330 330 329 329 328 327 327
311 311 311 313 314 316 317 318 319 320 321 323 321 322 321 322 322 322 325 326 325 326 326 325 325 325 326 327 328 329 329 330 328 328 327 330 332 330 329 329 329 329 328 328
311 310 310 311 313 316 319 320 321 321 321 323 321 322 322 323 321 322 324 327 326 328 327 326 327 327 327 328 328 329 330 329 329 328 329 330 330 327 328 328 329 329 328 328
314 312 311 312 313 316 320 320 319 322 324 322 321 321 321 323 322 323 325 326 326 328 327 327 327 327 327 328 329 329 330 329 329 329 331 329 328 327 327 328 328 328 328 328
316 315 312 312 314 319 320 321 319 321 323 324 325 324 325 325 325 326 325 325 328 329 328 327 327 327 327 328 330 330 329 328 329 329 329 329 329 325 328 327 327 328 327 328
315 317 314 312 313 314 318 319 319 319 320 321 323 325 326 326 327 327 328 328 328 329 328 326 327 327 327 328 329 329 328 328 329 327 330 330 329 327 328 327 328 328 328 328
314 315 316 312 314 314 315 319 318 319 318 319 319 320 327 329 328 329 330 328 329 329 328 327 327 326 327 328 328 328 327 327 326 326 329 330 330 329 328 328 327 328 328 328
312 317 317 315 313 315 315 317 318 317 319 319 320 320 324 327 327 327 328 327 328 329 328 327 327 326 326 327 328 327 327 327 326 328 328 330 331 330 329 328 328 328 328 328
314 318 318 317 316 315 316 316 317 319 320 319 318 320 323 327 325 324 328 327 327 328 328 327 326 327 327 326 327 326 327 327 325 327 328 332 332 331 330 328 328 328 329 329
311 312 317 317 317 317 315 315 316 317 318 318 319 318 321 323 328 326 327 328 328 329 328 327 327 327 326 326 326 325 325 326 325 326 328 332 332 331 329 328 329 328 329 330
311 314 312 313 313 315 316 315 315 316 317 318 319 319 319 321 324 326 327 328 329 329 329 328 328 327 327 326 325 324 324 325 325 327 331 331 331 330 329 329 329 330 330 330
311 314 312 314 314 316 317 317 315 315 315 316 316 319 320 320 322 326 328 328 329 330 329 328 328 327 327 325 324 323 324 325 325 328 331 330 330 329 329 329 330 330 329 330
313 313 313 316 315 316 318 318 318 316 316 316 316 318 318 320 324 327 329 329 329 330 329 329 328 328 326 325 323 323 325 325 325 327 330 330 330 329 329 329 330 330 330 330
311 312 312 316 318 320 319 320 318 318 318 319 317 317 321 323 324 321 326 329 330 330 330 329 329 328 326 324 323 323 325 325 324 326 330 330 330 328 329 329 330 329 331 330
310 313 317 318 322 320 324 319 320 322 321 319 320 321 321 323 326 325 327 328 330 332 330 330 328 327 326 324 323 323 324 325 324 325 329 329 331 329 330 330 329 328 330 329
312 311 315 317 323 322 321 317 316 320 325 317 317 319 319 320 323 323 322 325 328 330 330 329 327 327 326 325 324 323 324 324 325 324 327 328 329 331 329 330 327 326 329 329
317 318 317 318 320 323 317 314 315 328 321 316 316 317 318 320 325 321 320 323 327 328 329 328 327 327 326 325 324 324 324 324 325 324 325 327 329 331 330 330 326 325 328 327
318 319 319 316 319 327 316 314 319 315 314 314 315 316 317 318 318 319 321 324 326 328 328 327 327 327 326 325 325 325 324 324 324 324 324 326 329 329 329 329 326 326 328 328
317 315 318 317 320 315 314 314 312 312 313 314 314 315 316 318 320 320 322 324 326 327 328 327 327 327 325 325 325 326 325 324 324 324 324 325 328 328 328 329 327 325 327 327
312 311 316 315 314 313 313 311 311 312 312 313 312 314 316 318 320 322 325 327 326 327 328 327 327 327 325 325 325 326 325 323 323 324 324 324 326 328 327 328 327 325 325 325
311 311 312 314 312 312 311 311 310 311 311 311 312 313 316 318 320 322 328 329 325 326 327 327 328 328 326 324 325 326 324 323 324 325 324 323 324 327 328 328 327 326 325 324
311 312 312 313 310 309 310 310 310 312 312 311 311 313 315 317 321 325 329 329 328 326 326 327 327 327 325 324 325 325 324 323 324 325 324 323 322 324 328 328 326 325 325 323

GFSCGP_925_thetae_021.txt.gz
Theta_e
317 316 316 318 320 323 324 325 327 328 328 328 328 329 329 328 327 328 329 329 328 328 330 328 328 331 334 334 336 340 340 341 345 344 340 336 333 333 332 332 333 333 334 334
317 318 318 317 319 321 322 324 326 327 327 328 329 329 329 328 328 328 328 329 329 329 330 330 329 336 336 336 338 338 338 341 344 341 337 333 332 332 331 332 333 334 334 335
316 318 317 317 318 319 322 323 325 326 326 327 327 327 327 327 328 327 327 328 328 329 329 330 330 337 336 337 337 338 339 342 340 336 334 332 332 333 333 331 332 333 334 333
316 315 318 318 318 319 321 322 323 325 326 326 325 329 327 327 328 327 328 329 329 329 329 330 331 339 337 337 337 338 340 339 336 334 334 334 333 330 331 333 331 333 334 332
314 316 316 318 319 318 320 320 322 324 324 325 324 325 325 326 327 328 328 328 329 328 329 329 336 338 337 336 337 338 339 336 336 336 333 333 331 330 331 331 333 335 334 333
312 314 317 317 318 319 319 320 321 323 324 326 325 325 326 327 328 329 329 328 329 329 329 332 337 336 336 335 337 337 337 336 336 334 334 334 333 333 332 333 334 334 336 334
311 313 315 317 317 319 320 321 323 326 326 328 324 326 327 328 328 328 329 328 328 331 334 337 338 337 336 336 336 337 336 337 335 334 333 334 334 335 335 334 333 334 333 334
311 311 313 317 317 319 320 321 323 327 327 325 325 327 328 328 327 327 328 328 332 335 336 337 337 337 336 335 335 335 336 335 333 333 332 334 335 334 333 334 333 331 333 333
321 311 312 315 317 317 320 322 322 324 325 326 328 328 329 329 329 326 328 328 333 336 337 337 337 337 335 335 335 335 335 333 333 331 333 334 335 334 335 334 332 332 333 331
319 318 312 316 317 317 320 321 322 325 327 329 328 330 331 329 327 327 330 329 333 337 337 337 337 336 335 334 335 335 334 333 331 332 333 333 334 335 334 333 332 331 331 329
315 321 320 314 319 318 318 321 322 324 324 327 330 329 330 330 329 329 331 333 337 338 337 337 336 335 335 335 335 334 333 331 331 332 332 333 333 334 333 333 331 331 331 329
315 320 324 319 318 318 318 321 322 326 327 325 328 328 327 327 329 329 331 335 338 337 336 336 336 336 335 335 335 334 330 329 331 331 332 332 334 335 334 332 331 330 331 329
316 320 323 327 323 318 318 320 323 325 327 326 327 328 327 329 332 331 333 336 337 336 335 335 336 336 336 335 334 331 329 328 329 331 331 333 334 335 334 332 331 330 329 329
313 319 321 330 324 318 319 320 322 325 327 327 326 327 325 329 331 332 335 336 336 335 335 336 335 335 335 334 332 329 328 328 329 330 330 333 335 334 333 331 331 330 329 329
315 319 318 321 323 323 319 321 323 324 326 327 326 325 327 331 331 333 335 335 336 336 335 335 335 335 335 333 330 328 328 328 328 329 332 334 334 333 332 332 331 331 331 330
315 322 316 320 321 324 320 320 321 324 324 324 324 324 326 329 327 328 330 333 336 335 335 335 335 335 335 332 329 327 328 328 328 329 333 333 332 331 332 331 332 331 331 330
314 320 321 324 321 322 322 321 321 321 323 323 323 323 323 324 325 327 330 330 334 335 335 335 335 335 335 331 328 327 327 327 328 330 332 332 331 331 331 331 331 331 331 331
313 317 320 324 322 326 321 321 321 321 322 323 323 323 323 326 327 326 327 331 330 334 335 335 335 336 333 330 327 326 327 326 328 330 332 332 331 332 331 331 331 332 332 333
312 314 321 326 328 325 323 323 322 321 324 326 325 323 325 326 325 326 330 330 334 335 336 336 334 334 333 329 327 326 327 326 327 330 332 331 332 332 333 334 333 333 335 336
312 314 319 323 329 334 330 324 323 326 332 326 325 326 327 327 326 334 330 330 332 336 336 336 334 334 333 329 327 326 327 325 327 329 331 331 331 332 333 335 335 335 335 335
318 319 321 322 326 329 322 323 322 326 332 325 325 326 327 329 330 328 328 329 330 333 336 335 335 335 333 329 327 326 327 325 326 328 331 332 332 332 333 333 335 336 334 335
319 321 322 322 328 333 320 323 327 325 323 324 324 324 325 326 327 328 329 330 331 332 335 336 336 335 333 329 327 327 327 325 326 327 330 332 332 333 334 334 333 334 334 334
322 318 319 321 318 316 317 319 319 320 322 322 322 322 323 326 328 329 330 331 332 332 334 335 336 336 334 329 328 327 326 325 325 326 329 332 332 332 334 333 333 333 334 333
315 313 317 319 315 316 316 315 316 317 319 320 320 321 322 325 327 330 332 333 333 334 333 334 335 337 335 330 328 327 327 325 325 326 328 331 332 332 333 332 330 330 331 331
314 313 316 315 313 316 315 315 315 316 317 319 319 320 321 323 326 328 331 334 335 334 333 333 335 336 335 331 329 327 327 325 325 326 327 329 332 332 332 330 328 327 328 329
312 313 316 317 314 314 315 315 315 316 317 318 319 321 321 322 323 326 329 332 336 336 334 333 334 336 335 332 330 327 326 325 326 327 327 328 329 332 332 330 330 328 327 325

GFSCGP_925_thetae_024.txt.gz
Theta_e
313 316 317 317 318 320 322 325 325 327 327 329 331 331 330 331 330 331 332 331 331 332 335 332 329 330 334 335 336 338 342 344 351 350 349 347 343 337 335 333 333 334 335 335
314 317 318 316 316 317 318 321 324 326 326 327 328 330 331 331 331 331 332 332 332 332 332 334 333 331 338 337 339 343 345 346 350 349 347 344 339 335 335 333 333 334 334 334
315 315 316 317 317 318 319 320 324 324 324 325 327 329 331 330 330 330 330 330 330 331 330 331 333 341 339 340 341 342 342 345 348 346 343 339 335 335 334 334 334 334 334 333
313 315 314 317 318 318 321 319 320 322 324 327 326 330 332 331 330 329 329 330 331 331 331 332 335 345 342 341 340 341 344 346 345 341 339 336 335 335 334 333 333 335 336 334
308 313 315 315 318 318 319 319 320 321 323 326 325 329 329 328 327 328 329 330 331 332 332 333 334 344 340 340 341 342 345 344 342 337 335 336 336 334 333 332 333 333 335 334
309 309 311 316 315 317 319 319 319 321 323 327 326 328 328 328 328 328 330 331 331 331 331 332 341 340 340 340 341 343 342 342 337 338 336 334 333 335 334 332 335 334 335 336
313 310 310 311 315 316 318 323 323 324 324 326 324 326 328 328 327 329 331 331 331 331 332 342 342 341 340 340 341 342 341 340 338 337 335 336 335 335 336 336 334 334 335 335
319 321 311 312 314 317 318 322 323 324 325 325 324 327 327 328 328 329 327 330 330 334 340 341 341 340 339 340 340 339 340 340 337 336 334 335 335 335 336 335 334 332 333 333
317 318 316 311 314 316 318 319 321 324 324 324 326 327 328 328 329 329 327 330 336 338 341 341 340 339 339 339 339 339 339 338 336 335 335 335 335 335 334 336 334 333 333 331
312 315 314 317 313 314 318 319 321 324 326 329 327 328 329 331 332 330 328 333 339 341 340 339 339 340 338 339 339 338 337 336 335 333 335 334 334 335 334 333 332 331 332 331
311 314 314 316 319 314 318 319 320 324 324 327 329 328 335 333 330 332 333 332 341 340 339 339 339 339 338 338 338 338 336 335 333 335 334 333 333 335 333 331 332 331 331 329
313 315 318 317 319 313 317 319 321 324 326 326 327 329 332 333 330 333 333 336 340 339 338 338 338 338 337 338 337 337 334 332 334 333 334 333 335 335 334 332 331 330 329 329
315 319 320 319 320 321 318 319 322 326 329 329 327 329 330 329 332 331 337 339 339 339 338 338 338 338 338 337 337 335 333 331 332 332 333 333 335 336 334 332 329 330 330 328
313 316 318 322 324 324 324 319 320 325 326 327 328 329 330 330 331 334 339 340 339 338 338 337 338 338 338 337 335 332 330 331 331 332 334 335 337 334 333 331 330 330 329 328
314 318 318 315 318 323 325 325 319 322 325 327 328 328 328 332 333 338 339 338 338 337 337 338 338 338 338 337 333 330 329 330 330 333 336 336 335 333 332 332 329 330 329 330
315 319 317 318 315 318 323 324 323 321 323 326 327 329 332 333 333 336 338 337 337 337 337 337 337 338 338 335 331 329 330 329 330 335 336 334 332 333 332 332 331 331 331 330
313 316 320 319 315 320 325 324 323 322 325 327 328 330 332 330 331 335 337 337 337 337 336 337 337 338 337 333 330 330 330 328 329 334 334 333 333 333 331 331 331 331 331 330
312 314 319 323 322 324 322 323 323 323 326 326 327 330 330 330 330 331 332 334 337 336 337 337 337 339 336 331 329 329 329 328 329 334 332 332 332 331 332 332 332 331 330 330
311 313 319 324 325 322 324 328 327 327 330 329 329 328 328 327 333 335 332 331 334 338 338 337 337 337 335 331 329 328 328 328 330 332 332 331 332 332 332 331 332 331 331 331
312 314 319 322 324 337 330 326 325 326 333 328 329 330 329 328 331 334 331 330 333 335 339 338 336 337 335 331 328 328 328 328 330 331 332 332 332 332 334 335 334 333 333 334
316 319 320 320 324 324 322 320 325 332 333 327 328 328 329 331 331 329 329 331 332 334 337 337 337 338 335 331 328 329 328 328 329 331 332 333 333 333 334 335 335 335 334 333
320 322 321 322 323 326 316 321 327 324 327 325 325 326 327 328 329 330 330 331 331 333 335 337 338 339 334 331 329 329 330 327 328 331 332 334 335 334 335 335 336 335 334 333
319 317 319 321 318 313 317 318 318 320 323 323 323 324 325 328 329 330 331 332 332 332 334 336 338 339 335 331 329 330 330 327 328 330 334 335 333 336 335 335 335 335 334 335
314 313 317 318 315 315 317 317 317 318 320 321 322 323 324 326 328 330 332 334 333 334 333 335 338 340 337 332 330 330 329 327 328 330 335 334 333 336 335 333 335 335 335 335
314 314 315 316 314 316 316 316 315 317 318 319 321 322 323 324 325 328 330 333 336 334 334 334 338 339 338 333 331 329 328 327 328 330 334 335 334 335 334 332 331 331 330 332
314 314 316 317 314 315 315 315 315 317 318 319 319 321 323 323 324 326 327 329 333 335 335 334 336 339 337 333 331 329 328 327 329 330 333 334 334 335 333 332 326 327 328 325

GFSCGP_925_thetae_027.txt.gz
Theta_e
308 309 312 312 313 316 319 323 323 323 323 324 324 325 325 326 325 325 326 325 326 326 325 326 330 331 328 333 337 335 340 347 348 350 348 346 344 341 339 337 333 334 334 335
311 309 311 313 314 315 316 316 317 320 322 322 324 325 325 326 325 325 326 326 325 325 325 326 329 331 335 336 338 342 344 350 350 349 348 346 344 338 335 334 333 333 335 336
311 313 312 313 315 316 315 315 316 316 318 319 320 321 322 323 324 325 325 325 325 326 326 326 325 333 338 340 343 346 351 351 350 349 347 346 341 337 336 334 333 334 334 334
306 310 315 313 313 315 316 316 316 317 318 319 320 322 322 322 324 325 325 324 323 323 325 324 324 336 339 342 342 343 346 350 349 347 346 342 337 336 335 335 335 334 334 334
306 307 309 312 314 314 315 317 317 318 317 318 320 321 321 322 325 324 323 323 323 323 324 324 324 338 340 341 340 342 346 347 346 345 340 338 335 333 334 334 334 335 335 334
310 308 307 307 309 314 314 316 317 317 317 318 319 320 321 321 322 324 324 323 323 323 324 328 338 339 340 342 343 345 345 344 340 339 336 334 334 336 334 335 335 334 334 333
315 314 309 309 308 309 312 312 316 318 318 319 318 321 321 321 323 324 323 323 323 325 332 339 339 338 339 341 343 343 342 340 338 336 335 334 335 335 336 335 335 334 334 333
313 313 314 315 308 308 309 313 315 319 320 319 318 320 321 321 322 323 323 322 331 338 338 338 337 337 339 341 341 341 340 337 337 336 335 335 334 335 335 334 332 333 332 333
315 314 314 312 312 310 309 310 314 315 318 318 319 319 319 320 320 324 324 326 338 338 338 338 336 337 339 339 339 340 338 337 337 334 335 334 335 335 334 334 333 333 333 329
311 312 310 310 311 312 314 311 315 314 318 320 321 320 321 323 323 322 326 330 338 337 337 336 336 337 338 338 339 339 338 337 335 334 335 334 336 334 334 333 332 332 332 332
310 311 311 310 310 312 315 311 311 314 315 319 322 321 322 325 324 324 326 337 337 336 336 336 337 337 337 339 338 338 337 336 335 334 334 332 332 334 332 332 331 331 331 330
313 315 318 315 312 312 313 315 312 315 317 318 320 322 327 330 326 325 335 337 335 336 335 337 336 336 336 337 338 337 336 335 332 334 334 334 334 333 331 331 330 329 328 328
314 314 316 316 314 313 315 318 314 314 318 317 321 320 321 324 328 328 337 337 336 335 335 336 336 336 335 336 336 337 335 333 333 335 333 335 335 333 333 331 328 328 328 328
312 312 314 317 318 318 321 321 321 316 318 319 320 321 320 322 326 335 337 336 336 335 336 336 335 335 334 335 335 334 333 332 333 334 334 335 334 333 331 331 329 330 328 328
313 317 315 315 317 317 317 318 317 320 319 320 320 322 322 328 337 337 336 335 335 336 336 335 335 334 334 334 333 332 332 331 331 334 334 335 332 332 331 330 329 329 328 329
314 319 317 318 316 316 317 315 316 318 321 321 317 320 324 328 337 337 336 335 336 336 336 335 335 334 334 332 330 330 330 330 334 335 336 333 332 332 330 329 328 331 329 330
314 314 316 317 317 317 318 314 314 318 321 322 318 320 329 333 336 334 334 334 335 335 335 335 335 334 333 330 329 329 330 332 334 334 336 334 331 332 330 330 329 331 331 329
310 311 316 322 320 319 315 321 321 320 322 330 322 322 332 333 332 331 329 331 333 335 334 334 334 333 331 330 328 329 329 331 334 334 334 334 332 330 330 331 330 331 329 330
309 312 316 324 323 320 321 322 324 326 335 332 331 332 331 331 331 331 330 331 332 332 333 332 334 333 331 328 328 329 328 329 333 333 333 333 333 332 332 332 331 331 330 330
311 312 316 321 322 327 319 318 319 322 337 331 329 330 333 331 335 332 329 330 330 330 333 334 334 332 329 328 328 329 328 328 329 332 332 332 330 331 332 332 331 331 331 331
317 318 319 319 322 321 317 316 318 332 332 327 327 327 329 330 328 326 329 329 329 330 333 335 333 331 329 327 327 328 327 327 329 332 332 332 331 332 333 333 332 331 332 332
317 319 320 320 320 324 314 318 325 324 323 325 325 326 328 329 328 329 329 329 330 331 331 335 333 331 329 327 327 328 326 326 329 332 333 332 333 335 334 334 335 333 332 332
318 316 315 318 317 313 313 317 317 318 322 321 324 324 324 327 328 328 330 331 331 332 332 335 334 331 329 327 327 328 326 326 329 333 334 333 335 334 333 335 334 334 331 331
314 314 316 318 315 315 315 316 316 316 318 319 319 322 321 323 324 325 328 329 332 332 333 333 334 331 329 327 326 327 327 325 329 334 334 334 335 335 335 334 334 334 332 331
314 314 314 314 315 315 315 315 315 314 317 319 318 319 321 321 322 323 324 325 327 327 331 333 335 332 330 328 327 327 327 325 330 334 333 336 335 333 334 335 334 332 334 332
313 313 315 315 314 314 314 314 314 314 316 318 317 319 321 321 321 322 323 324 324 327 331 332 335 334 331 329 328 328 328 325 330 334 333 334 334 334 333 331 327 330 331 334

GFSCGP_925_thetae_030.txt.gz
Theta_e
306 305 307 309 311 313 317 318 320 320 320 321 322 322 323 323 323 322 323 324 324 323 323 324 325 326 325 328 327 328 333 341 341 344 347 345 344 344 342 341 339 339 338 333
306 306 307 308 311 312 313 314 316 316 316 320 321 322 322 322 323 322 323 323 323 322 322 322 323 326 328 330 331 333 335 339 344 345 344 345 342 338 337 336 335 334 333 334
307 311 310 309 310 312 313 313 315 316 315 315 315 316 317 318 318 319 320 321 321 323 322 322 322 324 329 334 336 337 338 344 347 347 346 344 341 338 336 334 334 333 334 335
305 305 306 309 310 310 313 313 314 314 315 315 316 316 316 317 317 318 319 319 320 320 321 322 322 328 333 337 341 345 347 348 348 348 346 343 337 335 335 334 334 334 336 336
305 305 306 308 310 313 310 313 315 315 315 314 315 317 317 317 319 319 319 319 321 320 318 319 320 329 336 342 346 349 349 349 348 347 346 343 339 337 335 334 333 334 334 334
306 306 306 305 306 307 308 312 312 313 313 315 315 315 316 316 317 319 320 319 320 319 318 329 328 336 338 341 345 348 348 348 347 346 344 341 336 335 334 334 334 335 334 334
312 313 312 312 308 307 306 307 311 314 315 317 315 316 317 316 317 318 318 319 319 318 323 336 336 337 339 341 343 344 344 343 341 338 336 335 334 334 334 334 334 333 333 332
313 313 312 313 313 307 305 305 311 314 317 316 316 317 316 316 317 318 319 319 321 332 333 336 336 338 340 341 342 340 339 338 337 334 335 334 335 335 334 334 333 333 333 332
312 312 312 311 310 310 310 306 307 310 312 315 316 316 317 317 317 317 317 323 335 335 335 336 337 339 339 338 339 338 337 337 335 335 334 334 334 334 333 332 332 331 332 331
310 311 310 309 309 309 311 311 309 308 314 315 317 318 318 318 318 318 317 333 336 335 336 337 338 337 337 337 338 337 337 334 335 334 334 334 334 334 333 332 331 331 330 330
310 310 311 311 310 308 309 313 308 309 310 315 317 318 317 317 317 318 317 335 336 336 336 337 337 336 336 337 336 336 335 333 334 334 334 334 333 333 332 331 330 331 331 331
312 312 315 311 309 311 311 310 311 311 310 313 315 317 317 318 318 323 327 337 335 335 336 336 336 335 336 336 336 335 335 334 334 334 333 333 333 332 331 331 330 330 330 330
312 310 312 309 312 312 314 315 318 314 312 312 316 316 316 317 318 331 337 336 336 335 336 336 335 336 335 335 335 335 335 333 333 334 334 333 333 332 331 330 328 328 328 328
313 311 312 310 312 313 318 318 317 317 315 313 313 315 316 316 317 334 334 335 335 337 337 336 336 335 335 335 334 333 334 332 332 334 334 334 333 332 331 329 328 328 327 327
311 314 313 313 314 314 316 317 317 317 316 320 318 319 317 316 318 328 334 335 336 337 336 336 335 335 334 333 333 333 333 331 333 334 334 334 333 332 331 330 329 329 329 329
311 313 316 314 314 315 317 317 316 315 315 316 318 322 318 316 327 334 335 335 337 337 336 336 335 335 333 333 331 331 331 331 333 334 334 333 332 331 331 329 330 329 327 331
313 314 315 314 316 317 318 317 316 319 316 319 320 320 321 334 337 337 336 335 336 336 336 335 335 334 333 332 330 329 330 331 333 334 334 332 331 331 330 329 329 330 330 331
310 310 312 315 316 319 321 319 323 326 317 327 332 330 331 334 332 333 332 334 335 335 335 334 334 333 332 330 329 329 330 332 334 335 333 332 330 330 330 329 328 330 329 330
309 310 312 317 321 319 323 319 322 325 328 330 329 331 332 331 328 332 331 331 331 333 333 333 333 332 330 327 328 328 331 333 333 335 333 331 330 329 330 330 330 330 330 330
308 309 313 316 320 324 319 315 313 318 332 327 325 327 330 329 333 333 330 331 328 329 332 332 332 331 328 326 327 327 331 332 333 333 333 331 330 330 331 330 330 330 329 330
317 316 316 316 321 320 313 312 315 331 332 323 323 324 330 331 330 327 330 331 328 328 331 332 331 329 327 326 327 325 327 330 332 332 332 332 331 331 330 331 331 330 331 331
316 316 320 320 319 321 309 312 323 320 320 322 322 325 329 329 329 329 330 331 332 331 333 332 329 327 325 326 326 325 324 328 331 331 331 331 331 331 331 331 331 331 331 330
317 314 314 315 315 311 308 314 316 317 318 318 320 321 326 327 327 326 329 331 332 332 332 331 328 326 325 326 326 324 326 326 328 331 331 331 332 332 333 333 333 331 330 330
313 313 315 315 315 312 315 315 315 316 316 316 319 319 322 324 324 324 325 325 326 329 333 332 329 326 324 325 326 326 326 325 330 331 331 332 334 333 333 334 333 331 330 329
312 312 314 313 314 315 315 315 315 315 316 316 317 319 321 321 322 323 323 323 326 329 329 333 329 327 325 325 326 326 326 325 332 332 332 333 333 333 334 334 333 332 329 329
309 312 313 315 314 314 315 314 314 316 317 316 316 318 319 319 319 320 321 323 324 326 327 331 331 329 327 325 325 327 326 325 332 331 332 333 333 333 333 333 333 332 331 329

GFSCGP_925_thetae_033.txt.gz
Theta_e
305 303 306 309 310 312 312 315 317 318 317 318 319 319 319 319 320 320 321 322 322 321 320 322 323 323 324 325 324 326 327 328 335 343 342 342 342 342 341 341 341 340 340 339
304 306 307 307 308 310 310 311 312 314 315 315 317 318 317 318 319 320 320 320 320 320 320 320 320 321 323 324 325 326 327 328 334 340 342 342 340 341 342 342 342 342 341 341
304 307 308 307 307 308 309 311 312 314 314 314 314 315 315 315 314 316 317 318 318 318 319 318 318 319 322 324 326 328 327 329 338 341 343 341 340 340 339 340 340 337 337 336
303 304 305 305 307 307 307 310 312 314 313 314 314 316 314 314 314 315 314 315 316 317 317 317 318 318 321 324 328 333 333 338 343 343 343 339 336 334 335 336 336 334 334 332
305 304 305 305 306 308 309 308 310 313 313 312 313 313 313 313 313 313 314 314 315 316 316 316 316 316 321 329 335 342 343 344 345 345 343 339 335 335 335 334 334 333 334 334
307 305 305 304 305 305 306 307 309 309 311 313 313 313 314 313 313 313 315 316 316 315 315 315 317 321 331 336 343 345 345 345 345 345 343 341 338 336 334 333 333 334 335 335
311 306 307 306 305 307 305 304 309 311 312 314 313 314 314 313 314 314 314 314 314 314 314 318 331 333 335 341 342 344 345 342 344 344 341 341 339 337 334 333 333 334 333 333
314 313 311 312 310 310 304 303 307 313 315 313 313 315 315 313 314 315 314 313 313 314 318 322 332 334 338 339 341 342 341 339 342 341 338 336 334 333 334 333 334 333 333 332
314 312 311 310 309 309 309 304 305 306 308 310 313 313 314 314 315 314 314 313 313 319 332 333 335 337 338 337 336 339 337 335 335 334 334 333 333 333 333 333 333 332 332 332
310 311 310 310 308 308 308 309 305 304 310 313 313 314 316 315 314 315 315 314 317 333 334 336 337 336 336 336 336 337 335 333 333 333 333 333 333 333 332 332 331 330 331 328
309 309 310 309 308 306 307 310 309 306 306 312 314 314 313 315 315 315 314 316 326 333 335 337 336 334 335 334 334 333 333 333 333 333 333 333 333 333 332 331 330 330 329 329
311 310 313 310 307 308 309 309 310 310 310 309 311 313 313 312 312 313 316 324 332 333 335 336 335 334 334 333 333 332 333 333 333 333 333 333 332 331 330 330 330 330 330 330
311 309 311 308 311 311 312 312 310 311 310 313 310 311 312 311 313 324 333 334 334 336 336 335 335 335 334 333 332 331 332 333 333 333 332 332 332 331 330 330 330 329 329 328
311 311 310 311 310 310 312 313 316 316 315 315 314 312 312 312 316 315 327 334 334 336 336 336 335 335 334 333 332 332 332 333 333 332 332 332 332 331 330 329 327 328 327 327
310 312 311 311 312 313 314 314 314 317 316 317 316 316 314 316 317 318 320 333 336 336 336 336 335 334 333 332 332 332 332 332 333 333 332 332 331 331 330 328 328 328 328 327
308 310 312 313 313 312 315 314 315 316 316 316 315 315 315 316 319 331 329 335 337 337 336 336 335 334 333 332 331 331 332 331 332 333 333 333 332 331 330 329 329 329 327 329
309 310 311 311 309 315 316 316 315 316 315 314 317 317 320 326 331 334 332 335 337 337 336 335 335 334 333 332 332 330 331 330 332 334 333 333 331 330 330 328 330 328 329 331
307 309 310 313 313 314 316 319 317 316 317 317 320 326 328 328 330 331 331 333 335 335 335 334 334 333 332 332 331 331 330 330 333 334 333 331 330 330 329 328 329 330 330 330
307 308 312 314 316 317 318 317 318 319 323 324 325 326 326 330 327 331 331 331 330 332 333 332 333 332 331 330 331 329 329 331 333 334 332 330 330 329 329 328 328 329 329 329
310 308 311 315 315 319 321 314 312 315 322 321 323 323 324 326 330 329 329 330 330 327 331 331 332 332 330 328 329 328 330 332 333 334 331 330 330 328 329 329 329 329 329 330
316 314 313 314 316 319 313 310 309 323 324 319 321 322 322 329 327 329 328 331 330 329 329 331 331 329 328 327 327 328 330 331 332 334 330 331 329 328 329 329 329 329 329 330
315 314 319 317 319 319 309 308 322 319 318 320 319 319 324 326 328 331 331 332 331 329 330 331 330 328 326 326 326 327 329 331 332 332 331 331 330 329 330 329 330 330 330 329
315 313 313 313 314 307 305 307 314 317 319 319 318 318 320 324 325 326 326 326 328 330 331 330 329 324 325 325 325 325 329 330 331 332 331 331 330 331 330 330 330 330 329 329
312 313 314 314 313 313 313 314 314 316 317 318 318 318 322 323 323 324 326 326 328 331 329 328 325 324 324 324 325 327 327 327 330 331 330 330 331 330 330 331 331 330 329 328
311 311 313 314 313 314 313 314 316 315 317 317 318 320 322 321 322 322 323 325 326 327 330 327 326 324 324 324 325 325 326 325 328 330 330 331 331 332 332 332 331 330 329 329
309 312 315 314 312 313 313 314 315 316 317 317 318 318 318 319 320 321 322 324 325 326 325 329 327 325 324 324 325 325 325 325 328 330 331 331 332 332 332 332 331 331 329 329

GFSCGP_925_thetae_036.txt.gz
Theta_e
304 303 305 308 309 311 311 312 314 316 316 317 317 318 318 317 317 318 318 319 319 319 320 320 320 322 323 322 322 322 322 323 326 336 340 340 339 339 340 339 339 339 338 335
303 303 305 307 308 309 309 310 310 312 312 313 313 313 313 313 314 316 317 318 317 317 316 317 318 320 320 321 321 322 323 322 328 336 340 340 340 337 340 341 341 340 338 337
303 304 305 306 306 307 308 309 310 312 312 312 312 314 315 314 312 313 313 314 315 317 318 318 317 317 319 319 321 321 323 323 328 336 339 340 340 339 339 340 340 340 339 339
303 303 304 304 305 306 306 309 310 312 312 313 311 315 314 314 314 313 312 312 313 313 314 315 314 315 317 319 320 322 326 326 329 337 340 340 339 337 339 340 340 340 340 339
307 303 304 304 304 306 306 306 307 311 311 311 312 311 313 311 311 310 311 312 312 312 312 312 313 314 316 317 320 329 334 335 337 340 341 340 339 338 339 340 340 337 338 334
311 307 304 303 304 305 307 308 307 307 309 311 311 311 312 311 311 311 310 311 311 310 310 310 311 313 316 323 332 339 340 341 341 342 341 340 338 336 336 335 334 334 334 334
312 309 307 305 304 304 304 303 307 309 309 309 310 311 312 310 311 311 313 312 311 311 311 310 311 322 328 334 337 341 341 340 341 341 339 338 337 335 335 334 333 332 334 334
317 312 306 308 305 304 303 302 306 314 314 310 309 314 312 311 312 311 311 310 310 310 309 310 314 327 334 335 338 340 340 339 340 338 337 336 336 335 334 333 332 333 333 333
316 313 311 311 310 307 307 304 305 305 306 306 309 310 311 312 312 312 311 311 311 310 310 327 332 334 335 336 337 338 338 338 337 337 337 336 335 333 332 332 333 333 333 332
311 311 310 311 311 310 307 305 304 302 307 311 310 311 312 312 311 313 313 312 311 311 331 334 334 334 334 335 336 337 338 336 336 335 334 333 332 333 333 332 332 332 331 331
309 309 311 309 308 305 306 308 307 303 304 310 313 312 310 312 312 311 313 321 321 320 332 334 334 334 332 333 333 332 333 333 332 333 332 332 332 332 332 331 330 330 328 328
310 310 312 310 307 308 307 307 309 310 310 306 308 308 308 310 311 312 315 322 331 331 333 334 333 334 332 330 330 331 331 332 332 332 332 332 332 331 331 330 329 328 328 329
310 309 311 308 310 309 310 310 309 308 308 311 309 308 309 310 311 313 313 322 333 333 334 333 335 335 332 330 330 330 331 331 332 332 332 331 331 330 330 329 329 329 329 329
310 310 310 308 308 309 311 312 311 314 314 310 310 311 311 311 312 313 314 320 334 335 335 335 336 334 332 330 330 330 331 332 332 332 331 331 331 330 330 329 329 328 329 327
307 312 310 309 310 311 312 312 312 314 313 317 315 315 314 313 313 313 315 326 334 335 337 336 335 334 331 330 330 330 331 331 331 331 330 331 331 330 329 327 327 327 327 327
310 312 310 310 310 312 313 311 312 312 313 314 315 316 314 312 313 321 324 330 335 336 336 335 334 334 332 331 330 329 331 331 331 331 331 331 331 330 328 327 328 328 329 329
311 312 308 309 309 311 310 311 313 312 312 313 315 313 312 319 322 322 326 330 334 336 336 335 334 334 332 331 330 329 330 331 332 332 331 331 331 330 329 328 329 329 329 329
311 311 309 309 310 312 310 316 317 312 312 312 312 312 319 325 325 326 329 329 333 335 335 334 333 332 332 331 331 331 330 330 332 333 333 332 331 330 329 328 329 328 329 330
307 308 310 310 312 313 313 316 317 317 317 315 321 322 324 324 325 327 330 330 330 332 332 332 332 331 331 331 331 330 329 329 332 333 333 331 330 329 328 328 328 329 329 329
309 309 309 313 313 314 318 308 311 313 319 321 322 323 324 322 329 329 328 329 329 329 331 331 331 331 330 330 330 329 328 330 332 333 332 329 329 329 328 327 328 328 328 327
314 312 311 312 313 315 313 310 309 322 319 319 321 320 321 323 324 324 327 328 330 329 329 330 331 329 329 329 329 328 329 330 331 333 332 329 329 328 328 328 327 328 328 328
314 313 316 315 315 317 306 309 318 316 312 319 319 319 320 319 321 326 329 330 328 330 328 331 330 328 328 328 328 327 328 330 331 333 330 330 330 328 328 328 328 328 328 328
314 312 312 311 313 309 305 306 306 308 314 319 319 319 318 320 322 325 328 327 328 330 329 330 330 326 326 327 328 327 328 329 331 333 330 330 329 328 329 328 329 329 328 327
311 312 313 313 312 313 310 311 311 315 316 318 318 319 321 324 322 326 327 327 327 330 330 329 326 325 323 326 327 330 328 329 330 331 330 330 329 329 329 329 329 329 328 326
310 309 312 313 312 313 312 312 314 314 317 318 321 322 323 322 323 325 326 326 327 328 328 327 326 325 324 324 326 327 327 328 330 330 330 330 330 330 329 330 330 329 328 328
309 312 314 315 313 314 313 314 313 314 317 317 317 319 320 318 320 321 322 325 327 328 328 327 325 325 324 324 324 325 326 327 328 329 329 330 330 330 331 330 329 329 328 329

GFSCGP_925_thetae_039.txt.gz
Theta_e
307 306 307 309 311 313 314 314 316 317 318 319 320 320 321 321 321 321 322 322 323 325 324 322 323 322 322 322 322 321 322 320 321 334 337 339 340 340 339 339 339 339 339 338
307 308 307 307 308 310 312 313 314 314 314 316 319 320 320 318 319 319 320 321 322 322 322 324 323 323 323 323 321 321 320 320 322 334 338 340 341 339 338 339 340 340 339 337
308 309 307 306 307 309 311 313 314 314 314 315 316 318 319 319 319 318 319 319 319 320 321 324 324 324 323 324 321 320 319 320 323 335 340 340 340 337 339 340 341 340 338 337
307 307 307 307 306 307 310 310 311 313 315 317 316 319 318 318 318 318 318 318 319 319 319 321 323 325 324 322 322 319 318 321 328 338 340 340 341 340 340 340 341 339 339 339
310 309 307 307 307 307 307 309 310 310 312 314 314 315 316 316 317 317 317 317 318 319 318 318 319 321 319 319 320 322 327 331 335 339 340 341 342 342 341 341 341 340 340 339
311 311 309 307 306 306 308 308 310 311 311 314 313 313 315 315 316 316 316 316 317 318 317 317 318 317 318 319 325 335 339 340 338 339 341 342 342 339 341 341 341 341 339 338
312 312 311 310 307 306 306 309 311 310 311 313 311 313 314 315 314 315 316 318 318 318 318 319 320 320 320 330 336 339 341 341 341 341 341 341 341 341 342 342 340 337 337 336
318 314 312 310 310 307 307 308 310 310 311 310 310 312 313 315 315 315 316 317 318 319 320 320 319 320 326 335 337 341 343 342 341 340 339 339 340 340 339 338 337 337 336 336
314 314 312 312 311 307 308 308 308 309 311 311 310 311 312 312 313 314 315 319 324 326 327 326 333 334 337 337 338 343 343 341 340 339 338 337 337 337 336 336 335 335 336 335
312 314 312 310 310 311 310 309 310 309 311 311 312 311 312 315 314 317 319 321 323 331 334 331 337 336 337 339 343 343 341 340 339 338 337 337 336 335 334 334 335 335 334 333
311 312 310 309 310 312 313 311 310 310 310 311 314 315 316 316 316 317 317 317 322 333 334 336 336 336 339 341 341 340 339 338 337 337 335 335 334 334 334 335 334 334 333 332
311 312 313 310 309 309 309 310 311 312 311 310 310 312 313 315 315 316 316 316 318 334 334 336 336 337 341 341 340 340 339 338 336 335 335 335 334 334 334 333 333 331 331 331
311 312 311 309 312 311 310 310 311 313 313 314 312 311 313 313 314 315 316 316 321 335 336 335 337 341 342 340 338 337 336 335 334 334 334 334 333 333 333 332 331 330 331 331
311 311 311 311 310 310 311 310 311 313 314 313 313 313 313 313 314 315 316 317 322 333 337 337 338 340 341 339 337 335 334 334 334 333 333 333 332 332 332 331 331 331 331 331
311 312 310 310 310 311 311 310 310 312 312 313 312 313 313 313 316 315 316 318 317 322 338 338 337 339 339 338 336 335 334 333 333 332 332 333 332 332 331 331 330 331 330 330
310 313 313 312 310 310 310 309 310 311 312 312 312 313 313 314 314 314 315 316 317 326 338 337 336 339 339 337 335 334 334 333 331 332 332 332 332 331 330 329 330 330 330 330
313 311 311 311 308 308 310 309 310 311 311 312 313 312 312 313 315 315 318 321 324 330 338 340 339 340 339 336 334 334 333 332 332 332 333 333 332 331 329 330 330 330 329 329
311 313 312 311 310 310 309 314 314 317 317 317 313 312 312 313 314 320 321 322 328 333 338 341 340 339 337 335 334 333 333 332 333 334 333 333 333 332 330 330 331 328 328 329
309 310 311 312 312 310 310 315 314 314 317 316 315 313 313 313 318 322 321 324 333 335 338 339 338 337 336 335 334 332 331 332 333 334 335 334 332 331 330 330 331 329 329 329
310 310 311 311 312 312 317 313 311 310 318 318 316 316 319 321 325 325 330 332 334 335 337 339 337 336 336 334 333 331 331 332 333 334 335 333 331 331 330 331 331 328 329 330
315 312 312 313 314 313 312 309 309 318 320 313 318 321 322 323 323 327 325 330 333 334 337 337 336 336 335 333 332 331 331 332 333 334 334 331 331 331 330 330 329 329 329 329
315 316 316 314 315 317 310 308 312 312 309 310 313 320 322 322 322 323 325 330 334 335 336 336 336 336 335 333 332 332 333 332 333 334 332 331 331 330 330 330 330 329 329 330
317 314 314 312 314 311 309 305 306 309 312 315 316 318 321 323 323 325 329 333 334 335 336 336 336 335 333 333 332 332 332 332 333 334 332 332 331 330 330 331 331 329 330 330
313 312 313 311 313 311 312 307 310 312 314 316 319 321 321 324 326 328 330 332 334 335 335 335 336 335 334 333 332 332 332 331 333 334 332 332 332 331 331 331 331 331 330 329
313 310 313 312 312 312 311 313 312 314 316 318 319 320 322 324 327 330 331 332 333 333 333 334 335 335 334 332 332 332 331 331 333 334 333 332 332 332 332 331 331 332 331 330
311 312 313 315 313 313 312 313 312 314 316 316 317 319 318 321 326 330 331 332 331 332 331 332 332 334 333 332 332 331 330 331 333 333 333 333 332 332 331 329 328 328 329 328

GFSCGP_925_thetae_042.txt.gz
Theta_e
311 311 310 310 311 311 312 315 317 318 318 319 321 322 323 324 324 325 326 326 327 327 327 325 325 325 326 326 328 331 332 335 337 333 336 339 341 343 343 343 343 343 342 342
310 310 310 310 309 310 311 313 316 317 317 319 320 321 322 322 323 324 325 326 326 326 326 326 325 325 326 327 329 332 333 334 337 333 338 338 341 342 344 344 344 343 343 343
310 309 309 309 309 309 310 311 313 315 316 318 319 321 322 322 323 323 323 324 324 324 325 325 325 324 324 326 328 331 332 335 336 335 339 344 345 344 342 342 344 344 343 341
310 310 309 309 310 310 310 309 310 313 316 318 319 321 321 321 322 322 322 323 323 324 324 324 324 325 324 325 325 327 330 332 334 338 339 344 344 343 342 344 344 342 341 342
309 309 310 311 310 310 310 309 309 312 314 317 317 319 319 320 321 321 322 322 322 322 323 323 323 323 322 322 323 325 327 330 335 339 341 345 344 344 345 345 342 341 342 343
311 311 312 312 312 311 310 309 310 310 313 316 317 318 319 319 320 320 320 321 321 320 321 321 322 321 321 322 323 324 327 335 340 343 344 346 345 345 346 347 345 345 345 344
311 312 313 313 314 311 309 309 311 312 313 314 315 316 317 319 318 318 319 319 320 321 322 322 323 324 324 325 327 334 339 343 344 344 344 346 348 347 348 347 347 346 344 343
315 314 312 313 316 312 310 309 311 312 313 313 312 314 316 316 317 318 318 320 320 322 326 327 328 327 325 325 332 339 342 345 345 345 346 347 348 348 348 347 346 344 342 339
313 312 311 313 314 314 313 312 311 311 312 315 312 313 314 315 317 318 319 319 324 327 330 334 334 333 332 334 339 342 345 346 346 347 347 348 347 347 346 345 342 339 337 340
311 314 311 312 312 312 311 311 311 311 317 315 313 314 315 316 316 316 320 321 321 326 334 336 336 339 338 340 343 345 346 347 346 346 346 345 345 344 344 341 338 338 339 338
310 311 312 311 312 311 312 311 315 314 315 313 313 314 316 318 320 321 320 320 322 330 339 339 340 339 341 345 346 347 347 346 346 345 344 344 343 340 339 339 339 339 339 338
311 313 312 311 310 310 312 312 315 320 315 314 315 317 319 320 319 319 319 319 321 328 339 338 339 342 346 346 346 346 346 345 344 343 342 340 339 339 339 338 338 338 335 333
313 313 313 310 314 313 311 310 311 313 315 320 316 315 319 318 317 317 318 319 320 321 334 339 339 343 346 346 346 345 344 343 341 339 338 338 338 338 338 337 335 334 332 332
311 313 313 314 311 310 310 311 311 312 315 313 313 315 316 317 316 317 318 319 318 319 328 339 339 342 344 344 344 343 341 339 338 337 337 337 336 335 335 334 333 332 332 332
311 315 312 311 311 310 310 310 310 312 312 313 313 314 314 315 316 317 318 317 317 318 325 340 339 340 341 342 341 339 338 336 335 334 333 334 335 335 334 334 333 332 332 332
312 317 313 313 312 311 311 311 311 310 310 311 312 313 313 313 313 314 314 316 317 319 322 339 338 339 342 340 339 338 336 334 332 331 333 334 334 334 334 332 332 332 332 332
314 313 313 313 310 311 311 310 311 310 310 311 312 313 314 314 313 314 315 315 318 320 323 339 339 341 341 339 338 336 335 331 330 332 334 334 334 333 332 331 331 331 332 333
313 313 313 315 313 316 310 312 314 315 314 315 315 315 316 315 314 314 314 316 320 322 325 339 341 342 339 338 337 335 331 329 331 332 333 334 333 332 330 330 330 332 333 332
309 313 314 314 314 311 311 311 313 317 317 315 316 317 317 316 314 315 315 317 322 324 331 338 341 340 338 337 336 334 329 330 331 332 333 334 332 332 330 330 331 331 331 332
312 310 315 315 317 316 316 316 312 312 319 319 320 321 319 316 316 316 319 330 332 334 337 341 340 339 338 336 335 330 331 331 332 332 332 333 332 332 331 331 331 331 332 332
317 314 314 314 317 314 313 312 310 318 319 313 315 316 319 321 319 320 322 327 329 335 338 339 339 339 337 336 333 329 331 332 332 333 333 331 331 332 331 331 331 331 331 331
317 318 320 320 318 320 312 309 316 315 311 310 313 314 319 323 322 322 323 327 329 335 339 340 339 338 336 334 330 328 332 332 333 333 331 332 332 331 332 332 331 331 332 332
319 315 316 314 318 314 312 309 307 308 308 310 314 317 319 321 323 323 325 327 330 337 339 338 338 337 335 331 328 331 332 333 333 332 332 332 332 332 332 333 332 332 333 332
314 313 313 312 314 314 313 311 310 311 311 313 317 319 320 323 324 325 328 331 335 336 339 339 338 338 335 329 329 332 333 333 333 332 333 333 333 333 333 332 333 333 333 332
314 314 312 313 313 313 311 311 311 312 314 317 320 322 324 325 327 328 330 333 335 337 338 337 338 335 332 329 329 332 333 332 333 333 334 334 333 334 333 334 332 333 333 332
313 314 315 316 313 313 312 313 312 313 314 316 318 320 322 324 327 331 333 335 336 337 338 339 335 331 329 328 329 331 331 332 333 334 334 333 332 333 333 333 331 329 330 329

GFSCGP_925_thetae_045.txt.gz
Theta_e
313 312 314 315 314 314 314 313 314 316 318 319 319 321 322 323 324 325 327 329 332 332 330 329 329 329 329 330 332 333 334 336 336 333 335 334 337 340 344 345 345 345 347 346
312 312 313 312 312 312 312 312 314 314 315 318 321 321 321 322 324 325 325 327 328 329 329 330 329 328 330 330 332 333 335 337 339 336 336 333 336 339 343 345 346 347 347 346
311 311 311 311 311 312 312 313 312 313 315 317 319 320 321 322 322 323 324 325 326 328 328 329 329 331 328 330 331 332 334 337 340 337 337 339 341 344 344 347 348 347 346 345
310 310 310 310 310 311 312 312 312 312 312 314 316 321 321 322 323 324 324 325 326 326 327 328 330 332 330 329 327 329 332 335 339 342 336 338 343 344 347 347 346 345 345 345
309 310 310 311 311 312 313 312 312 312 312 313 314 317 319 320 323 323 323 324 324 325 325 325 326 327 325 325 327 328 330 336 337 339 337 337 344 344 345 345 349 345 344 342
311 313 313 313 315 314 312 313 313 312 312 313 313 316 318 320 321 322 323 323 324 324 324 325 325 323 323 323 324 325 329 335 336 337 343 345 346 348 347 349 345 344 344 344
311 312 313 314 314 315 314 315 315 312 314 313 313 314 317 318 320 321 321 322 323 323 323 323 324 324 325 325 324 325 328 331 334 340 344 346 349 351 352 348 346 345 346 346
313 313 312 313 314 314 317 315 313 312 312 312 316 316 315 318 320 321 320 320 321 322 323 324 325 325 327 326 325 328 333 339 343 345 347 349 350 350 351 348 349 347 347 346
313 313 311 311 313 314 315 317 314 311 312 313 316 316 317 316 318 319 320 321 321 325 327 329 331 331 332 327 327 332 338 343 346 347 348 350 350 350 349 351 349 347 346 345
311 313 311 312 313 313 315 314 320 313 314 313 314 316 317 316 316 319 320 322 323 324 327 332 333 333 336 332 335 341 344 347 348 349 350 350 351 351 350 348 346 343 342 340
310 313 312 311 312 315 315 314 316 316 317 315 316 319 318 318 317 319 320 322 323 328 336 339 341 343 341 340 341 344 346 348 348 349 350 349 348 348 346 343 341 342 340 339
311 314 314 311 311 313 313 313 313 320 318 315 315 319 318 320 322 319 322 321 322 323 338 341 340 343 344 344 346 346 347 347 348 348 347 347 346 343 342 341 340 340 338 337
314 313 316 312 312 315 316 315 312 315 316 319 319 320 319 321 322 321 321 321 321 322 333 342 343 348 346 346 346 346 346 346 346 346 345 343 342 341 340 339 338 337 336 334
313 314 314 317 313 314 314 314 314 313 316 315 313 315 318 318 318 319 320 321 319 320 328 343 343 346 346 345 344 345 344 344 343 342 341 341 340 339 338 337 336 335 334 333
313 319 314 313 312 311 312 311 310 311 311 313 313 312 313 317 317 319 318 318 317 320 324 343 342 345 345 345 344 342 341 341 340 339 339 338 337 336 335 335 335 334 333 332
314 316 314 314 312 311 312 311 311 311 311 311 311 311 311 313 314 315 316 316 317 319 322 339 342 342 343 344 342 340 339 338 337 336 335 334 334 334 335 335 334 333 332 332
314 315 314 315 312 312 311 311 311 311 311 311 311 311 312 313 314 316 317 316 317 318 322 329 342 341 343 341 340 339 337 335 333 333 333 333 334 334 334 333 332 332 332 332
313 316 315 316 314 315 312 313 314 314 315 315 316 315 316 316 315 316 316 317 317 319 323 328 341 342 342 341 338 336 334 332 332 332 332 333 333 333 333 332 332 332 334 335
313 313 317 319 318 314 313 314 316 315 318 315 316 316 315 316 318 319 316 316 317 320 330 332 340 341 341 339 337 334 332 331 332 332 333 332 332 331 331 332 333 333 334 335
316 312 315 316 319 319 315 316 313 314 318 318 317 319 321 322 323 318 317 318 328 330 331 340 340 341 340 339 335 333 330 331 331 332 333 332 332 331 331 331 332 333 334 334
317 318 318 317 319 317 317 313 311 320 318 316 314 317 320 323 325 325 323 324 325 329 332 337 340 341 339 337 335 331 331 331 333 333 333 333 331 331 330 331 332 333 333 333
321 319 321 319 320 325 315 312 315 315 313 311 313 315 318 320 321 323 324 323 326 332 331 339 340 342 337 336 333 331 332 334 333 333 333 332 331 331 331 332 333 333 334 333
319 319 317 315 320 316 315 313 312 311 310 311 311 313 316 320 320 321 324 326 329 330 333 339 341 338 336 334 330 331 333 334 333 333 332 332 332 331 332 332 333 334 334 334
316 315 317 315 314 315 313 313 311 311 312 312 313 315 318 319 321 323 325 327 331 332 339 339 337 338 337 333 328 331 333 333 333 332 333 332 333 333 333 334 334 335 335 334
316 315 317 316 314 313 312 312 312 312 311 312 317 321 322 320 324 326 328 330 332 336 338 339 337 337 334 329 329 332 333 333 332 333 333 334 333 334 335 333 334 336 333 333
315 315 318 317 313 312 313 312 311 310 310 313 315 319 323 324 326 327 332 335 336 336 338 339 336 334 329 329 331 332 332 334 332 334 334 334 333 333 333 333 330 330 330 331

GFSCGP_925_thetae_048.txt.gz
Theta_e
313 313 314 315 316 316 315 315 315 315 315 316 317 319 321 324 323 323 325 327 330 332 333 333 333 335 334 335 332 334 336 337 335 340 340 338 338 338 339 342 344 346 348 349
312 313 313 313 314 313 313 314 314 314 314 315 316 316 319 322 322 325 325 325 327 329 333 331 331 334 333 335 334 334 334 333 333 335 336 336 337 337 338 342 346 346 349 348
311 312 312 312 312 312 313 313 313 314 314 314 314 316 319 319 322 323 324 326 327 327 328 332 335 335 333 335 331 332 334 331 329 332 338 340 335 335 340 346 347 347 348 348
311 310 310 311 311 312 312 312 312 312 313 314 314 316 318 319 321 323 323 324 326 327 329 329 333 337 335 333 333 333 333 333 334 337 344 342 342 343 342 345 349 349 348 348
311 311 312 312 313 314 314 313 313 313 315 314 313 314 315 316 319 321 324 324 325 327 328 328 329 331 329 328 329 329 329 334 335 338 339 342 344 344 345 349 349 350 348 347
312 312 312 314 315 314 314 313 313 314 315 316 314 314 315 316 318 319 322 324 325 326 325 326 327 327 327 328 329 330 330 330 336 337 343 341 339 342 349 347 351 348 345 344
311 311 313 315 315 316 312 314 321 315 315 317 314 314 316 316 316 318 319 322 324 325 326 327 327 328 329 327 326 328 332 339 338 341 346 341 335 346 352 351 349 346 344 343
312 311 312 313 314 314 313 313 317 322 315 314 312 312 315 317 318 318 319 322 323 324 324 326 326 328 327 327 327 328 331 334 337 342 341 344 341 351 355 349 346 344 344 344
310 310 310 310 310 314 313 314 316 320 317 318 313 312 312 315 317 318 319 321 324 324 326 327 328 334 335 330 333 329 333 334 334 336 344 348 351 353 352 350 345 345 347 347
311 313 311 311 311 312 315 315 316 317 317 318 314 312 312 317 321 318 319 322 323 325 325 326 328 331 334 333 331 333 337 343 348 348 350 352 354 352 352 351 349 349 349 348
311 313 313 313 311 311 313 314 316 319 318 317 314 314 317 319 321 320 319 321 324 323 325 331 334 343 341 336 335 342 343 348 348 350 351 352 352 353 352 350 348 348 346 345
313 315 315 312 311 312 314 316 317 321 317 316 317 318 317 317 317 318 316 323 323 324 324 338 339 340 343 343 342 344 348 349 351 351 352 352 351 350 347 345 343 342 341 339
315 314 316 312 311 315 315 314 313 315 319 319 319 316 318 317 317 317 319 320 322 321 322 341 340 340 341 343 343 348 349 349 348 348 347 347 346 346 344 343 341 340 338 338
314 315 315 317 313 315 315 314 314 314 319 314 314 314 316 316 317 316 317 321 321 319 322 342 342 347 348 345 345 346 347 347 346 346 346 346 345 344 343 341 340 338 336 335
314 319 315 313 312 312 312 313 311 313 314 313 311 312 312 316 316 315 316 317 318 318 321 342 343 347 347 345 345 345 346 346 345 344 344 344 342 341 339 338 336 335 334 335
315 317 315 316 313 311 311 311 310 310 311 311 310 311 313 313 315 315 315 316 316 317 319 330 342 344 346 346 343 343 343 343 342 342 342 341 339 338 337 337 336 336 334 332
316 318 316 317 313 312 315 314 314 315 314 316 315 316 318 318 315 316 317 317 318 317 318 325 338 342 343 341 342 342 342 340 340 339 337 336 335 336 335 334 335 332 332 332
318 316 316 317 316 318 312 313 314 316 316 315 315 314 316 317 316 316 317 319 317 318 319 330 336 341 342 341 340 339 338 337 336 335 334 334 335 335 334 333 332 331 333 333
317 314 318 319 319 316 314 317 318 318 318 317 318 317 317 318 319 317 320 320 318 320 330 334 336 339 341 342 338 337 335 334 333 333 333 335 334 332 334 333 332 333 333 334
316 315 317 316 319 320 321 315 313 313 319 315 315 316 318 319 322 323 325 325 320 330 332 334 332 337 341 341 337 335 334 333 333 332 333 333 333 333 333 334 332 333 332 334
320 319 319 318 320 318 315 314 312 318 318 314 313 314 315 318 320 319 322 324 326 330 332 332 332 338 340 340 336 334 333 333 334 333 332 333 332 331 333 332 333 332 333 333
323 321 319 318 318 319 313 314 315 314 311 312 312 311 312 314 315 318 321 323 325 328 330 331 334 339 340 339 335 333 334 334 334 333 334 334 332 332 331 332 331 332 333 333
320 319 318 318 320 316 316 316 313 313 312 312 311 312 312 314 315 317 321 322 324 330 331 331 332 339 339 337 333 334 336 334 334 334 333 333 332 331 332 332 332 333 333 334
315 316 320 317 316 314 312 313 313 312 313 311 311 311 312 316 317 317 320 323 327 331 333 331 337 340 338 334 333 336 335 334 335 334 334 333 333 334 332 333 333 334 335 335
316 317 318 318 316 315 312 311 310 309 309 309 309 310 317 320 322 321 321 324 329 332 332 335 338 336 336 332 332 335 335 334 334 333 333 333 333 335 333 331 333 334 333 334
317 317 318 317 314 310 310 309 308 308 308 308 310 314 316 320 323 322 325 330 332 332 333 338 336 336 332 330 333 335 333 335 334 334 334 333 335 336 334 331 327 330 331 332

GFSCGP_925_thetae_051.txt.gz
Theta_e
311 309 309 310 311 312 312 312 313 313 313 313 312 313 313 314 314 317 319 319 321 324 323 326 328 328 331 333 333 334 336 336 338 345 346 347 350 349 346 340 338 338 343 348
309 309 311 311 311 311 311 311 311 312 313 312 312 313 313 313 313 314 315 319 320 322 323 325 325 328 331 332 336 335 334 335 335 335 334 335 340 341 338 335 332 339 343 348
309 310 311 310 309 310 309 310 311 311 312 312 311 312 312 312 313 314 315 316 320 320 321 322 323 327 329 336 338 335 333 332 333 333 331 332 337 337 336 340 339 339 344 348
309 309 311 310 310 312 313 313 313 313 313 312 312 312 311 312 313 313 314 315 316 317 319 321 321 323 332 336 332 331 331 331 332 331 331 331 336 340 337 335 337 346 347 349
309 309 310 311 314 314 314 314 313 313 312 312 312 312 312 312 313 312 312 313 314 317 317 319 320 323 329 334 335 332 332 334 332 331 331 331 335 336 339 339 346 349 349 348
308 310 312 313 313 313 313 313 312 313 312 313 311 313 313 312 312 313 313 313 314 315 319 318 319 323 326 329 329 331 334 333 331 331 332 335 338 341 342 346 350 349 349 348
310 309 313 314 314 313 312 311 313 313 315 315 312 311 312 312 312 313 314 314 314 314 314 318 319 319 320 322 325 327 328 331 332 332 334 336 339 339 342 348 350 349 347 346
310 310 309 315 313 311 312 315 318 319 315 313 314 316 312 311 312 317 317 315 314 314 314 316 318 320 320 322 323 325 328 330 331 333 338 339 338 339 341 348 348 347 346 345
310 311 311 310 310 310 311 314 311 317 316 320 317 313 313 316 317 317 317 316 316 315 316 318 318 318 321 323 325 326 325 330 334 338 340 342 342 340 342 350 348 348 346 344
313 314 312 311 311 311 310 311 313 314 318 318 313 312 316 318 318 316 316 316 316 318 319 317 321 321 324 327 330 330 327 332 339 340 342 344 345 342 349 349 348 345 342 342
311 313 314 312 311 310 311 312 317 317 319 319 318 315 318 317 316 315 314 314 315 319 319 320 320 328 341 341 332 333 334 334 333 333 337 342 347 352 350 348 344 343 345 346
314 315 314 313 311 311 315 316 315 319 318 320 319 314 317 314 314 314 314 314 315 316 319 317 318 334 337 340 341 339 343 346 346 347 348 349 349 353 351 348 347 346 348 347
315 313 315 312 309 313 314 313 312 313 314 315 316 314 316 316 316 315 315 314 315 318 318 316 316 334 336 338 341 347 347 348 349 349 350 351 351 350 348 349 349 346 345 342
313 314 314 315 314 313 313 312 312 312 313 313 312 313 313 317 316 315 316 316 316 317 318 317 324 326 333 337 339 347 348 349 349 349 348 346 345 344 342 342 341 339 338 338
312 316 315 315 315 314 313 313 311 311 310 312 312 312 314 315 316 314 317 316 314 315 315 315 326 335 337 338 339 346 347 346 346 346 345 344 343 342 340 339 338 337 335 334
314 317 316 317 316 314 314 314 311 311 315 317 317 314 315 315 314 314 314 314 313 314 314 315 337 339 340 343 346 344 345 345 345 344 343 342 341 340 338 336 335 335 334 334
315 316 315 314 313 314 316 313 314 315 315 316 317 315 313 314 315 314 313 313 315 316 316 317 334 340 339 341 343 343 344 343 343 342 341 339 338 337 336 335 336 334 333 333
314 315 316 315 314 318 314 315 315 315 314 315 318 317 317 316 316 316 318 315 320 323 321 331 334 335 329 334 341 341 342 341 340 339 338 336 336 336 336 335 334 333 332 334
314 315 316 316 312 315 315 316 314 314 313 315 315 314 314 314 315 317 318 316 318 319 326 329 333 330 328 328 339 338 338 337 336 335 335 335 334 332 333 333 332 333 333 334
314 315 315 314 317 318 319 315 313 311 316 314 312 312 312 312 316 316 314 314 316 317 324 329 333 333 327 328 336 335 333 333 333 333 334 334 333 333 333 332 333 332 332 333
317 315 316 316 316 316 316 313 313 314 315 311 312 312 311 311 311 311 312 313 314 316 326 329 331 331 330 334 334 333 332 331 332 334 334 333 332 333 333 333 332 331 332 333
318 317 315 314 319 316 313 313 315 313 312 312 312 312 312 311 311 311 311 312 314 316 320 330 331 331 333 337 333 332 331 332 333 333 332 333 333 334 333 333 332 332 333 331
311 314 316 316 313 315 313 313 312 312 313 311 312 311 310 311 311 311 311 313 313 315 321 331 331 332 335 338 333 333 333 333 333 332 332 332 334 332 331 332 332 333 333 330
312 312 316 316 316 315 314 313 311 310 309 309 309 309 310 311 311 312 314 315 315 317 328 330 331 335 335 336 334 333 333 333 333 332 332 332 331 332 332 331 332 332 332 331
311 313 315 316 315 312 313 310 310 309 308 308 308 309 310 311 314 317 319 319 318 319 323 331 330 330 333 334 334 334 334 332 334 334 333 333 333 333 332 331 332 332 332 331
313 316 317 317 314 311 310 307 307 307 308 308 309 310 311 313 314 317 322 323 321 325 331 332 331 329 330 335 334 334 333 332 333 332 333 334 333 330 329 328 328 331 332 332

GFSCGP_925_thetae_054.txt.gz
Theta_e
308 307 308 308 308 310 311 311 310 311 311 310 310 311 311 311 311 310 311 313 314 316 318 321 324 325 326 327 334 335 336 337 339 342 347 349 349 346 342 347 350 349 346 346
306 307 309 309 309 309 308 308 308 309 311 311 310 310 310 310 310 310 310 311 312 314 316 318 320 322 324 326 329 334 336 340 341 342 346 347 346 346 342 341 341 344 345 339
307 308 309 309 308 309 310 311 313 313 312 311 310 311 310 310 310 310 310 310 311 313 315 316 318 321 324 324 327 332 335 338 342 345 348 348 346 343 343 345 344 339 337 337
307 308 309 309 311 313 313 313 314 314 312 311 311 312 311 311 310 310 309 308 308 310 312 313 315 317 319 322 325 329 333 336 340 343 342 343 337 337 334 334 335 335 337 338
307 308 308 309 314 313 313 313 313 313 312 310 311 309 310 310 311 311 310 310 310 309 309 311 313 315 318 321 324 327 333 336 337 338 337 335 334 332 328 329 333 333 332 336
306 307 311 312 312 312 313 312 309 310 310 312 311 310 311 309 309 311 312 314 314 313 312 312 311 314 316 319 325 332 335 336 333 333 334 333 332 331 333 334 338 339 341 347
308 307 312 313 312 311 311 309 310 311 310 313 311 312 311 310 311 315 316 315 314 313 314 314 315 313 313 316 321 331 333 334 332 332 331 331 331 330 332 334 340 344 349 349
307 307 309 314 312 310 309 310 310 315 314 313 312 316 313 315 315 315 314 313 313 313 313 316 316 317 316 315 317 326 331 332 331 331 331 331 332 333 334 335 340 345 348 348
310 311 311 311 310 309 309 311 308 312 311 315 314 315 311 315 315 314 313 313 313 312 312 314 315 316 316 316 317 318 324 328 330 331 332 333 334 337 338 338 342 348 348 347
311 312 311 311 310 309 309 308 310 309 315 317 314 314 313 317 315 314 312 312 312 312 312 314 314 316 315 319 323 319 320 321 325 327 330 334 336 337 338 340 344 347 347 346
312 311 312 311 310 309 309 312 314 314 317 318 320 316 315 317 313 313 312 311 311 311 312 313 314 316 314 325 335 328 327 323 326 330 332 336 340 341 341 343 346 346 346 345
314 312 314 312 310 310 312 313 312 308 310 318 317 314 312 312 312 311 312 312 312 312 313 314 315 312 315 322 328 335 331 329 329 333 340 341 344 344 343 343 345 347 344 342
313 310 314 310 309 309 312 314 312 313 312 314 316 314 310 315 314 313 311 312 313 314 314 316 313 312 315 318 324 338 336 334 336 338 338 340 344 347 346 346 346 344 343 344
314 312 312 314 311 309 313 314 313 312 315 313 313 312 311 311 316 313 312 314 314 314 314 316 316 314 314 315 320 336 345 342 340 343 346 348 349 350 348 346 344 344 345 345
311 311 313 313 314 315 316 316 315 314 313 313 311 315 314 312 313 313 312 313 314 314 314 315 314 315 315 316 322 337 346 347 348 347 346 345 345 346 346 346 345 344 344 342
310 312 315 314 314 314 313 313 314 314 313 313 316 316 314 312 311 312 312 313 314 314 314 315 322 325 325 322 323 337 343 345 346 343 342 341 341 341 340 340 341 339 336 334
309 311 314 315 313 313 315 317 316 314 314 314 315 315 314 314 314 314 314 316 317 318 318 321 325 325 321 322 323 324 342 343 343 342 340 340 339 338 337 336 334 333 333 333
311 312 315 316 312 317 314 315 313 313 312 313 313 314 312 311 311 311 311 314 314 313 315 317 320 325 323 323 323 326 338 342 342 340 339 338 337 335 335 335 334 333 333 333
311 312 316 316 307 312 314 316 315 314 314 314 314 312 311 311 310 311 312 311 310 311 313 315 318 327 326 325 326 327 326 340 340 338 337 336 335 334 334 333 333 333 333 332
312 310 310 315 317 315 312 315 313 313 313 314 311 311 311 311 313 311 309 309 309 310 311 313 315 324 326 325 325 327 329 338 337 336 335 334 335 334 334 333 332 332 332 332
313 316 316 315 316 315 314 313 312 313 313 311 311 311 313 313 311 311 310 310 310 310 311 313 314 325 326 324 324 325 330 335 335 334 333 333 334 333 333 332 332 332 331 330
312 314 316 316 316 314 313 313 316 312 312 312 311 310 310 310 311 310 309 310 310 310 312 314 315 326 328 323 325 324 331 332 333 333 333 332 332 332 332 332 331 332 331 328
307 313 314 312 312 311 313 314 310 312 311 309 308 308 308 310 309 309 310 311 311 312 314 315 320 327 330 328 332 332 331 333 333 332 332 332 332 332 331 331 331 330 329 327
308 308 311 314 312 314 313 310 308 307 307 308 308 308 308 308 309 310 311 313 315 318 318 317 321 329 330 332 334 331 332 332 331 331 332 332 332 331 331 331 331 330 328 327
308 309 313 315 313 313 311 309 307 306 306 307 307 308 308 309 310 311 313 314 316 319 321 319 325 331 328 330 332 332 332 331 331 331 331 331 331 331 330 330 330 331 329 329
310 315 315 314 313 312 310 306 306 307 307 308 307 308 309 310 312 312 313 314 317 320 326 328 330 328 330 329 332 332 331 331 331 330 330 331 328 328 327 326 325 330 331 330

GFSCGP_925_thetae_057.txt.gz
Theta_e
306 306 308 307 306 308 309 310 309 309 310 309 308 310 310 309 309 308 309 310 310 311 312 313 315 317 320 325 334 342 341 343 341 341 341 345 344 344 344 345 346 345 345 345
305 306 307 307 307 308 308 308 310 309 311 311 310 310 310 309 309 309 308 309 309 310 311 312 313 315 317 320 324 329 331 336 338 337 340 341 343 345 345 346 348 348 348 348
306 307 308 308 310 312 311 312 313 312 312 310 309 310 309 309 309 309 309 308 308 308 309 310 311 312 314 315 318 323 327 329 332 336 340 343 345 345 346 346 344 343 339 343
306 307 308 308 311 312 311 312 313 312 311 311 310 311 309 309 309 309 308 308 307 307 308 308 308 309 310 312 314 316 322 327 331 335 341 344 343 344 344 343 341 340 340 340
306 307 307 307 311 312 310 312 311 311 310 309 310 309 308 308 308 308 307 310 313 312 311 311 312 313 314 314 313 314 317 325 330 335 342 343 343 341 342 340 339 339 338 340
306 306 308 310 312 311 311 310 307 307 308 310 309 309 308 307 308 308 312 314 313 312 312 312 312 314 315 316 317 317 315 320 328 332 335 342 341 339 339 335 335 332 333 333
307 307 311 311 311 308 307 306 308 308 307 310 308 310 310 309 310 313 313 313 312 311 310 310 311 313 315 316 316 316 315 319 328 333 336 339 339 337 337 335 331 331 334 336
306 307 310 313 310 309 309 307 308 311 311 308 308 310 310 312 313 313 314 312 312 311 308 308 310 311 314 315 316 315 315 318 327 333 334 336 336 335 334 333 331 331 331 335
310 311 310 310 309 308 309 310 307 309 309 309 309 310 311 311 313 313 312 311 310 309 309 309 309 311 313 315 316 313 321 317 321 331 333 334 335 334 332 331 331 331 334 337
310 312 310 311 310 309 307 307 308 307 313 314 310 312 312 310 310 313 312 310 309 309 308 309 310 311 313 316 314 320 326 323 319 327 331 331 331 331 332 332 333 335 337 343
311 310 311 311 310 308 308 310 311 308 310 309 310 311 310 312 313 313 311 310 309 308 309 310 310 311 313 315 314 318 321 331 318 324 330 330 331 331 332 334 336 338 342 345
312 310 313 312 309 309 309 309 310 305 306 314 312 312 310 309 308 310 310 311 310 309 309 310 311 311 313 311 314 315 318 331 331 319 323 326 328 333 335 337 338 340 344 346
310 309 313 310 307 306 311 313 311 310 309 313 314 311 309 309 310 309 310 311 310 310 311 312 312 313 313 311 313 316 323 331 334 327 329 332 335 338 340 341 341 343 344 344
313 309 312 313 310 307 311 312 312 314 316 314 313 311 310 310 310 311 312 311 310 310 314 314 314 315 316 315 321 324 324 334 338 335 337 341 342 341 341 342 342 343 344 344
309 311 311 312 312 313 314 314 314 315 315 318 314 312 311 310 311 311 312 312 313 317 318 318 317 317 321 319 320 320 321 332 341 341 341 343 344 343 343 343 343 343 343 342
307 309 313 313 311 311 312 313 313 312 312 314 314 314 312 312 311 311 310 311 312 317 315 314 314 317 320 321 321 321 322 328 343 343 342 343 344 344 344 343 343 342 343 342
307 307 309 312 312 313 314 313 314 315 314 314 315 313 312 313 311 310 310 310 311 313 311 312 314 315 317 324 323 322 322 327 342 342 341 341 341 340 340 341 341 339 338 340
307 309 314 314 311 316 311 314 313 313 313 312 311 312 312 311 310 309 309 309 311 309 310 310 313 312 313 316 325 324 325 329 340 340 339 338 337 335 335 335 334 336 336 334
308 310 316 316 310 311 312 314 314 313 313 312 313 312 312 311 310 310 309 309 309 309 309 310 311 311 313 315 324 326 328 324 338 339 338 336 335 333 332 332 332 331 331 330
310 311 314 314 317 313 309 314 312 313 315 312 311 311 311 311 312 310 308 308 310 308 308 309 310 311 314 318 325 326 326 324 339 338 337 335 334 333 331 332 332 331 331 330
313 315 315 314 314 312 312 313 311 315 312 311 311 311 310 311 310 308 307 308 307 307 309 310 310 313 315 318 323 323 327 324 336 336 335 333 333 332 332 332 332 330 329 328
308 308 309 314 316 311 312 313 315 314 312 312 311 309 308 308 307 307 307 308 307 309 310 311 312 315 315 323 324 324 325 325 325 333 333 332 332 332 331 332 330 329 328 326
305 312 313 308 307 306 311 312 312 312 311 307 306 305 307 308 307 308 307 307 309 310 311 313 317 317 318 327 323 324 324 326 328 331 331 331 332 332 331 330 329 327 326 324
308 306 306 309 309 310 312 310 310 308 305 304 305 306 307 308 308 308 309 309 310 311 313 315 319 320 325 325 325 325 326 327 331 330 331 331 330 330 330 330 329 327 326 325
308 308 310 312 311 312 312 310 307 304 305 306 306 307 308 307 308 309 310 311 312 312 313 316 322 322 327 324 328 328 326 330 331 331 331 329 329 329 328 328 328 328 328 328
307 309 313 313 312 312 312 307 306 306 307 306 307 306 307 307 308 310 311 311 312 313 315 317 322 328 329 330 331 331 331 331 331 330 329 328 326 325 324 324 326 328 328 327

GFSCGP_925_thetae_060.txt.gz
Theta_e
305 305 307 307 305 307 308 309 309 308 309 310 309 309 308 309 308 307 308 309 309 310 311 311 312 312 314 313 314 320 333 338 346 344 341 339 338 337 336 335 336 340 340 340
304 306 306 307 307 307 307 307 310 309 310 311 309 309 308 308 308 308 308 308 308 308 309 310 310 311 311 312 313 314 319 324 336 342 343 343 343 343 342 341 340 342 343 343
305 306 307 308 310 310 310 311 312 311 311 308 308 306 307 308 308 308 308 307 307 307 307 308 309 310 312 312 314 314 314 315 319 329 337 340 342 342 343 345 344 343 343 346
305 306 308 307 309 310 310 311 312 310 309 308 309 309 307 307 306 307 306 304 305 308 310 310 311 311 313 314 315 315 315 315 315 318 330 336 339 341 340 341 342 341 343 345
307 306 307 307 309 310 308 311 310 310 309 308 307 307 306 306 307 307 306 307 310 311 310 310 310 311 311 313 314 316 316 316 316 317 325 333 337 337 338 340 341 342 343 343
304 305 306 307 311 310 308 308 305 304 306 307 307 308 306 306 308 307 309 310 310 310 310 309 309 310 310 311 312 316 316 317 316 316 320 330 338 339 340 340 340 341 341 340
307 306 309 310 309 307 305 304 306 306 305 307 306 308 306 306 307 307 312 312 310 309 308 308 307 308 309 310 311 314 316 316 318 319 318 324 335 339 340 338 338 339 336 335
308 308 310 312 309 308 307 305 307 310 310 305 306 308 307 307 307 309 311 311 311 310 308 306 306 307 309 310 311 313 315 314 319 326 322 321 329 337 339 337 336 339 336 333
311 311 309 310 309 307 308 308 305 307 306 306 307 307 307 308 308 309 311 311 309 309 307 306 306 307 308 310 311 313 314 315 320 325 326 323 329 335 336 337 337 337 336 333
310 312 311 310 309 308 307 306 308 305 312 313 309 308 309 307 307 307 310 309 308 308 306 307 307 309 311 310 311 314 313 314 317 323 328 323 326 333 334 335 334 334 333 331
310 311 311 311 310 308 307 309 309 305 305 308 308 309 306 308 308 309 307 307 308 308 307 306 307 310 310 311 312 313 312 313 317 322 331 322 326 330 333 334 334 332 331 331
311 311 313 312 309 308 306 308 308 305 307 313 312 312 309 307 306 307 307 308 310 310 308 307 308 310 312 316 317 314 312 316 320 326 334 324 324 329 331 332 332 332 333 335
312 310 313 310 307 306 311 311 308 307 307 312 314 312 307 308 308 308 307 309 310 310 308 308 311 314 314 315 317 318 318 320 321 336 335 322 324 330 331 331 332 334 336 339
312 310 312 311 308 305 310 310 310 311 315 312 313 312 311 310 310 308 310 310 309 309 313 315 314 312 313 314 315 318 320 321 322 338 333 325 326 329 331 333 335 336 339 341
309 312 311 310 311 312 312 312 312 313 313 315 313 313 312 312 310 310 310 309 309 309 309 313 312 313 314 313 314 315 321 323 322 339 334 332 332 333 335 337 338 339 340 342
306 308 310 312 312 312 312 311 311 311 312 313 313 313 311 311 310 310 309 309 310 310 310 311 310 311 313 314 314 314 315 323 323 337 338 339 339 338 339 341 341 341 341 341
309 308 309 311 311 312 313 312 311 311 313 313 314 313 311 310 312 311 310 310 309 309 311 309 310 310 310 312 313 313 314 321 325 335 340 341 340 339 339 341 340 339 340 340
305 306 309 311 311 315 309 312 312 313 313 312 311 311 311 311 310 311 310 309 309 309 308 308 310 309 309 310 311 313 314 324 325 336 337 339 339 339 338 337 338 336 338 338
305 308 313 315 311 309 310 312 313 312 313 312 311 311 311 312 311 310 308 308 307 307 307 308 309 308 308 310 311 313 320 326 325 334 338 338 338 337 336 334 333 335 336 334
310 309 313 313 310 305 309 313 311 310 315 312 312 312 313 311 312 309 306 306 307 307 306 307 307 307 309 310 311 315 323 324 326 331 338 336 335 335 334 332 331 331 333 329
312 312 313 314 314 309 310 312 310 313 312 311 312 312 310 308 307 306 305 306 306 306 306 306 306 309 310 311 313 316 323 324 326 335 336 334 332 332 332 330 329 329 327 326
305 310 310 312 313 312 311 312 314 310 312 312 311 308 305 304 305 305 307 307 307 307 307 307 309 310 312 314 317 318 323 325 326 335 334 331 330 331 330 329 326 326 325 324
306 306 304 305 304 303 308 309 309 312 312 308 307 304 304 306 306 306 307 308 308 308 309 309 310 312 315 317 318 325 323 326 329 333 332 331 330 330 329 327 325 324 325 323
306 305 307 308 306 307 309 309 310 309 307 305 303 305 306 307 308 307 307 308 308 309 310 311 312 314 316 320 323 325 325 327 331 331 331 330 330 329 328 327 326 325 324 323
307 307 306 307 307 309 310 310 310 306 304 304 306 306 307 307 307 307 307 308 309 310 311 311 313 315 317 320 324 325 326 330 330 330 330 329 329 328 326 326 326 325 325 325
307 308 311 311 309 310 311 309 307 304 304 304 306 306 305 306 306 307 308 309 310 311 312 314 315 317 319 322 326 328 327 329 330 329 328 328 326 323 322 322 322 325 326 327

GFSCGP_925_thetae_063.txt.gz
Theta_e
308 310 311 311 311 311 311 311 311 311 311 312 312 312 311 312 312 312 312 313 314 313 315 313 313 315 315 313 313 314 315 328 346 345 344 341 338 334 331 327 325 328 326 326
308 310 310 309 309 309 310 310 311 313 312 311 311 311 311 311 312 312 312 312 313 312 312 312 313 315 317 317 314 314 315 315 328 341 345 345 345 342 339 337 334 331 330 331
308 309 308 309 310 311 311 312 313 311 311 311 311 309 311 310 310 311 312 312 311 311 311 315 316 315 316 316 316 315 315 315 315 319 335 343 345 345 346 345 344 339 337 335
308 308 309 309 310 313 312 313 312 311 311 310 310 307 310 310 310 311 312 314 314 313 315 316 316 314 314 314 314 312 313 316 317 317 324 333 337 341 343 346 347 344 342 342
309 309 309 309 310 312 311 312 312 311 311 311 309 310 310 310 310 312 311 313 315 315 315 315 315 313 313 314 314 315 312 314 316 317 317 326 334 335 339 342 344 344 343 342
309 307 308 309 312 311 311 311 309 309 311 310 309 310 310 310 311 312 310 311 313 316 315 315 314 313 313 314 314 315 316 314 317 317 316 321 327 333 336 338 340 342 342 346
309 308 309 311 311 311 310 311 311 310 309 308 310 310 310 310 311 311 310 311 313 315 315 314 314 314 313 314 315 315 315 317 319 317 317 319 321 322 335 338 338 339 340 342
312 311 312 313 311 311 311 311 312 311 309 308 309 310 310 310 310 311 311 313 314 313 314 314 313 313 314 315 315 315 316 317 318 318 320 324 328 329 333 336 339 338 338 340
312 310 310 311 311 311 311 312 310 311 311 312 310 310 310 310 311 311 312 314 313 313 315 314 313 312 313 317 317 317 317 317 318 318 320 323 326 330 330 334 339 339 338 339
313 315 312 311 310 309 311 310 312 313 313 312 310 310 310 310 310 311 313 312 312 313 315 316 314 313 314 316 317 319 319 319 318 319 321 323 326 331 332 332 337 337 338 337
313 315 313 312 312 312 311 312 313 313 314 313 312 310 311 311 311 312 311 312 312 314 315 316 314 313 316 316 317 319 322 322 321 322 322 324 327 330 333 334 336 337 339 339
313 314 315 312 311 310 310 312 313 316 315 315 315 313 311 311 311 311 312 312 312 314 314 314 315 316 317 316 315 316 319 322 325 325 324 325 330 332 332 333 334 337 339 339
314 316 316 312 310 310 312 311 312 312 313 313 315 314 311 311 312 313 313 313 313 314 314 313 313 314 316 316 316 315 317 319 320 325 325 326 336 334 332 332 335 338 339 339
311 314 314 313 311 311 312 312 312 313 317 314 314 314 313 313 314 314 314 314 314 313 313 312 312 314 314 313 313 314 316 318 318 320 325 326 335 335 332 333 337 339 339 340
311 312 312 312 312 312 312 313 313 313 314 315 313 313 313 313 314 314 314 314 313 313 313 312 313 314 313 311 311 312 314 316 317 319 322 326 334 334 331 334 337 339 340 341
312 313 313 313 313 313 313 312 311 311 312 313 314 315 313 314 314 314 313 314 314 313 312 312 312 313 312 311 311 311 312 315 315 319 320 326 333 335 333 336 338 340 341 342
311 312 312 311 309 311 312 312 312 312 312 313 316 314 314 314 313 314 314 313 313 312 311 311 310 311 311 311 310 310 311 313 316 318 321 326 335 336 336 337 338 340 341 343
308 310 312 312 311 314 311 312 314 314 314 313 314 314 314 314 314 313 313 313 312 311 310 310 310 310 309 308 309 309 311 314 317 319 325 327 338 336 337 339 340 339 340 344
308 310 312 314 315 313 312 312 315 315 314 314 314 314 314 313 313 312 311 310 309 308 308 308 307 308 308 309 309 310 311 314 317 320 326 328 337 337 338 339 339 339 339 336
306 307 313 316 318 315 313 315 313 313 317 314 314 313 313 313 313 311 308 307 307 307 307 308 308 308 308 309 309 311 313 315 319 320 326 328 336 336 337 336 336 336 335 331
313 311 312 312 312 314 313 314 313 318 315 314 313 313 312 310 310 309 307 307 306 307 308 308 308 309 309 309 311 313 314 317 320 322 326 331 335 337 336 334 332 331 330 329
313 314 315 313 315 316 314 313 313 313 312 312 312 311 310 308 307 307 307 306 307 308 308 308 309 310 310 311 313 314 317 318 321 324 326 335 335 334 332 331 330 329 327 327
313 314 315 315 315 311 310 311 311 312 313 312 311 310 308 307 307 307 306 308 307 308 308 309 310 311 312 312 314 316 318 321 324 325 329 333 333 331 330 329 328 327 326 325
308 308 311 310 311 311 310 310 311 312 312 311 310 307 306 306 307 307 307 307 307 308 309 309 311 313 315 314 315 316 320 325 325 325 332 331 330 330 329 329 329 328 327 327
308 309 310 311 310 309 311 311 311 310 309 308 307 306 305 306 307 305 306 307 308 309 310 310 312 314 315 316 316 317 323 325 325 331 331 330 329 330 329 330 330 329 329 328
309 310 310 313 309 309 310 311 309 309 308 307 306 305 305 305 305 306 307 308 309 309 309 311 312 314 316 318 318 318 326 327 331 331 330 329 325 324 325 323 322 325 325 326

GFSCGP_925_thetae_069.txt.gz
Theta_e
316 315 315 316 316 316 315 316 318 318 316 317 318 318 318 319 319 319 319 319 320 322 322 321 320 319 321 325 326 328 329 330 335 344 346 347 346 342 337 337 336 336 338 338
315 315 314 314 315 315 316 316 316 316 316 316 317 317 317 318 318 319 319 319 319 319 319 320 319 319 322 323 324 325 327 329 329 333 347 345 349 348 345 340 337 337 337 339
315 315 314 314 314 314 314 315 316 316 317 317 317 317 317 317 317 317 318 318 318 319 318 319 319 320 320 321 322 322 325 327 330 331 328 332 337 347 351 348 344 335 342 341
316 315 314 313 313 314 315 315 315 315 316 317 317 317 318 317 317 316 317 317 318 318 318 318 319 319 319 319 320 322 323 326 322 330 329 328 334 339 340 345 351 348 342 344
315 315 314 313 313 314 314 315 315 316 317 317 316 316 316 317 317 316 316 317 318 320 319 319 318 318 318 318 319 321 324 326 326 326 329 330 329 328 330 336 344 343 342 345
316 316 315 314 314 314 314 314 315 315 315 316 316 316 316 317 316 316 317 317 317 317 319 319 318 318 317 317 318 321 323 324 326 327 328 330 332 332 333 332 336 336 344 348
316 316 316 315 314 314 314 315 317 317 317 318 317 316 316 316 316 316 317 315 315 316 318 319 318 318 318 317 319 320 321 323 324 325 326 327 329 330 333 334 332 332 335 338
318 318 316 317 315 314 316 317 317 321 321 320 317 316 316 315 315 314 314 314 316 317 318 318 318 319 318 318 318 319 321 323 325 325 326 326 327 327 328 329 331 331 332 333
323 317 317 316 316 315 315 318 317 318 319 318 318 319 317 316 315 314 314 315 318 317 317 317 317 317 319 319 319 320 321 321 321 324 327 328 328 328 329 330 332 333 334 334
317 317 317 316 316 315 316 316 319 318 318 318 317 317 317 317 316 314 316 317 317 317 317 317 316 317 317 318 318 319 320 320 320 320 323 326 328 329 329 330 333 334 336 338
316 319 318 316 318 317 316 316 317 318 324 324 321 318 317 316 316 316 316 316 316 317 317 318 318 317 316 316 317 318 319 320 320 320 320 322 325 328 330 331 332 334 336 340
315 319 320 315 315 316 317 320 321 325 322 320 318 318 316 316 316 316 316 316 317 317 318 318 318 317 317 317 316 316 316 318 319 319 319 319 321 324 327 331 333 335 337 338
317 318 320 317 316 318 317 316 316 317 320 322 324 321 317 317 317 316 316 317 316 317 318 318 318 318 318 317 316 315 316 317 317 317 317 318 320 322 326 328 331 334 337 338
313 317 316 318 316 317 318 317 316 316 322 317 317 316 316 317 317 317 317 317 317 318 317 317 317 317 317 316 316 315 316 316 316 316 316 317 319 321 324 326 329 332 335 338
312 314 314 314 312 312 312 312 314 316 317 317 316 315 316 316 317 316 316 316 316 316 317 317 317 317 317 316 315 314 314 314 315 315 315 316 317 319 321 324 328 330 332 339
312 316 313 315 313 312 314 313 313 312 313 314 313 314 314 314 315 315 316 318 317 317 317 317 317 318 317 317 316 315 314 314 314 314 314 315 315 317 320 324 327 330 332 340
313 316 316 318 313 314 315 312 312 313 313 312 312 313 314 313 315 317 317 319 318 317 316 317 317 317 317 316 315 314 313 313 313 313 313 314 316 317 319 323 326 330 333 340
312 313 314 315 314 315 313 315 315 314 314 315 316 316 317 316 317 317 317 317 315 316 316 316 316 315 314 313 313 312 311 312 312 313 313 314 315 317 320 324 327 331 333 340
314 315 318 318 317 315 314 317 317 317 316 314 315 315 315 316 316 316 315 315 316 316 315 314 313 312 313 312 311 310 310 310 311 311 314 314 315 318 321 324 328 331 334 340
314 314 317 317 321 318 315 315 316 315 315 318 318 317 316 315 317 316 316 315 314 314 313 313 312 310 310 310 310 311 311 311 311 311 314 315 317 320 325 326 330 329 338 340
316 315 316 316 317 316 316 317 315 318 318 317 315 315 315 316 315 316 313 314 313 312 312 311 310 311 310 309 310 310 311 311 312 312 314 316 320 322 325 327 329 330 337 341
317 318 319 318 319 321 316 316 319 318 317 316 316 315 315 314 313 313 313 312 312 311 311 310 309 310 309 308 308 310 311 312 313 314 315 319 321 323 325 328 328 335 338 340
317 319 321 317 319 317 316 316 316 315 315 313 312 312 312 311 311 311 312 311 310 310 310 308 309 310 308 309 309 310 312 313 314 316 318 320 323 324 328 327 329 335 338 338
313 314 317 316 314 314 313 313 312 311 312 311 310 310 310 310 308 308 308 309 309 308 309 308 309 309 310 310 311 312 314 316 317 318 318 322 325 326 327 326 335 336 336 336
314 315 312 312 312 311 311 311 311 311 311 309 309 309 308 307 306 307 307 308 308 308 307 307 308 309 310 311 312 313 316 318 319 321 323 324 327 328 330 329 334 336 336 337
309 310 310 310 308 309 310 308 307 309 310 309 309 306 306 306 306 305 306 306 306 306 306 307 307 309 310 311 312 315 317 320 321 322 324 326 326 326 323 322 320 334 335 333

GFSCGP_925_thetae_072.txt.gz
Theta_e
316 316 317 317 317 317 317 317 316 317 318 319 318 318 318 319 319 319 320 322 323 323 323 325 323 322 322 325 328 329 331 325 340 350 348 347 346 343 343 344 339 339 340 346
316 316 317 316 315 315 316 317 317 317 317 318 318 317 318 318 319 320 321 322 322 322 323 326 325 322 322 324 327 326 331 330 329 344 347 344 343 347 345 343 340 338 340 337
316 317 317 317 315 315 315 315 316 316 316 317 317 317 317 318 318 319 320 322 322 322 322 324 325 323 322 324 324 324 327 330 330 331 339 344 344 346 347 349 346 343 338 338
316 316 316 317 316 315 315 315 315 316 316 316 317 319 320 320 321 320 320 320 320 320 322 323 323 322 322 321 322 324 326 325 326 323 330 332 334 337 338 336 342 351 348 342
316 316 316 316 315 315 315 315 315 316 317 318 317 317 317 319 318 318 319 318 320 319 320 321 320 320 320 319 320 322 325 327 327 329 323 326 332 332 330 336 337 340 345 347
316 316 316 316 316 315 315 315 315 315 316 318 317 318 319 318 319 319 320 318 318 318 320 320 321 319 319 318 318 321 323 325 327 328 328 320 326 329 331 332 336 340 344 346
318 318 318 318 316 316 315 315 315 317 318 320 318 320 321 319 319 318 319 318 319 318 318 321 321 320 320 319 320 320 321 324 325 326 327 328 328 329 330 329 327 330 332 336
321 324 320 320 320 319 319 318 317 318 319 317 319 326 321 321 317 317 318 319 318 316 317 319 320 320 319 319 320 319 322 323 324 325 326 327 326 328 329 329 330 329 329 331
319 319 318 319 319 319 320 320 317 321 320 319 319 321 320 320 319 316 316 315 315 317 320 318 318 318 319 319 320 320 321 321 322 323 326 327 327 328 328 327 327 329 332 334
318 319 315 315 318 318 320 319 323 323 326 323 319 317 319 319 321 319 316 315 317 320 318 318 318 319 318 318 319 319 319 321 321 321 321 324 328 330 330 330 331 331 330 330
318 320 318 316 315 319 318 321 318 319 323 322 321 319 319 319 319 319 316 316 317 319 317 317 318 318 318 318 317 319 321 321 321 321 321 321 322 324 327 329 332 334 333 335
317 320 320 315 315 315 316 316 320 324 324 322 323 322 319 318 317 320 316 316 317 317 317 318 318 318 318 318 318 318 318 318 317 319 320 320 322 321 322 325 327 331 335 336
315 316 318 316 317 318 318 317 316 318 320 320 323 321 317 319 319 318 318 318 317 319 318 318 318 318 318 318 318 317 317 316 318 318 318 318 317 322 324 324 327 328 330 334
313 313 313 316 315 315 319 316 316 317 324 322 318 317 316 319 318 317 318 318 318 319 319 318 320 318 318 317 317 316 316 316 317 317 317 317 318 318 318 320 322 325 329 331
313 314 313 312 312 313 312 312 314 316 316 316 315 315 316 317 318 318 318 318 316 317 317 319 321 320 320 318 317 317 317 316 316 316 316 317 317 317 318 318 320 321 325 329
314 316 314 315 314 313 314 314 315 313 313 312 313 314 315 316 315 315 317 318 317 319 320 318 318 319 319 320 319 318 318 317 316 316 316 316 316 316 317 317 319 321 324 327
312 313 316 318 315 313 315 317 315 316 316 314 315 316 317 318 315 317 319 319 320 320 318 317 318 319 321 318 317 317 316 316 315 315 315 315 315 315 316 316 318 319 323 327
313 313 315 316 315 315 313 314 314 317 316 318 317 317 317 318 318 316 318 319 319 318 318 318 318 318 316 316 315 315 315 314 314 314 313 313 314 315 315 316 318 319 323 328
312 315 320 318 318 315 314 317 318 318 317 318 320 318 317 316 316 318 318 316 316 316 316 316 315 315 315 315 314 313 313 313 312 312 312 311 312 313 314 317 318 320 324 327
315 316 318 317 320 317 315 318 317 317 318 318 317 317 317 316 319 316 317 315 315 315 315 315 314 314 314 314 313 312 312 311 312 312 312 311 311 312 314 317 318 321 324 330
318 317 317 317 318 315 317 317 317 318 321 318 316 315 315 315 315 316 314 314 314 313 314 312 312 313 312 313 312 312 313 312 311 310 311 311 311 312 312 317 319 325 328 331
321 323 320 318 319 321 317 316 318 317 316 316 314 313 313 311 311 312 312 312 312 312 312 311 312 312 311 311 310 311 311 309 309 310 311 312 313 313 314 317 322 324 327 330
319 318 319 318 320 318 315 315 314 314 313 313 312 312 311 310 310 311 311 310 309 309 310 309 310 309 309 309 309 311 310 309 310 311 313 314 314 315 316 320 323 325 327 330
314 315 318 316 315 314 311 312 311 310 310 311 310 310 311 311 309 308 307 307 308 308 308 307 308 309 310 310 310 310 310 310 311 313 314 314 317 319 320 322 324 326 329 330
313 314 311 312 312 309 309 308 309 309 308 308 308 309 309 308 307 306 306 306 306 307 307 308 308 308 309 308 309 310 311 312 313 315 317 317 318 320 321 324 324 327 329 332
311 311 311 311 307 307 307 308 309 309 310 308 307 306 305 305 304 304 304 305 304 305 306 306 307 307 307 308 308 309 310 312 314 317 319 319 320 322 323 322 319 321 332 335

GFSCGP_925_thetae_075.txt.gz
Theta_e
312 311 311 312 313 313 314 314 315 315 316 315 315 316 315 315 316 314 314 316 317 318 320 320 326 326 326 326 326 327 328 329 341 348 341 342 343 346 345 343 343 341 343 349
313 312 313 315 315 315 314 313 312 314 316 315 314 315 315 317 317 316 315 315 317 319 319 319 325 325 326 328 327 327 330 331 328 350 346 342 340 340 340 337 335 337 338 340
312 314 316 316 315 316 314 313 313 314 315 314 313 314 314 316 316 316 315 315 316 316 317 318 322 322 323 324 325 324 323 326 330 336 349 347 345 346 347 344 343 342 338 337
313 314 315 315 315 315 314 314 314 314 314 314 314 314 313 316 315 315 315 315 314 317 317 316 320 321 324 324 322 322 323 323 325 331 334 343 344 343 346 347 345 345 344 342
314 314 314 314 315 315 315 314 314 314 313 313 314 314 314 315 315 314 315 316 315 314 314 316 317 321 320 321 323 324 324 324 322 323 328 333 335 335 336 336 338 338 342 337
313 314 314 315 319 318 319 318 312 313 312 312 313 314 315 315 315 315 316 316 316 314 315 315 317 319 319 319 319 320 324 323 326 327 325 326 330 333 330 330 332 336 338 334
314 315 317 319 320 319 319 320 322 313 312 314 313 315 315 316 318 318 317 317 314 316 315 316 316 315 318 318 318 318 319 320 324 325 326 329 327 328 329 328 326 327 325 330
319 319 318 320 320 320 320 321 323 324 317 317 318 317 316 318 319 318 317 315 315 312 314 314 316 315 317 318 318 318 320 321 324 324 325 326 327 328 330 329 327 326 323 325
317 318 317 318 318 317 320 323 320 323 321 323 319 318 318 318 319 319 317 316 314 311 312 314 314 315 317 318 319 320 322 322 324 324 324 325 326 327 327 327 327 327 331 330
317 318 317 317 318 317 318 317 320 322 325 325 320 319 317 319 319 317 317 315 314 315 313 312 313 314 317 319 319 319 319 320 320 320 322 324 326 325 327 328 328 328 329 330
317 319 318 316 316 315 314 319 320 320 322 325 324 317 318 318 317 318 317 316 314 314 313 312 312 314 316 317 318 319 319 320 320 320 320 320 321 321 324 329 330 330 332 334
318 318 320 319 315 314 316 317 318 320 323 322 322 319 317 318 317 316 316 316 315 314 312 311 311 314 316 317 317 319 320 319 319 320 322 320 320 320 321 321 321 321 323 327
316 314 313 312 311 315 315 316 315 316 318 320 322 316 316 318 318 316 315 316 316 316 315 314 314 314 313 316 317 317 318 317 316 317 318 320 318 317 317 321 321 321 322 324
312 312 312 312 311 311 317 318 315 316 316 315 318 317 316 318 317 316 315 315 315 315 314 314 315 316 314 316 316 317 316 315 316 316 316 316 317 318 318 318 317 316 316 317
311 313 313 314 314 312 312 312 311 314 315 317 315 318 316 314 316 315 315 315 315 315 314 314 316 314 315 315 316 317 316 315 315 315 315 315 316 316 316 316 316 315 316 316
311 313 313 314 313 313 314 314 313 314 315 315 317 316 315 315 314 315 315 318 315 315 316 318 319 318 316 318 317 316 316 316 316 316 316 315 315 315 314 315 315 315 315 315
310 311 312 313 313 313 313 312 316 313 314 316 317 315 316 316 316 316 315 318 317 317 317 317 316 316 317 316 316 315 315 314 314 315 315 315 314 314 314 315 314 314 315 315
310 311 311 313 313 316 312 316 317 320 318 318 318 319 318 318 316 315 316 315 316 315 315 314 314 313 314 314 314 314 314 314 313 313 313 313 313 313 313 312 313 314 314 315
309 311 312 310 310 315 314 318 319 318 318 317 317 315 314 313 313 313 317 316 315 314 314 314 313 312 312 313 313 313 314 313 313 312 312 312 312 311 311 311 311 310 310 312
315 313 310 311 313 312 318 317 315 316 317 314 315 314 313 312 313 311 310 310 310 310 311 310 310 311 311 311 312 314 313 312 311 311 311 310 310 311 312 311 311 311 313 315
317 315 316 315 314 315 316 316 314 317 318 313 311 311 311 313 312 310 308 308 308 308 308 308 307 307 309 310 312 311 311 311 311 311 311 311 311 310 310 310 310 310 310 313
317 318 318 317 319 320 313 313 314 313 311 310 309 308 309 309 308 308 308 308 307 308 307 307 306 306 307 308 309 309 309 309 309 309 310 309 309 310 311 312 311 311 312 314
317 316 317 317 313 314 309 310 310 308 308 308 308 307 307 307 307 307 308 306 306 306 305 305 306 306 306 307 307 308 308 308 309 310 309 309 310 311 312 312 314 314 315 318
313 311 312 310 313 309 307 308 307 308 306 307 307 307 307 305 305 304 304 304 305 304 304 304 305 306 307 308 308 309 309 309 310 310 310 310 311 312 313 314 315 316 318 320
311 311 309 309 309 306 308 306 306 305 306 307 307 307 305 304 304 304 302 304 303 302 303 304 305 305 306 306 306 307 308 308 310 310 311 312 314 315 315 316 318 319 319 320
310 310 310 309 307 306 306 305 305 306 307 307 306 305 302 303 302 303 302 302 302 302 302 302 303 303 304 306 306 306 306 307 309 310 311 312 314 316 317 317 319 319 320 321

GFSCGP_925_thetae_078.txt.gz
Theta_e
310 309 309 309 309 311 311 311 312 312 312 313 312 312 312 312 312 312 313 311 312 313 315 322 324 324 328 328 327 326 328 334 341 345 346 348 348 347 347 346 346 344 343 344
310 310 311 311 312 313 313 313 312 311 312 313 311 311 312 312 312 312 311 312 314 315 315 323 326 328 328 327 326 327 326 327 327 340 347 346 345 345 346 346 345 343 348 348
310 312 313 313 313 313 313 312 312 312 313 312 312 312 312 312 313 312 313 313 313 313 314 321 324 324 326 325 325 325 326 326 325 326 344 348 345 343 341 344 344 343 340 342
310 312 313 313 313 313 313 318 317 315 313 312 312 313 312 312 312 313 312 310 310 312 313 318 322 321 325 325 325 323 322 321 323 324 327 343 346 345 343 343 339 336 341 340
313 312 312 313 313 318 318 318 318 317 314 311 312 311 312 312 313 313 311 311 311 311 311 316 319 320 323 324 322 322 322 322 321 320 320 327 332 336 341 344 341 342 339 334
312 312 312 313 317 318 318 318 316 316 309 313 312 311 313 312 312 313 314 316 315 314 311 314 318 320 322 323 322 323 323 323 322 321 320 321 328 331 334 336 338 341 340 341
313 313 313 318 319 317 316 316 320 319 319 318 314 312 312 312 312 314 314 315 314 315 311 317 319 316 317 319 323 323 323 323 324 325 325 325 325 325 325 328 331 332 335 337
315 317 316 319 318 318 318 316 315 321 319 317 318 319 315 314 314 314 316 314 312 313 314 317 316 316 315 316 319 321 320 320 319 322 323 324 325 327 327 329 328 327 326 325
315 317 316 317 317 316 320 321 318 321 320 322 319 318 316 315 315 317 316 316 314 310 314 314 314 314 313 315 317 317 318 319 320 322 323 323 324 326 326 326 327 327 327 330
315 315 316 317 317 316 317 316 318 318 315 321 320 321 318 317 316 318 316 314 315 313 313 312 312 313 315 316 317 317 317 319 320 322 323 324 324 325 325 326 327 328 328 329
314 315 316 314 315 314 314 316 317 316 315 314 319 317 318 318 317 317 317 316 314 314 311 311 310 313 316 317 317 317 318 320 321 322 320 320 321 323 323 324 328 331 329 331
315 314 316 315 313 314 316 316 315 315 319 322 320 319 315 315 316 315 315 316 315 315 314 313 312 309 311 315 317 317 318 319 320 319 319 319 320 320 320 321 321 322 323 325
315 313 311 310 309 311 314 316 317 316 313 315 312 313 312 313 312 313 314 315 316 316 314 313 313 313 312 311 314 317 318 319 319 319 319 319 320 320 320 319 321 321 318 317
311 309 309 311 310 308 313 315 315 316 312 313 316 315 313 314 314 315 313 312 314 316 317 316 315 313 314 313 313 314 317 319 319 317 317 320 319 317 317 317 317 317 316 315
308 310 310 310 312 313 313 312 312 313 314 315 313 313 316 316 314 314 313 314 313 314 314 315 317 314 315 316 316 316 315 314 315 316 316 316 316 316 317 316 315 315 315 315
306 309 311 312 312 311 313 312 311 311 312 313 315 316 315 315 313 314 314 316 317 316 317 317 317 317 316 315 315 316 315 315 315 314 314 315 316 316 316 315 315 315 314 314
307 307 309 311 312 312 313 314 317 317 317 316 316 316 315 315 316 315 314 315 315 315 316 316 315 315 315 314 315 316 314 314 314 313 314 314 315 315 314 314 314 314 314 314
306 307 306 310 310 315 311 317 318 318 319 317 316 315 315 315 314 313 315 314 314 314 314 313 313 313 312 314 315 314 313 313 313 314 313 313 314 314 314 313 313 312 312 312
305 305 307 307 305 311 314 318 317 316 318 314 313 313 312 311 311 311 314 312 310 309 309 310 311 311 310 310 310 311 312 312 312 312 312 312 312 312 312 311 311 311 311 310
312 309 309 306 314 313 317 315 312 313 318 312 311 309 309 307 310 309 308 308 308 307 307 307 308 307 307 307 307 308 309 310 311 312 312 312 312 312 311 311 310 310 310 310
317 316 316 312 311 312 314 313 311 315 312 311 309 308 307 307 307 307 307 307 306 306 307 307 307 307 307 306 306 305 306 307 310 310 311 311 311 310 310 310 310 310 310 310
312 316 317 316 317 318 310 309 311 310 307 307 306 306 306 307 306 306 307 305 305 304 304 304 305 305 306 305 305 305 305 306 307 309 310 310 310 310 310 310 309 309 309 308
315 315 314 312 307 309 308 307 307 305 306 305 305 305 306 307 307 307 306 305 303 303 303 303 303 305 304 304 306 306 306 306 306 307 307 308 308 309 309 309 309 310 310 309
312 310 309 306 310 308 307 306 306 306 306 305 306 306 306 303 302 303 301 301 301 302 302 302 304 303 303 303 305 305 306 307 308 308 309 309 308 309 309 310 310 310 311 313
309 308 307 306 306 306 307 306 306 305 306 306 305 305 305 303 303 301 300 300 301 301 301 301 302 302 302 303 305 304 305 306 306 307 308 309 310 310 310 310 311 312 313 314
308 308 310 309 306 306 306 305 305 306 306 306 305 304 303 302 303 302 300 299 300 300 300 300 301 301 302 302 303 303 304 306 307 306 307 308 310 311 312 312 313 314 314 315

GFSCGP_925_thetae_081.txt.gz
Theta_e
309 308 308 308 307 309 310 310 310 311 311 311 310 311 310 310 310 309 309 310 311 311 313 315 317 321 321 328 333 342 346 346 345 344 347 347 347 346 344 343 343 342 339 337
309 308 309 309 310 310 310 310 311 311 311 310 309 310 310 310 310 309 310 311 309 309 310 312 319 321 322 326 330 337 345 347 346 345 347 349 349 348 348 344 343 343 342 341
309 310 311 312 311 312 311 311 312 312 312 311 311 311 311 311 310 310 310 309 309 310 311 317 323 324 324 326 327 329 334 338 340 344 346 346 345 346 345 346 346 345 344 344
309 310 311 311 311 311 312 314 317 318 315 314 312 314 312 310 310 311 311 309 308 308 309 312 321 322 324 326 327 326 326 324 324 327 338 346 345 344 344 341 341 345 343 343
312 311 311 311 312 315 314 317 317 317 315 311 311 310 314 310 310 310 310 310 310 310 308 310 317 321 324 324 326 327 326 325 325 324 325 333 344 345 344 342 343 343 341 341
311 311 311 311 312 316 317 317 316 315 311 315 314 312 315 313 311 310 310 311 312 312 311 308 314 320 322 323 324 323 323 322 322 321 321 322 325 329 332 334 336 338 340 341
312 312 312 316 317 316 314 313 315 315 315 317 315 315 313 312 311 310 310 310 310 311 309 308 311 316 319 321 321 322 322 322 321 321 321 320 320 323 327 329 332 333 333 336
313 315 316 318 317 317 316 314 315 318 319 318 315 317 314 312 312 313 313 311 311 309 307 308 314 317 319 319 320 322 322 322 322 322 321 320 321 323 326 325 325 325 325 325
314 315 315 317 316 315 318 317 315 316 316 316 316 316 315 314 315 316 315 312 312 310 310 311 314 317 319 317 321 322 321 319 319 317 319 321 321 323 324 325 326 328 328 327
312 314 315 316 316 315 315 314 315 314 321 321 315 318 317 315 317 315 316 315 312 311 308 309 310 311 312 316 320 321 319 318 318 318 321 321 322 323 323 325 326 326 327 327
312 312 314 313 313 312 312 316 314 314 317 321 316 314 314 319 317 315 314 314 313 312 311 311 312 311 312 313 314 318 317 317 318 320 322 322 323 323 324 324 325 327 329 331
313 314 315 314 312 312 312 312 312 310 312 317 314 315 313 312 312 314 312 313 315 315 313 311 314 313 312 311 312 314 316 317 318 319 321 322 322 322 323 324 324 326 326 324
314 313 314 312 309 308 313 315 313 313 312 315 316 314 311 310 312 312 312 312 312 313 313 312 313 313 314 313 311 312 314 316 317 319 320 322 319 319 319 320 320 321 322 320
313 309 311 313 310 307 309 312 313 313 313 314 314 314 312 312 314 313 312 312 312 310 313 314 314 313 315 315 315 313 313 315 316 316 319 318 318 319 319 319 321 321 317 316
308 310 309 309 309 310 311 312 312 312 312 314 313 312 313 314 313 313 312 314 315 315 314 313 314 314 313 315 316 315 314 314 316 317 316 318 318 318 319 318 317 316 316 315
305 309 309 310 310 310 311 310 311 311 311 310 312 313 314 314 313 314 313 313 314 314 315 314 314 316 316 315 315 314 315 314 314 314 314 314 315 316 316 316 317 316 315 315
305 306 308 310 311 311 312 311 316 316 316 317 317 317 315 314 314 314 313 311 313 314 313 314 314 313 313 313 314 314 315 314 313 313 314 314 314 315 316 316 315 314 314 314
305 305 304 308 309 314 309 316 316 316 317 317 317 316 314 312 311 309 309 310 312 310 309 308 309 310 310 311 312 313 312 312 312 312 313 313 313 314 314 314 314 314 313 313
303 303 304 306 305 309 311 317 317 316 314 313 313 312 310 309 307 306 307 312 308 306 306 306 306 307 308 308 309 308 309 309 309 310 311 312 313 313 313 313 313 313 312 311
308 306 307 304 313 311 312 313 312 312 315 312 311 309 308 306 306 305 303 304 305 305 305 306 305 306 305 306 307 306 306 306 307 308 309 310 311 311 312 312 312 311 311 310
314 315 310 306 313 312 312 311 310 313 310 306 307 306 305 307 306 305 304 305 305 305 305 305 304 305 305 305 305 305 305 305 305 305 306 308 309 311 311 311 311 311 310 310
314 313 314 316 315 312 309 308 309 308 306 306 306 306 306 306 306 306 306 303 303 305 306 304 303 303 303 302 303 303 304 305 304 305 304 305 307 308 309 310 310 310 309 309
314 314 307 310 306 306 307 306 305 305 305 306 306 306 305 304 305 305 304 303 302 302 302 300 300 300 302 302 302 304 304 304 305 305 305 306 307 308 309 309 309 308 308 308
310 308 312 308 308 307 305 305 305 306 306 306 305 306 306 306 305 304 304 302 302 302 301 300 300 301 302 302 302 303 302 303 304 304 305 305 305 306 307 307 307 307 308 308
308 307 306 305 304 305 306 306 305 305 305 305 305 305 305 305 305 304 303 302 301 301 300 299 299 301 301 301 301 301 302 303 305 306 307 307 308 308 308 308 308 308 309 309
307 307 309 309 305 304 305 305 304 304 305 305 305 305 304 303 304 302 303 299 300 300 300 299 298 299 299 299 301 301 302 303 304 304 304 305 306 307 308 309 309 309 309 310

GFSCGP_925_thetae_084.txt.gz
Theta_e
308 309 309 308 307 308 309 309 309 309 309 310 309 310 309 308 308 307 308 308 308 308 308 310 312 313 316 319 331 342 345 346 344 342 341 343 342 342 341 338 333 331 336 337
308 308 308 308 308 309 309 309 309 309 310 308 309 311 308 308 308 308 308 308 308 308 308 308 310 311 317 319 322 334 342 344 345 344 342 343 343 343 342 341 339 336 335 336
308 310 310 309 310 311 310 310 310 310 313 311 310 312 312 310 308 308 308 307 308 308 308 308 309 315 319 320 321 328 336 342 344 344 344 345 346 345 344 344 343 342 340 339
308 308 310 310 310 309 310 309 311 316 315 316 312 317 313 312 310 309 308 308 307 307 307 307 308 312 320 322 322 326 332 340 344 344 344 345 346 345 345 345 346 345 344 343
310 310 310 310 310 310 311 312 315 317 315 312 313 309 314 311 312 309 311 308 308 307 307 308 308 311 315 321 323 325 330 337 342 345 344 345 345 345 344 343 342 342 344 344
310 310 309 310 311 311 315 316 315 312 311 314 313 311 314 312 311 310 310 309 308 309 307 307 309 311 313 317 323 324 328 331 331 338 343 344 344 344 343 343 342 341 341 342
311 311 310 311 314 315 312 312 314 314 314 317 313 314 313 311 312 311 313 313 310 307 307 307 307 307 310 317 321 324 325 325 325 326 327 329 330 332 336 336 336 337 339 341
311 313 313 317 314 314 313 313 314 316 316 315 314 316 313 310 311 313 312 312 310 309 307 307 308 307 309 315 319 322 324 323 322 321 320 319 319 319 321 323 326 330 332 332
313 314 314 317 315 313 316 316 313 314 312 312 313 313 312 311 313 313 313 313 312 311 309 308 309 309 310 316 318 321 320 320 321 321 321 320 319 319 320 323 324 325 325 325
311 313 312 316 314 314 315 314 316 311 313 314 313 312 312 311 313 314 313 313 312 311 310 308 308 310 311 315 318 319 319 321 321 321 317 319 319 319 320 323 324 325 326 326
311 311 312 313 313 313 315 316 313 310 311 312 315 312 309 313 315 312 312 312 312 312 312 310 310 312 310 313 315 317 319 318 319 318 318 319 319 320 321 322 324 325 326 327
312 314 313 313 310 311 310 312 312 311 312 316 315 314 310 309 311 311 312 313 312 313 311 309 311 313 314 313 311 314 315 315 316 317 318 320 320 321 321 322 322 325 328 330
313 312 313 312 309 310 314 314 311 309 307 311 315 312 309 309 309 311 311 312 312 314 313 310 311 312 314 314 313 313 312 314 315 315 317 320 321 321 322 321 323 324 328 326
315 311 312 313 312 308 309 311 313 311 305 312 313 312 311 310 311 312 311 310 312 313 314 314 311 312 313 314 315 314 314 314 313 315 315 317 320 321 321 320 322 322 323 323
308 309 309 309 309 308 308 309 309 311 311 312 311 311 310 311 312 311 311 310 311 311 313 313 313 312 313 314 314 316 314 314 313 312 315 316 318 319 318 317 318 319 321 320
304 307 309 309 309 309 310 310 310 310 310 309 310 311 310 313 311 311 310 310 310 309 311 312 311 310 310 311 312 313 315 314 314 313 311 313 316 317 317 317 317 320 321 316
304 305 306 308 309 310 310 310 309 312 313 312 315 314 315 313 313 311 309 308 306 307 309 310 309 308 308 307 309 309 311 313 312 312 313 313 312 313 316 316 316 316 316 315
304 304 303 307 308 313 307 315 315 314 315 315 315 315 313 312 309 307 307 306 306 307 309 307 306 305 306 306 306 307 307 308 308 309 309 310 311 312 314 315 316 316 314 314
303 304 302 305 305 309 310 315 315 314 312 312 312 312 311 309 306 306 305 305 306 305 304 304 304 304 304 305 305 305 305 306 306 307 308 308 309 310 311 312 313 313 313 313
306 304 303 303 307 310 309 313 311 311 314 310 309 309 309 306 308 307 303 303 304 303 304 304 304 304 304 304 305 304 305 305 305 305 306 307 307 308 309 310 310 311 312 312
313 314 310 310 312 310 309 310 309 313 308 308 306 305 306 307 305 305 305 305 304 304 304 304 303 303 304 304 304 304 304 303 304 304 305 305 305 306 307 308 309 310 310 310
311 312 312 314 314 311 308 309 309 306 305 306 305 305 306 306 305 306 306 306 305 304 304 303 302 302 304 303 302 302 302 302 302 303 304 304 304 304 305 307 308 309 309 309
313 312 309 310 305 304 307 306 305 304 304 305 306 306 305 305 306 305 304 305 305 305 304 303 302 302 301 301 300 300 300 301 302 302 303 304 304 304 304 305 306 307 307 308
310 307 312 310 307 305 304 304 304 305 305 305 305 305 305 305 305 303 304 304 302 302 303 303 302 301 301 301 300 300 301 301 302 303 303 304 304 304 305 305 306 307 307 307
307 307 307 307 304 305 306 305 304 304 304 305 304 304 303 303 303 303 302 302 300 300 299 298 298 300 301 301 300 300 301 301 301 302 302 302 303 304 304 305 306 306 307 307
307 309 309 309 306 305 303 303 303 304 305 304 303 303 302 303 303 301 300 300 298 299 296 297 298 297 300 299 299 299 301 300 301 301 302 303 305 307 307 306 306 306 306 307

GFSCGP_925_thetae_087.txt.gz
Theta_e
311 314 315 315 313 312 312 313 314 314 314 313 315 316 316 316 316 316 316 316 317 317 317 316 316 315 314 314 313 323 345 346 347 347 346 345 345 345 346 346 346 340 343 344
313 314 314 314 312 311 312 313 314 314 314 314 316 316 317 317 316 316 316 316 317 318 318 318 317 318 317 316 315 316 330 344 345 345 344 344 343 343 343 344 344 340 341 341
314 313 312 312 312 313 314 314 315 315 314 316 317 317 317 316 315 316 316 316 316 316 317 319 319 317 319 321 320 320 323 337 345 345 344 344 345 344 343 343 342 338 338 337
312 313 312 312 313 313 315 314 314 314 316 317 317 318 318 317 316 316 317 317 316 315 315 316 317 318 317 320 322 321 322 332 343 345 345 345 346 345 345 344 342 340 337 337
315 313 313 313 314 313 315 313 314 316 318 319 317 318 318 317 317 317 316 316 318 318 317 316 316 314 314 316 319 323 325 329 336 344 345 346 347 347 347 346 346 344 343 340
314 312 313 314 313 313 316 316 317 317 318 319 318 319 318 317 316 315 316 317 317 316 316 316 315 315 315 315 316 322 327 329 332 340 344 346 347 347 346 346 346 347 347 346
315 315 314 312 314 316 317 317 318 319 319 320 317 317 317 316 316 315 316 317 317 316 315 317 316 316 315 315 316 320 325 329 331 335 343 346 346 346 346 346 346 345 344 344
315 316 314 315 314 316 318 318 319 322 320 319 317 318 317 316 315 315 316 317 315 315 316 317 317 316 317 318 317 317 321 327 329 332 339 343 344 343 343 342 341 342 342 342
315 315 315 317 317 316 319 320 318 320 320 321 317 316 315 314 314 315 316 315 315 316 317 317 316 316 315 317 319 318 320 324 328 329 330 331 330 328 328 326 327 331 331 333
315 316 314 316 317 316 318 317 321 321 320 318 314 314 313 312 314 316 314 315 315 316 317 318 317 317 317 316 319 321 321 323 326 325 325 323 320 321 324 322 324 326 327 328
314 316 315 315 317 316 319 320 319 317 319 319 317 312 314 314 313 313 315 314 315 316 317 318 316 314 317 316 318 320 321 322 324 324 324 324 322 320 321 327 328 328 326 328
314 317 316 315 314 313 314 318 319 322 318 320 320 317 312 312 312 314 313 313 315 315 315 317 317 315 317 317 316 318 320 320 320 321 321 320 320 321 323 325 328 327 329 330
314 314 316 315 313 313 316 315 316 316 315 314 317 315 313 313 312 312 312 314 315 315 313 315 317 317 317 317 317 317 315 316 318 316 318 321 321 322 324 323 323 327 330 332
313 314 315 316 314 313 315 315 315 316 319 318 317 314 313 313 312 312 314 315 315 314 313 312 315 315 314 314 316 317 317 316 315 315 316 318 318 320 321 325 326 327 330 331
311 314 312 312 312 313 312 312 312 316 315 316 314 313 313 312 312 312 315 315 314 312 311 310 312 314 313 312 311 312 315 316 315 315 315 316 318 318 319 321 324 327 329 329
310 311 312 311 309 309 309 308 309 311 312 313 313 313 311 313 315 316 315 315 313 312 310 310 311 313 313 311 310 310 310 312 315 316 314 314 314 316 317 319 320 324 326 326
309 310 310 309 308 310 311 309 309 309 310 310 312 313 316 317 316 316 315 313 312 311 309 309 310 311 312 310 309 309 309 309 310 311 312 313 313 314 315 316 318 320 322 324
309 308 310 309 309 311 309 316 316 315 315 315 316 317 316 315 314 313 312 311 310 309 309 308 308 308 307 307 308 307 308 308 308 309 309 310 310 312 314 316 318 319 321 321
307 309 311 312 313 310 311 315 316 316 316 314 314 314 314 311 310 310 309 309 308 308 308 307 306 306 306 306 307 307 307 307 307 308 309 309 310 311 312 314 316 318 318 318
306 308 312 310 312 315 314 315 312 312 316 313 312 310 310 309 310 310 308 308 308 307 307 306 306 306 306 306 306 305 305 306 307 307 307 307 308 309 310 311 313 314 315 316
313 311 311 310 314 313 312 312 311 317 315 310 309 309 309 309 309 309 308 307 307 306 306 305 306 307 306 306 305 305 305 306 306 306 306 306 306 307 308 309 310 311 312 313
315 316 315 314 316 315 311 312 313 312 310 309 308 308 307 307 306 305 305 305 305 305 305 304 305 306 306 305 305 304 305 305 305 305 304 304 305 306 306 307 308 309 310 311
315 315 316 314 315 310 310 309 309 308 308 307 306 306 306 305 305 304 304 304 303 303 304 304 303 305 303 304 305 304 304 303 303 303 303 303 303 304 305 306 307 307 308 309
312 311 313 312 311 310 309 309 307 306 306 306 305 305 304 303 303 303 303 302 301 301 302 300 302 303 302 302 303 303 303 302 302 302 302 303 303 304 305 306 307 307 308 309
310 311 311 311 309 308 308 307 306 305 305 305 304 304 303 303 302 302 301 301 300 300 299 300 300 300 299 300 300 300 301 301 301 302 303 303 303 305 305 306 306 307 307 308
310 310 311 310 308 306 306 305 305 305 304 304 304 303 302 302 301 301 300 299 298 298 298 298 297 298 298 298 299 299 301 301 301 300 302 302 302 303 303 304 305 305 305 307

GFSCGP_925_thetae_093.txt.gz
Theta_e
319 319 319 318 318 318 318 318 319 319 318 318 320 320 320 320 321 321 321 321 322 322 322 321 320 320 321 322 323 325 328 332 334 345 349 352 354 353 354 353 351 349 351 350
320 319 319 319 318 318 318 318 319 319 319 320 320 321 321 321 321 321 321 321 321 321 321 321 321 321 321 321 323 324 326 328 332 334 345 347 351 351 353 353 352 352 352 351
320 321 319 318 319 319 319 319 320 320 320 320 320 321 321 321 321 321 321 321 321 321 322 322 322 321 321 321 322 322 324 327 328 332 333 342 351 352 348 350 354 352 352 352
320 319 319 317 318 319 320 319 318 318 319 320 321 323 323 323 323 323 323 323 322 323 321 321 321 321 320 321 321 321 322 323 324 329 330 331 337 347 346 346 349 352 352 352
319 318 317 318 318 318 318 318 319 319 321 322 322 323 323 323 324 324 323 324 322 322 321 321 321 319 320 320 321 321 323 326 325 325 330 332 334 336 342 344 346 350 352 352
318 319 318 318 318 318 318 319 320 321 321 324 324 325 325 325 324 324 324 322 321 319 319 320 319 319 319 320 321 321 323 326 326 326 328 336 339 341 343 343 345 350 350 351
318 319 319 318 318 319 319 320 323 325 326 326 326 326 326 325 324 323 323 322 319 319 320 319 319 319 318 319 320 321 322 323 326 327 328 331 336 342 346 348 347 347 350 351
322 323 320 320 319 319 321 322 325 331 328 327 325 327 326 324 323 322 322 320 319 319 319 318 318 318 317 318 319 320 321 322 324 326 328 329 333 336 343 347 349 348 348 350
321 322 320 320 320 320 321 323 322 325 326 328 326 326 325 324 324 321 318 317 319 319 317 318 317 317 318 318 319 320 321 322 324 325 329 330 331 337 338 343 344 346 348 347
321 324 322 322 320 320 320 321 324 326 333 330 326 327 326 323 322 320 318 317 317 316 317 317 317 317 317 317 319 319 321 321 324 326 328 328 330 334 338 344 344 342 345 345
320 323 325 323 323 322 321 323 322 322 324 332 329 326 323 321 321 320 319 317 316 317 317 316 318 318 317 318 319 320 320 322 322 324 328 330 332 333 338 340 343 343 344 343
318 321 325 322 320 321 321 321 321 332 331 328 333 331 323 323 319 317 316 316 317 317 316 317 318 318 317 317 318 318 320 321 322 321 324 325 328 332 335 337 340 341 340 342
320 324 326 324 322 320 320 320 320 320 322 325 329 325 321 319 320 319 318 317 317 316 316 317 318 318 317 316 317 318 318 319 322 321 321 322 323 328 330 331 331 332 333 333
316 320 324 326 326 324 325 321 320 320 327 325 325 322 321 321 321 317 317 317 316 317 317 318 318 318 316 316 316 317 317 318 318 321 321 321 321 322 326 328 331 330 329 328
317 321 319 318 319 319 319 318 318 319 319 321 320 320 319 317 316 316 316 316 318 317 318 318 318 318 317 315 315 314 316 316 316 317 321 320 317 318 321 326 329 330 328 328
318 322 319 320 318 318 318 317 316 316 316 317 316 315 315 315 315 315 318 319 318 317 317 317 316 316 316 315 315 314 314 314 315 316 316 320 317 316 315 318 323 325 327 327
318 318 322 324 318 317 318 316 315 315 314 314 314 315 317 317 318 319 318 317 316 315 314 314 314 315 315 314 313 313 313 313 313 314 315 317 319 315 315 315 317 323 326 327
316 318 321 319 317 320 316 315 314 315 316 317 318 317 317 317 316 315 315 314 314 314 314 313 313 312 313 313 313 312 312 313 313 312 313 314 317 317 317 315 316 318 323 325
313 316 320 322 320 317 315 317 318 318 318 316 319 318 316 315 314 314 313 313 312 311 310 310 308 308 309 309 308 309 310 311 312 312 312 312 313 316 317 317 316 315 317 322
317 315 317 319 322 320 320 318 316 316 317 318 316 315 314 314 316 314 312 311 311 310 308 308 307 306 306 305 306 307 308 309 310 311 311 312 312 314 316 318 317 316 317 318
319 319 322 320 322 317 317 316 315 317 320 316 315 314 314 313 312 311 311 310 308 307 306 305 303 303 304 303 304 304 306 307 308 309 310 311 311 313 314 316 318 317 315 316
321 320 320 319 321 320 317 316 317 317 315 314 313 312 311 310 310 309 308 308 306 304 304 303 303 302 302 303 303 305 304 304 306 307 308 310 311 312 313 314 316 317 317 317
318 318 320 320 319 317 314 315 313 312 312 312 311 310 309 309 309 308 308 305 303 302 301 300 300 300 300 301 302 301 303 305 305 305 307 308 309 310 312 313 314 316 317 317
314 314 316 316 315 315 315 313 312 311 311 310 308 308 309 308 306 306 305 303 301 300 299 298 298 298 298 298 299 301 302 303 304 304 306 307 308 309 310 311 312 313 315 318
312 313 313 314 314 314 313 312 311 310 309 308 307 307 306 306 305 303 301 299 298 297 297 296 296 297 297 297 298 299 301 302 303 305 306 306 308 307 308 310 310 312 313 315
312 312 315 317 313 312 312 311 310 309 308 307 307 305 305 304 302 300 297 297 296 295 295 295 295 295 296 297 298 299 300 300 302 302 305 305 307 307 307 308 309 309 310 311

GFSCGP_925_thetae_096.txt.gz
Theta_e
319 318 319 319 320 320 319 319 319 320 320 320 319 320 320 320 320 321 321 323 324 324 323 321 320 321 323 323 323 324 325 328 329 331 344 355 356 357 356 355 354 351 349 349
320 320 319 319 319 319 319 318 319 320 320 320 320 320 320 321 322 322 322 323 324 325 325 326 324 323 323 323 324 324 325 326 326 332 332 339 350 353 355 355 356 353 352 350
321 321 321 319 319 319 319 320 320 319 320 321 321 321 322 322 322 322 323 324 323 324 324 326 326 323 322 322 323 323 323 321 326 329 330 330 332 344 352 352 353 354 353 353
320 321 320 320 319 319 320 320 319 319 320 320 320 322 324 323 324 324 325 324 323 324 324 323 323 322 322 321 321 321 323 326 327 328 327 331 332 336 343 350 352 353 354 353
319 320 320 320 319 319 318 319 319 319 320 321 321 322 322 324 324 325 326 326 326 325 324 322 321 321 321 320 321 323 324 322 322 328 327 332 327 328 333 334 336 348 355 354
319 319 319 319 319 318 318 318 319 320 320 323 322 323 323 324 326 326 325 326 324 322 321 320 320 320 320 320 320 320 322 324 326 323 324 330 332 333 336 334 338 337 349 354
318 318 319 319 319 319 319 320 321 323 323 324 323 324 327 330 327 325 325 325 323 321 320 320 320 320 320 319 319 320 320 321 324 323 326 327 329 333 334 338 339 337 345 347
323 325 320 318 318 320 319 320 324 327 329 327 326 327 327 327 326 325 323 323 322 320 320 320 319 320 318 318 319 320 321 322 323 324 326 328 327 331 332 333 337 341 341 341
323 323 321 322 323 321 321 322 322 326 327 330 328 325 326 326 326 325 324 322 319 319 321 319 318 319 318 318 319 320 319 321 323 322 327 329 330 333 332 333 335 337 344 344
321 325 323 323 322 323 321 321 323 325 336 332 327 326 327 327 326 323 322 321 319 320 318 318 319 319 318 319 318 318 322 322 321 324 323 325 326 330 331 334 333 337 338 343
321 325 325 323 324 325 325 322 322 324 327 333 332 327 326 325 323 323 323 322 320 319 317 318 318 317 318 318 317 317 320 319 322 321 322 323 326 326 328 329 334 337 338 342
320 323 325 322 321 322 323 325 324 332 332 330 333 332 326 327 323 324 320 319 318 319 319 318 318 318 318 318 318 317 319 320 320 321 322 324 324 327 327 325 327 331 327 336
322 324 327 324 323 322 322 323 323 323 326 325 328 326 322 324 322 322 323 322 321 321 319 319 318 318 319 318 318 317 317 318 318 319 320 321 323 323 323 320 324 320 329 335
316 321 324 326 324 325 326 326 324 323 327 326 325 323 321 322 323 322 322 319 318 319 319 318 321 319 318 318 318 317 317 316 317 317 318 318 321 321 321 319 318 319 322 327
320 321 319 319 318 319 319 320 320 322 322 323 321 321 321 321 321 320 318 319 319 319 319 319 319 320 319 317 316 317 316 316 315 316 317 317 319 322 321 320 318 316 316 319
320 322 320 320 318 318 319 319 318 319 319 318 318 318 317 317 317 319 319 318 317 317 316 317 317 317 317 316 315 315 315 316 316 316 316 315 315 319 322 320 319 316 315 315
319 320 320 321 318 321 323 320 319 318 318 317 318 318 319 319 318 318 317 317 316 315 315 314 314 313 313 311 310 311 311 312 314 314 315 315 315 315 319 319 318 316 315 316
317 316 319 323 319 323 318 317 317 317 316 316 318 319 319 318 317 315 315 314 314 313 313 313 313 312 310 309 309 309 309 310 311 312 313 314 314 315 315 319 318 317 316 316
316 317 319 321 322 319 317 319 321 320 319 319 318 317 317 316 314 314 314 313 312 312 312 310 309 308 307 306 305 305 306 306 307 309 310 312 312 314 314 319 319 317 316 317
317 316 317 319 325 324 321 319 317 316 317 318 316 315 315 314 315 314 313 311 311 310 309 308 306 305 304 304 304 304 303 305 306 306 307 309 311 313 313 316 320 320 318 317
320 317 317 318 319 318 318 318 316 318 319 316 314 314 313 313 312 312 310 310 310 308 306 305 304 303 302 302 302 302 303 304 304 305 306 307 309 310 312 313 317 320 320 319
320 322 322 320 325 323 317 317 319 317 316 314 313 312 311 310 310 310 310 309 308 306 303 301 300 299 300 300 300 300 301 302 302 303 305 305 307 307 310 312 314 319 320 319
323 321 322 321 321 319 317 317 314 314 313 312 310 309 310 310 310 308 309 306 303 301 300 298 298 298 298 298 297 298 298 299 301 302 302 305 304 307 308 311 313 317 319 320
317 316 318 317 316 316 316 314 313 311 311 310 309 310 309 308 307 307 304 301 300 298 297 296 296 296 296 296 296 296 297 298 300 302 303 303 306 306 308 309 312 315 318 318
314 314 315 315 315 314 314 313 311 311 309 308 309 308 306 307 305 303 301 299 297 296 295 295 295 295 295 295 296 296 297 298 300 302 303 304 305 306 307 308 310 313 314 316
314 315 318 318 313 313 312 311 310 309 308 310 308 306 306 304 302 300 298 296 295 294 294 294 294 295 296 296 296 296 297 299 300 302 303 305 306 307 307 308 309 310 311 313

GFSCGP_925_thetae_102.txt.gz
Theta_e
316 315 315 315 314 314 315 315 316 316 315 315 315 315 315 314 315 315 314 315 315 315 316 319 319 325 325 324 323 322 324 325 324 326 325 325 325 325 337 347 347 349 351 350
313 315 314 315 316 317 316 316 316 315 315 315 316 316 313 314 314 313 314 314 315 315 315 320 323 325 322 321 321 321 321 321 321 321 322 328 326 325 326 324 323 325 339 350
313 315 316 317 316 317 316 316 315 316 317 316 316 315 316 316 316 314 314 314 315 315 315 320 318 320 322 322 321 321 320 320 321 321 322 322 323 323 324 325 326 328 329 337
313 315 316 318 318 317 315 315 317 317 317 315 315 315 314 315 317 317 316 314 313 315 316 319 316 317 320 321 320 319 321 322 321 321 321 322 324 326 324 323 323 324 326 328
316 316 317 317 317 316 316 316 316 317 317 316 315 314 313 316 317 316 315 317 315 313 317 316 315 318 320 319 320 322 323 322 322 321 323 323 322 322 321 322 324 324 323 324
316 316 316 316 316 316 317 316 313 313 312 314 314 316 314 316 316 316 320 317 316 314 315 314 316 318 317 320 318 318 318 319 319 323 321 320 322 321 324 325 325 327 328 329
317 317 317 317 317 314 314 312 313 314 314 315 315 317 314 316 320 321 318 315 314 313 313 313 312 313 315 316 317 318 319 318 319 318 318 319 319 321 324 325 328 328 329 327
317 319 320 320 320 320 319 314 314 317 317 316 321 323 322 322 321 318 318 315 315 313 312 312 312 312 314 316 316 316 319 318 318 317 317 318 321 322 327 325 322 325 324 324
317 319 319 322 321 320 321 321 315 319 321 322 320 320 319 322 322 320 318 314 315 315 314 313 311 312 314 315 315 317 317 317 317 316 317 322 323 323 322 321 321 323 322 321
319 322 321 322 321 321 321 321 324 318 324 325 324 323 323 324 322 320 319 317 316 314 313 313 312 312 314 315 315 316 316 317 316 318 320 321 323 322 320 321 322 322 320 320
318 318 321 320 322 321 324 321 322 321 321 322 323 321 321 323 321 321 318 318 317 314 312 311 309 310 311 312 313 315 316 316 319 320 319 320 319 320 322 323 322 321 320 319
318 318 322 322 319 318 318 322 324 329 327 320 317 320 320 320 320 317 317 316 314 312 311 310 310 312 312 313 314 314 314 314 314 314 316 319 320 320 320 322 322 321 319 318
316 319 321 319 319 320 322 322 324 326 327 330 329 325 319 319 316 313 313 312 311 311 311 309 309 309 311 312 311 311 311 311 310 310 310 311 311 313 316 321 321 320 319 319
315 317 319 319 320 319 323 319 320 323 326 329 328 324 321 317 314 313 312 311 310 309 310 310 309 308 309 310 311 310 310 310 309 309 309 308 309 309 310 311 314 319 319 320
313 317 318 318 319 319 318 317 316 319 322 324 321 321 320 315 314 313 312 310 310 309 309 308 308 307 308 309 309 309 309 309 309 308 307 307 307 306 307 308 310 311 315 320
313 316 317 319 318 317 316 316 317 317 316 316 319 320 316 314 312 311 309 310 309 308 308 307 308 307 307 306 307 307 306 306 306 306 306 306 305 305 305 306 308 310 311 316
314 314 315 316 315 314 313 314 317 317 317 316 318 317 313 312 311 310 308 308 308 307 307 306 306 305 304 304 304 304 304 304 304 304 304 304 304 304 304 305 306 309 311 312
314 314 314 314 312 317 312 318 319 319 317 315 315 313 312 310 309 308 307 306 306 306 306 304 303 303 303 303 302 301 300 300 301 301 301 302 302 303 304 304 305 306 309 311
312 314 314 310 311 313 318 321 320 318 318 314 313 312 311 308 307 308 306 306 304 303 302 303 303 302 301 300 299 299 299 298 299 299 299 301 302 300 301 303 306 306 308 309
314 314 314 312 314 316 319 319 318 318 318 313 311 310 309 306 308 307 305 304 302 302 303 302 301 300 299 299 298 297 297 297 297 297 298 299 300 301 300 303 303 303 304 306
318 317 317 316 315 313 316 317 316 320 315 312 310 308 307 306 304 304 302 302 303 302 301 299 299 298 298 297 296 296 296 296 296 296 297 297 298 298 299 302 303 304 305 308
319 318 317 317 318 317 316 316 317 313 311 309 307 305 305 304 302 301 303 302 301 299 298 297 297 296 295 295 295 295 295 295 296 296 296 297 297 298 299 300 302 303 305 308
320 317 317 316 318 316 314 314 313 311 308 306 305 305 303 301 302 302 302 301 299 297 297 295 295 294 294 294 294 295 295 295 296 296 297 297 297 298 299 301 303 304 306 307
316 316 315 315 317 317 315 313 311 308 306 306 303 301 302 302 301 301 299 298 296 294 294 294 294 293 293 294 294 294 295 296 297 297 297 297 298 298 300 302 302 303 305 307
311 315 315 315 314 314 313 310 308 306 304 301 301 302 301 300 298 298 296 294 293 293 293 293 293 293 293 293 294 294 295 296 298 298 298 298 299 300 300 302 303 304 304 307
311 312 311 315 311 309 308 306 306 303 302 302 302 301 299 299 296 295 294 293 292 293 292 292 292 292 292 293 293 293 294 295 296 299 298 299 300 300 301 304 304 304 306 307

GFSCGP_925_thetae_105.txt.gz
Theta_e
313 314 313 311 312 314 313 314 315 315 315 316 314 314 314 315 312 312 312 313 313 312 313 314 316 319 324 326 326 326 326 325 325 322 322 323 322 327 335 343 344 345 343 338
312 314 313 313 314 315 315 315 315 315 315 314 314 315 314 313 312 313 313 313 313 314 314 318 323 324 325 327 326 324 323 322 322 322 323 325 325 325 324 324 323 326 328 329
312 314 315 315 315 316 315 316 315 315 316 315 315 314 314 315 314 314 313 313 313 313 313 318 322 323 324 324 324 323 322 321 320 320 321 322 322 322 321 321 321 321 321 322
312 313 314 316 316 315 315 314 316 316 315 314 314 314 313 313 314 316 316 313 312 312 312 317 318 318 320 320 321 321 320 321 322 321 321 321 321 321 321 321 321 320 321 323
314 316 316 316 316 315 315 315 315 315 315 313 313 313 313 314 317 315 314 313 315 312 312 316 317 318 319 320 320 320 321 322 321 321 321 321 322 322 321 320 320 322 324 326
314 316 316 315 315 315 315 314 311 310 310 313 313 313 313 315 316 314 316 316 314 313 313 314 314 317 318 318 319 322 322 321 320 320 322 322 321 320 320 320 323 323 326 324
316 316 316 317 318 316 312 310 313 314 313 314 313 314 313 316 320 319 318 314 313 312 311 311 311 311 315 318 320 322 320 320 319 318 320 319 319 319 318 319 321 325 326 323
317 317 319 320 320 321 318 312 312 316 315 314 318 319 320 321 318 315 314 313 312 313 312 312 312 313 315 316 316 317 317 317 318 319 318 318 317 317 318 320 322 325 322 322
317 318 320 321 321 319 321 320 315 317 318 319 318 318 318 320 318 318 316 314 313 312 310 311 310 310 310 312 313 313 316 317 317 317 317 317 316 317 319 320 324 321 321 321
316 318 321 322 320 320 321 320 322 316 323 324 320 322 318 323 320 320 318 317 316 313 310 308 307 309 310 311 311 312 312 313 314 315 315 316 319 321 321 323 321 320 320 321
317 318 320 319 320 321 320 319 319 318 317 320 321 320 318 323 320 318 314 313 312 310 309 309 309 311 311 312 312 312 312 312 312 312 312 313 315 317 318 319 320 320 321 321
317 316 321 320 317 317 318 321 320 320 324 316 313 317 318 317 314 313 312 311 310 309 309 308 308 309 310 310 310 310 310 310 309 309 309 309 309 310 310 311 314 319 322 321
317 318 320 318 318 316 321 321 322 322 324 329 329 327 317 315 313 311 310 309 310 309 308 307 307 306 308 309 309 308 308 308 308 308 308 307 307 307 307 307 307 308 309 314
315 316 318 319 319 317 321 318 320 320 327 327 326 324 322 319 313 311 309 309 309 308 307 307 306 305 307 307 307 307 307 308 308 307 307 307 307 307 306 306 306 306 306 307
312 316 318 318 318 318 318 317 316 319 320 323 320 321 320 315 313 311 309 309 308 307 306 306 305 304 305 305 305 306 306 305 305 305 305 305 305 305 305 305 305 305 305 307
310 316 316 316 316 313 314 313 314 315 315 320 320 319 313 311 310 309 308 308 307 306 306 305 305 304 304 304 304 304 303 303 302 302 302 302 303 303 304 304 304 304 304 305
312 311 311 314 313 313 312 311 311 315 315 315 316 313 311 311 310 309 308 307 306 305 305 305 304 303 303 303 303 302 301 300 299 299 299 300 300 300 301 301 302 303 304 305
312 310 309 312 310 314 310 316 317 317 315 313 313 312 311 310 308 308 306 305 305 305 304 302 302 302 302 301 300 299 298 298 298 298 298 298 299 299 299 301 302 302 302 302
310 309 312 311 312 311 318 320 319 318 316 312 313 311 310 307 305 305 305 304 303 301 301 301 301 300 299 299 298 298 298 297 297 297 297 297 297 298 299 299 300 301 302 304
312 310 308 311 311 313 313 317 317 317 319 313 310 309 308 305 306 304 303 301 300 301 301 300 298 298 298 297 297 296 296 296 296 296 296 296 297 297 297 298 298 299 301 302
317 316 317 314 316 312 312 316 314 318 313 311 308 306 306 305 304 302 300 301 301 300 300 297 297 296 296 296 295 295 295 295 295 295 296 296 296 297 297 297 298 298 301 302
318 317 316 318 316 316 314 314 316 310 310 308 305 305 303 301 300 300 301 300 299 299 296 295 294 295 294 294 294 294 294 295 295 295 296 296 297 297 297 298 298 299 300 302
319 312 315 313 315 313 313 312 312 309 306 305 303 300 301 301 300 299 298 298 297 294 294 293 293 294 293 293 293 294 294 294 295 296 297 297 298 297 297 298 298 300 302 303
315 315 317 314 315 316 314 312 308 304 302 300 300 301 300 299 299 298 296 294 294 293 292 293 293 293 293 292 293 293 293 294 295 296 296 299 298 298 298 299 300 301 302 303
308 314 313 315 314 314 313 308 303 302 301 301 300 300 298 298 297 295 294 294 293 292 293 292 292 292 292 292 292 292 293 294 295 296 297 299 299 299 300 301 301 302 302 303
307 309 309 311 311 310 306 302 301 301 301 300 298 298 296 296 295 294 294 293 292 292 291 291 291 291 291 291 291 292 293 294 296 297 299 300 300 299 300 302 302 303 304 304

GFSCGP_925_thetae_108.txt.gz
Theta_e
307 309 310 310 309 310 310 313 314 313 314 312 312 313 313 313 311 311 312 313 312 312 312 313 315 319 329 338 340 339 344 347 347 346 348 349 350 350 349 350 350 349 346 335
311 312 312 311 310 313 314 315 314 313 314 314 313 313 313 314 312 311 312 312 312 312 312 314 315 318 324 333 339 342 344 346 347 347 342 337 340 338 335 330 325 323 323 323
312 314 313 313 314 314 314 314 314 315 315 314 313 314 314 314 313 312 311 311 312 312 312 316 319 319 323 325 331 337 340 343 337 329 325 325 324 324 323 321 320 320 320 320
312 312 313 314 315 313 314 313 314 315 314 314 313 315 313 313 313 315 313 312 313 312 312 312 319 320 321 324 325 325 324 323 323 323 321 320 320 320 320 319 319 320 320 321
313 315 315 315 314 313 315 314 314 315 312 313 313 313 313 313 316 315 314 315 314 314 313 312 315 320 320 321 323 323 321 320 320 320 320 320 320 319 319 319 319 319 320 321
312 314 315 315 314 314 314 311 309 309 309 312 312 312 312 313 315 316 316 316 314 313 312 311 313 316 317 319 320 319 320 321 321 321 320 319 318 318 319 319 319 319 322 322
315 315 315 315 317 317 310 310 311 314 313 314 312 314 313 315 319 318 317 314 313 312 311 311 312 312 315 317 318 319 322 321 321 320 320 319 319 319 318 318 318 319 321 323
316 316 316 319 319 318 315 310 312 316 314 313 316 316 319 319 317 313 312 312 311 309 308 309 309 309 310 311 312 317 317 316 315 317 319 321 320 319 319 319 318 319 319 321
317 318 321 320 319 317 319 319 313 314 315 316 316 317 318 319 318 316 315 313 310 309 307 306 307 307 309 310 310 310 311 311 312 314 315 315 315 316 316 317 318 320 321 322
315 319 320 322 320 318 319 315 320 315 323 323 318 320 316 320 318 315 313 312 310 309 309 309 309 309 310 310 310 311 311 311 310 310 311 311 311 313 314 317 320 321 322 322
314 316 319 318 319 319 318 319 318 316 315 319 320 319 317 318 316 313 312 310 309 308 308 307 307 308 308 308 308 308 307 307 307 307 307 307 307 307 307 308 309 310 314 319
317 316 319 319 316 316 317 320 318 321 321 314 313 317 316 311 311 310 310 310 309 308 307 306 306 306 307 306 306 306 306 307 307 307 307 307 306 306 306 306 306 306 306 307
319 318 321 318 317 315 320 321 320 318 317 321 322 320 314 312 310 309 309 309 308 308 306 306 304 304 305 305 305 305 306 306 306 305 304 304 304 305 305 305 305 305 305 306
317 316 318 319 316 315 320 320 319 318 321 321 322 323 319 314 312 310 309 309 307 306 306 305 304 303 304 304 304 304 304 304 303 303 303 303 303 303 303 303 304 304 304 305
310 315 317 317 317 318 317 317 317 319 317 319 318 321 319 316 311 309 308 308 307 306 305 305 304 303 303 303 303 303 303 302 302 301 301 300 300 300 301 302 302 303 303 304
308 315 315 315 313 312 314 313 313 314 315 318 318 317 313 310 308 309 308 308 307 305 305 304 304 303 303 302 302 302 301 300 299 299 298 298 298 299 299 299 299 300 300 302
310 311 310 312 311 312 311 310 310 313 315 314 315 314 311 311 309 308 307 307 305 304 304 303 302 302 302 301 300 299 299 298 298 298 298 298 298 298 298 298 299 299 299 300
310 308 306 310 309 314 308 314 314 315 314 312 312 311 310 309 307 305 305 305 304 302 302 301 301 301 300 298 298 297 297 297 297 297 297 297 297 297 298 297 298 299 299 300
308 306 310 307 308 309 318 318 319 318 316 312 311 310 308 305 304 304 304 303 301 300 300 301 300 298 297 297 297 296 296 296 296 296 296 296 297 297 297 297 297 298 299 298
309 306 306 312 308 312 311 317 316 316 319 311 309 308 306 305 306 304 302 300 299 299 299 299 299 296 296 295 295 295 295 295 295 295 296 296 296 296 297 297 297 297 297 297
314 314 315 314 310 311 310 315 313 316 312 310 307 306 306 305 303 301 299 299 299 298 297 296 294 294 293 294 294 294 294 295 295 295 295 295 296 297 297 297 297 297 297 298
316 315 316 315 315 310 313 313 315 308 308 305 305 303 301 300 300 299 298 297 296 295 294 294 293 293 293 293 293 294 294 294 294 294 295 296 296 297 298 298 297 297 297 298
319 314 310 309 309 310 313 311 308 306 304 302 300 300 300 299 298 297 297 296 295 294 293 293 293 293 293 293 293 293 293 293 294 294 295 296 297 298 299 298 298 298 299 299
316 315 317 310 311 314 313 305 302 301 300 300 299 298 297 296 296 296 295 294 294 293 293 292 292 292 292 292 292 292 293 293 294 295 296 297 297 299 299 299 300 300 300 301
308 315 313 315 314 314 308 305 302 301 299 298 297 297 296 296 296 295 294 294 293 292 292 292 291 291 291 291 291 292 292 293 294 295 296 298 299 300 300 300 300 301 302 302
305 308 309 308 309 306 304 301 300 299 298 298 297 297 296 295 295 294 294 293 292 292 291 291 291 291 291 291 291 291 291 292 293 294 297 300 300 300 300 300 301 302 302 304

GFSCGP_925_thetae_111.txt.gz
Theta_e
309 310 311 312 313 315 317 314 315 315 314 316 316 317 318 319 324 325 324 322 322 322 321 318 317 315 315 322 327 331 334 341 346 348 349 349 349 349 347 344 345 344 346 347
310 310 311 312 314 314 316 316 317 317 315 315 316 318 318 319 319 320 321 321 323 321 321 320 318 319 318 323 329 333 339 340 345 348 345 346 348 347 349 350 351 351 345 332
313 313 312 314 316 316 316 316 317 317 317 317 317 317 317 317 317 316 316 318 319 319 320 319 320 321 325 331 332 337 341 343 344 343 343 341 346 345 341 340 333 325 324 322
316 316 315 316 318 317 318 316 316 317 317 318 317 320 320 319 317 317 318 317 316 317 318 319 323 322 324 328 330 333 336 339 339 342 337 334 332 329 327 325 323 320 319 318
315 315 316 316 317 317 318 317 317 317 319 318 318 319 319 317 319 319 318 321 320 319 318 319 318 322 322 324 325 328 329 329 326 326 324 324 322 323 320 320 319 319 318 318
315 315 317 317 316 317 316 316 316 316 318 320 320 319 319 319 319 321 322 320 318 319 318 318 318 320 320 321 324 324 322 321 321 321 320 320 320 319 319 320 322 323 322 321
316 316 316 316 317 319 316 318 320 320 319 320 316 318 319 319 321 321 321 319 318 317 318 318 320 321 321 322 323 324 325 322 321 321 321 321 321 320 324 327 324 325 324 325
320 317 317 319 320 320 320 318 320 320 320 319 318 319 322 321 318 317 318 319 317 315 315 315 315 314 314 314 314 315 316 317 316 315 316 316 317 321 321 321 322 322 322 323
319 318 320 320 321 321 321 322 317 322 320 321 320 322 323 321 320 319 319 317 317 317 317 316 315 314 314 314 314 315 315 314 314 313 314 314 314 316 318 318 320 322 322 322
319 323 321 322 321 320 322 319 324 323 325 322 322 324 325 324 322 320 319 319 318 316 315 314 313 311 310 310 310 311 310 311 311 311 311 311 311 311 311 311 313 314 317 321
317 321 322 321 322 323 322 324 323 323 323 324 321 322 322 323 322 320 319 317 316 315 313 312 311 310 309 308 308 309 309 309 309 309 309 309 309 309 309 310 310 310 311 311
319 322 324 322 319 319 320 322 325 331 328 325 326 325 318 319 318 319 318 315 314 313 312 311 310 309 308 308 307 307 308 307 307 307 307 307 308 308 308 308 309 309 309 309
324 324 326 324 322 320 322 324 324 324 325 327 326 325 317 317 317 317 317 315 313 312 312 311 310 309 307 307 306 306 306 306 306 306 306 306 306 306 306 306 306 306 307 307
322 322 324 327 322 321 324 325 324 324 328 324 324 324 320 318 318 316 315 314 313 312 311 310 310 309 307 306 306 305 305 305 305 304 304 304 304 304 304 304 304 304 305 305
320 324 321 320 319 319 321 322 322 323 322 323 321 324 322 321 319 316 314 313 313 312 310 309 309 308 306 305 305 304 304 303 303 303 303 303 302 302 302 302 303 303 303 303
316 321 318 318 315 316 318 318 318 318 318 320 319 320 317 316 314 313 313 312 312 310 309 308 307 306 305 304 304 303 302 302 301 301 301 302 302 302 302 301 302 302 302 302
318 319 318 317 314 314 314 313 314 315 315 316 317 316 316 315 314 313 312 311 310 308 307 307 306 305 304 303 301 301 301 300 300 300 301 301 300 301 301 300 300 300 300 300
317 316 315 316 314 314 314 317 316 316 316 316 316 315 313 312 311 310 309 309 308 307 306 305 304 303 302 300 299 300 299 299 299 299 299 299 299 298 298 299 299 299 299 299
313 315 316 317 315 313 317 319 319 319 319 315 315 313 312 311 311 311 307 306 306 305 304 302 301 301 299 298 298 297 298 298 298 298 298 297 297 297 298 298 298 298 298 298
312 313 316 314 317 316 320 317 316 317 321 313 313 312 311 310 314 312 307 305 304 302 300 299 298 297 297 296 295 296 297 297 297 296 296 296 296 296 297 297 298 298 298 298
316 316 316 315 317 315 313 316 314 320 318 312 310 310 309 309 308 306 304 303 301 299 298 297 296 296 295 295 295 296 296 295 295 295 296 296 296 296 297 298 298 299 298 298
314 315 315 315 318 318 315 316 317 315 311 310 308 306 307 305 304 302 301 300 299 297 296 295 295 295 294 295 294 293 293 295 295 295 295 296 297 298 298 299 299 299 299 299
318 317 318 316 316 317 314 313 311 311 309 306 306 303 302 302 301 300 299 298 296 295 294 294 293 293 294 292 292 293 294 294 294 295 297 298 299 300 300 300 300 300 300 301
317 315 317 316 316 316 310 306 307 306 305 303 301 300 300 300 299 298 296 295 294 293 293 293 293 292 292 292 292 293 293 293 294 295 297 299 299 299 301 301 301 301 302 302
314 315 315 315 316 311 309 306 303 302 301 300 299 299 299 298 297 296 295 294 293 293 293 292 291 291 291 291 292 292 292 292 293 294 297 297 299 300 301 302 302 302 302 303
311 315 317 316 315 314 308 303 302 302 301 299 299 299 298 296 296 295 294 293 292 292 291 291 291 291 290 290 290 291 291 291 291 293 295 298 299 301 301 302 303 303 303 305

GFSCGP_925_thetae_114.txt.gz
Theta_e
312 313 315 315 314 316 317 317 316 316 316 316 316 317 319 320 323 325 330 332 331 335 334 330 328 323 322 323 327 334 341 349 355 354 353 353 353 353 354 353 352 352 353 354
313 314 315 314 314 316 317 318 318 318 317 318 316 318 318 320 321 323 327 330 331 334 334 330 325 325 322 322 318 325 336 347 351 349 350 349 351 352 353 351 351 353 352 352
314 314 314 314 314 317 317 319 318 318 319 316 317 319 319 320 322 324 325 325 330 332 333 327 325 323 323 323 322 329 345 350 350 350 352 350 351 351 352 352 354 354 354 351
312 313 314 313 315 317 319 318 318 318 319 320 320 322 321 322 322 323 323 323 326 330 327 324 323 322 323 326 330 340 347 349 350 348 344 346 346 346 346 348 345 341 337 333
313 317 318 314 317 318 319 318 318 318 319 320 321 321 322 322 322 322 322 321 321 325 322 319 319 320 324 326 332 337 340 343 343 344 344 346 345 341 334 330 330 329 332 329
317 316 317 318 318 318 318 318 319 319 319 320 320 321 322 322 322 322 324 324 323 322 322 322 322 322 326 325 329 332 336 337 338 336 335 335 333 331 328 327 326 324 324 325
317 317 317 318 318 319 319 320 322 320 320 320 319 321 320 325 326 325 326 325 324 322 323 324 325 325 326 327 328 330 332 331 330 330 330 330 331 331 331 331 326 325 324 324
318 317 317 318 318 320 321 322 321 320 320 319 320 320 321 325 324 325 324 323 324 322 322 321 322 321 321 322 323 325 326 325 324 325 325 326 326 325 326 326 327 327 325 324
320 318 317 317 318 320 322 323 321 323 322 322 321 322 325 324 324 324 324 325 324 323 322 321 321 319 318 319 319 320 320 319 319 319 320 320 320 320 321 321 322 322 324 325
320 320 318 317 319 320 322 321 323 322 324 322 322 324 322 326 326 325 325 325 323 321 320 319 318 316 315 315 315 315 316 316 316 316 316 316 316 316 316 316 317 317 318 318
320 322 324 323 322 320 322 323 323 324 323 325 323 325 326 326 326 326 324 323 322 321 319 318 317 315 315 314 314 314 313 314 314 313 313 313 313 313 314 314 314 315 315 316
320 322 328 324 323 322 323 323 323 331 326 325 326 327 325 327 325 324 323 322 321 319 318 317 316 315 314 313 312 312 311 311 311 311 311 311 312 312 312 313 313 313 313 313
323 325 329 328 325 323 323 324 325 327 328 328 326 325 324 323 324 323 322 321 319 319 317 317 316 315 313 312 311 310 310 310 309 309 309 309 310 310 311 311 311 311 311 311
323 325 327 329 327 325 326 325 324 324 327 325 325 327 325 324 323 322 321 320 319 318 317 316 316 315 312 311 310 309 309 308 308 308 308 308 309 310 310 309 309 310 310 310
326 329 327 325 322 323 324 325 324 323 322 323 321 324 325 324 324 323 321 320 319 318 316 315 314 313 311 310 309 308 307 307 307 307 307 308 308 308 308 308 309 308 308 308
323 328 326 326 322 322 323 322 322 322 322 322 321 321 320 321 321 320 319 318 317 316 314 313 312 311 309 308 308 307 306 306 306 306 306 306 307 307 307 307 306 306 305 305
324 325 326 325 319 318 317 316 318 319 319 320 321 319 319 319 318 318 317 316 315 313 312 311 310 309 307 307 306 306 305 305 305 305 305 305 305 305 304 303 302 302 303 302
325 324 322 321 318 316 319 318 316 315 316 317 319 319 319 318 317 316 315 314 313 312 311 310 308 306 306 305 304 303 303 303 304 304 304 304 302 301 300 301 301 301 301 300
320 322 323 322 318 317 319 319 319 321 321 319 319 318 317 316 317 315 311 310 310 309 308 306 304 304 303 303 302 301 301 302 303 303 301 300 300 300 301 301 301 301 300 300
318 318 320 319 320 316 321 320 319 318 323 318 318 317 317 316 319 314 311 309 307 306 304 303 302 302 302 302 300 300 300 301 300 300 299 300 300 301 301 301 300 301 301 300
318 318 320 318 321 318 318 317 317 322 323 316 316 315 314 315 313 310 308 306 304 303 302 301 301 301 300 298 298 298 299 297 296 298 300 300 300 300 300 300 301 302 302 301
316 317 318 318 320 322 318 317 320 319 316 315 313 311 310 308 307 306 305 305 303 301 300 298 298 298 297 297 297 296 294 295 297 298 298 299 299 300 302 302 302 303 302 303
319 318 321 319 322 318 318 318 317 315 314 311 309 307 306 306 305 305 303 302 299 297 296 296 295 295 296 295 293 293 295 296 296 296 296 299 301 302 303 303 304 304 303 303
318 317 319 320 318 316 314 312 312 311 308 306 305 304 304 304 303 301 299 298 297 295 295 294 294 294 293 292 293 294 295 294 294 295 296 299 301 303 303 303 304 305 303 304
317 317 318 319 313 312 311 310 307 305 304 304 303 302 302 301 300 298 297 296 295 294 294 293 292 291 292 292 292 292 292 293 293 294 296 299 301 303 303 302 303 303 304 305
316 317 318 319 316 316 311 306 304 304 304 302 302 301 301 300 299 297 295 294 293 292 291 290 290 291 290 290 291 291 291 291 292 293 294 297 299 301 302 302 302 303 305 307

GFSCGP_925_thetae_117.txt.gz
Theta_e
314 315 316 315 316 316 317 318 319 318 317 317 317 317 317 318 320 321 325 329 330 332 334 331 331 327 331 328 323 331 337 344 354 355 354 353 352 351 351 350 351 351 354 353
314 315 316 316 316 316 317 318 320 320 319 318 318 317 318 318 319 321 323 326 327 330 331 333 332 332 331 326 322 327 334 341 350 352 351 346 345 345 346 346 354 352 352 352
315 315 315 316 317 317 317 319 319 320 319 321 319 319 319 318 318 320 322 323 323 326 329 333 334 331 330 325 327 326 326 343 348 349 348 350 352 348 348 347 350 353 353 352
315 316 316 316 317 317 318 318 318 319 321 319 320 320 319 319 319 320 321 322 324 329 329 333 335 334 328 327 327 328 335 342 352 349 353 353 350 346 344 345 345 351 353 354
314 315 316 316 316 316 317 319 319 319 320 321 321 322 323 322 320 321 323 325 327 325 328 334 334 330 323 325 324 325 345 337 341 352 350 347 349 343 344 344 347 349 347 342
315 315 316 318 316 316 318 319 320 320 320 320 321 324 324 325 326 323 324 324 324 323 332 333 325 325 324 324 327 336 343 345 348 348 349 348 345 342 338 336 334 332 331 332
316 316 318 318 318 317 319 321 322 321 321 320 320 323 327 329 328 326 327 328 327 325 326 327 327 325 328 327 330 335 339 342 343 341 340 339 340 338 338 336 329 329 326 325
321 320 319 318 318 320 320 321 321 323 321 319 319 322 326 326 324 328 328 328 327 327 327 328 329 330 330 331 331 333 334 331 331 332 331 330 331 329 329 332 332 331 329 328
322 321 318 318 319 320 322 321 321 322 326 325 322 325 326 326 327 328 328 328 328 328 327 327 326 326 326 326 326 326 325 324 325 325 325 324 324 324 325 324 325 323 323 325
323 324 318 318 319 319 320 323 324 325 331 333 327 326 326 328 328 328 329 329 328 326 325 324 323 322 321 321 320 320 321 320 320 319 319 319 320 320 320 320 321 321 322 322
322 324 322 318 318 319 320 324 326 327 326 329 330 331 329 329 328 329 329 327 326 325 323 322 322 320 319 319 319 318 317 317 317 317 316 317 317 317 317 318 318 318 318 319
322 325 327 321 318 318 320 323 326 336 332 329 331 331 326 329 327 328 328 326 325 323 322 321 320 319 318 318 317 316 315 315 315 314 314 314 315 315 314 315 315 316 316 316
326 325 332 328 329 325 324 324 324 329 331 329 332 333 327 330 328 327 326 324 323 322 322 321 320 319 318 316 315 315 314 313 313 312 313 312 313 313 314 314 315 315 315 314
326 325 329 332 327 327 325 324 324 327 330 331 330 329 328 327 326 325 325 324 323 322 321 320 320 319 317 315 314 313 313 311 311 311 311 311 312 312 312 313 313 313 313 314
325 328 327 329 326 327 327 323 325 323 322 324 323 328 327 327 325 325 324 323 323 322 320 319 318 318 316 314 313 312 311 310 310 310 310 310 310 311 311 311 312 311 310 310
327 328 327 328 324 326 328 325 326 326 324 323 322 327 327 325 325 325 323 322 322 320 318 317 316 316 314 313 312 311 310 309 309 309 309 309 310 310 310 309 308 307 307 307
331 328 328 328 326 324 325 325 324 323 321 321 321 321 323 323 322 322 320 320 319 318 316 316 315 314 312 311 310 309 308 308 308 308 309 309 309 308 306 306 305 305 305 304
327 328 325 326 324 327 323 319 317 319 319 319 321 321 321 320 320 319 318 318 317 316 315 314 312 310 309 308 308 307 307 306 307 308 308 307 306 305 304 304 303 303 303 303
326 326 328 327 322 322 321 319 316 318 320 319 320 319 319 319 318 318 315 314 313 312 311 310 308 307 307 307 307 306 305 306 306 306 305 305 304 304 303 303 303 302 302 303
323 323 324 322 323 320 322 321 321 321 323 320 319 319 318 318 320 318 314 312 310 309 308 307 306 305 306 306 304 303 303 303 303 303 301 301 303 304 303 303 303 303 303 304
321 322 324 322 323 325 321 320 319 324 325 318 317 317 317 318 315 313 310 309 308 307 305 304 304 303 303 301 300 300 301 301 300 299 301 302 303 303 303 303 302 305 305 304
320 321 321 321 322 326 319 318 322 320 318 317 315 314 313 311 310 309 308 307 306 304 302 301 301 300 299 299 298 298 297 296 298 300 300 301 302 302 301 303 305 305 306 307
320 319 322 320 325 322 321 320 317 317 315 314 312 309 308 308 307 306 306 305 303 300 298 298 297 297 297 296 294 294 295 297 298 298 300 301 301 302 303 305 305 304 306 307
318 317 321 322 319 318 317 316 314 313 311 309 307 307 306 306 304 304 303 301 299 297 296 295 295 295 293 292 293 293 294 295 297 298 299 299 300 302 304 305 304 304 304 305
318 318 319 318 317 315 315 313 311 309 307 306 305 305 304 304 303 302 300 297 296 295 294 293 292 291 291 291 292 293 293 294 295 296 297 298 301 302 304 304 303 304 304 305
318 320 321 321 317 317 314 311 309 307 306 305 305 304 303 303 302 300 298 295 294 293 291 290 290 290 290 290 291 291 290 291 292 294 295 295 298 301 303 304 304 305 306 308

GFSCGP_925_thetae_123.txt.gz
Theta_e
320 320 320 319 316 314 315 314 313 314 315 313 313 313 314 314 314 314 314 315 316 315 318 332 332 331 332 329 326 328 333 335 336 336 336 333 336 332 339 353 352 354 353 352
321 322 319 318 317 314 314 315 314 315 316 314 314 314 315 314 314 314 314 314 314 316 318 331 332 333 330 325 327 331 336 338 338 342 338 336 336 335 336 349 351 354 353 351
321 321 320 317 316 315 314 314 315 315 317 319 318 317 318 317 316 315 314 314 314 315 316 320 333 331 330 328 328 331 336 344 343 338 336 334 331 332 326 346 353 352 347 347
320 320 319 315 315 314 314 315 316 316 316 317 318 317 318 319 317 317 315 313 314 315 316 320 330 329 331 329 330 328 325 328 342 346 340 335 339 346 347 349 350 348 349 346
320 321 320 315 314 314 315 316 315 316 315 318 317 316 316 319 321 321 325 323 322 314 315 321 331 331 330 330 331 327 330 338 338 336 344 349 348 346 347 348 345 342 348 331
320 318 317 316 315 315 315 315 315 314 314 316 316 317 316 317 319 326 328 322 324 322 325 326 329 330 327 329 331 336 339 340 342 350 352 349 347 344 341 347 347 348 347 349
320 319 317 316 314 315 314 314 315 316 316 317 317 318 317 325 328 329 329 324 323 323 324 324 325 326 329 331 335 330 335 346 345 342 341 336 336 337 334 333 333 334 335 335
322 320 317 317 315 315 314 314 314 318 320 319 320 320 318 328 328 328 326 326 327 323 323 323 327 328 329 330 333 334 332 329 328 327 327 325 325 325 325 324 324 324 324 325
321 320 318 317 315 315 315 315 314 316 323 323 322 329 328 326 326 325 327 327 327 328 329 329 327 327 327 326 325 325 324 323 324 323 321 320 320 321 321 321 321 321 321 320
326 327 321 317 315 314 315 315 315 315 325 325 322 328 332 328 326 325 327 327 326 325 325 325 325 325 326 326 324 324 323 321 319 319 319 318 317 317 317 316 317 317 317 316
327 326 327 325 323 315 315 315 316 321 325 324 327 336 331 334 333 328 328 327 323 321 321 321 321 322 321 321 321 320 320 317 316 316 316 316 316 316 315 316 316 316 316 315
325 326 327 326 324 322 316 316 321 326 330 332 328 331 328 329 327 327 331 328 321 319 318 318 317 319 318 317 317 316 315 314 314 313 314 313 314 314 314 314 314 314 314 315
325 328 329 328 326 324 317 318 320 327 328 332 332 331 328 328 327 327 328 326 322 319 316 315 314 313 315 315 315 313 312 312 312 312 312 313 312 312 312 313 314 314 312 311
325 327 328 327 327 323 319 319 323 324 329 331 331 332 331 328 329 328 327 328 321 320 318 316 314 312 314 314 313 312 311 311 310 311 311 311 311 311 313 312 310 309 308 308
325 330 328 328 329 328 323 319 327 327 326 328 329 331 328 325 327 327 327 323 320 319 317 316 314 312 312 312 311 311 310 309 309 309 310 310 311 311 309 308 307 306 306 305
326 329 325 329 327 328 328 326 328 328 328 328 323 329 325 324 324 326 327 321 319 318 316 315 313 312 311 310 310 309 309 308 308 308 309 310 309 308 307 306 306 305 304 303
325 330 327 327 327 327 330 329 329 327 329 327 331 329 325 326 323 322 323 320 316 314 313 311 310 309 309 308 308 307 306 306 306 307 307 307 305 305 305 306 305 304 304 304
329 328 323 328 329 334 327 326 328 327 327 328 328 325 321 318 315 315 314 313 311 310 308 307 306 307 307 304 303 303 304 304 304 305 304 303 303 304 305 304 304 304 304 304
323 328 329 329 328 327 327 326 326 324 325 324 321 318 316 315 313 312 311 309 308 306 304 304 304 304 302 301 301 301 301 301 302 301 301 301 302 303 303 303 304 304 304 304
323 323 326 325 327 330 325 324 322 321 324 319 318 319 317 317 315 311 307 306 304 303 301 301 301 299 299 298 298 299 299 299 298 298 299 300 301 302 303 303 303 303 304 305
320 323 327 326 326 326 323 323 322 324 324 316 314 313 313 312 309 306 304 302 301 299 298 298 297 297 296 295 296 296 296 296 295 297 298 300 301 302 302 302 303 304 305 305
321 324 326 324 324 327 323 322 323 318 313 312 309 307 306 305 305 302 300 299 298 297 296 296 295 295 294 292 293 293 294 294 295 296 298 300 300 300 301 303 304 305 304 304
327 325 325 324 324 318 316 316 313 310 308 308 306 305 304 303 301 299 298 296 296 295 294 294 293 292 292 291 291 292 293 292 293 294 296 298 298 299 300 302 304 304 305 305
323 320 322 321 317 314 312 310 308 307 306 305 304 303 301 300 299 297 296 295 294 293 292 292 291 290 290 290 291 292 291 290 291 292 293 296 296 297 299 301 303 304 305 305
321 319 318 317 313 311 310 308 306 305 304 304 303 301 300 298 297 295 294 293 292 291 291 290 290 290 290 289 290 290 291 290 290 291 292 293 293 295 297 299 303 304 306 307
318 317 317 317 313 311 309 307 306 305 304 303 301 300 299 297 295 294 293 292 291 291 290 290 289 289 289 290 290 291 291 292 291 291 291 292 292 294 296 298 301 303 304 307

GFSCGP_925_thetae_129.txt.gz
Theta_e
316 318 318 317 314 316 317 315 312 310 311 310 308 308 308 308 310 311 311 311 311 337 338 338 337 338 338 338 340 336 344 344 345 347 348 345 344 344 340 338 336 345 344 344
319 321 318 317 317 318 318 317 312 312 312 310 309 309 309 308 309 310 312 312 310 312 324 337 340 339 336 335 337 339 336 343 345 345 345 345 344 344 345 342 343 344 339 333
322 322 320 319 319 320 318 316 312 313 313 312 313 311 311 311 310 311 310 311 312 310 313 332 332 332 334 333 334 335 336 337 339 341 344 341 340 339 337 337 336 336 336 335
322 321 321 320 320 318 320 316 315 314 313 312 312 312 311 311 312 314 310 309 310 310 311 328 330 328 330 331 332 333 334 335 337 337 340 338 334 334 336 336 334 335 334 334
322 322 323 322 320 318 319 318 316 315 312 312 312 313 312 313 317 321 321 315 310 310 308 318 326 328 329 328 328 330 333 334 335 337 336 336 335 334 334 331 331 333 334 335
321 319 321 321 320 319 318 316 315 313 310 311 311 312 312 313 316 320 321 320 322 323 323 319 323 327 326 327 329 333 336 338 337 337 338 336 334 334 334 335 339 334 335 330
322 322 320 320 320 319 318 315 312 312 310 313 310 312 313 326 325 322 321 324 326 325 326 328 327 325 330 334 335 335 339 333 337 338 336 332 331 333 332 331 330 332 329 332
327 326 322 320 320 320 319 313 310 313 313 312 312 313 326 325 325 327 327 327 326 326 325 324 323 325 325 324 324 325 325 323 323 322 322 322 322 322 322 323 321 319 318 318
327 328 321 320 319 320 320 317 310 312 315 313 327 329 325 328 326 327 327 327 327 325 324 323 321 321 321 320 320 321 321 321 321 320 320 319 319 318 318 318 318 316 315 315
325 322 320 321 320 319 316 313 312 312 319 319 330 332 330 330 328 326 326 326 325 324 323 322 320 320 319 318 318 317 317 317 317 317 316 316 316 315 315 315 314 314 314 313
324 322 324 320 323 322 320 313 312 313 318 322 329 334 329 329 327 326 323 321 320 320 318 317 315 314 312 311 312 313 314 314 314 314 313 312 312 313 313 313 313 312 311 310
324 322 324 323 321 319 318 312 313 317 327 323 323 330 327 326 326 324 323 321 318 315 312 310 309 308 308 308 309 309 310 310 310 311 311 311 312 312 312 311 309 309 308 306
324 328 322 324 322 321 322 319 313 318 322 326 323 329 325 326 325 325 321 319 315 311 310 309 309 308 308 307 307 308 308 308 309 310 310 311 310 309 308 307 306 306 305 304
323 324 319 321 323 320 321 318 317 320 322 326 324 330 330 327 326 326 321 314 313 312 310 308 306 305 307 306 306 306 307 308 309 309 309 308 307 306 306 305 305 304 304 303
325 324 324 328 328 326 322 320 321 319 321 323 327 329 328 326 325 324 316 313 312 311 309 307 306 304 305 304 304 304 305 306 307 306 305 304 304 305 305 304 304 304 304 303
320 327 325 327 327 327 329 322 321 324 326 326 328 330 327 323 321 318 315 313 311 309 308 306 304 303 302 301 301 302 303 303 304 303 303 303 303 303 303 303 303 303 303 304
320 324 322 328 327 328 328 329 327 327 327 328 328 326 326 323 318 313 311 309 307 306 305 302 300 299 299 299 300 300 301 301 301 301 301 301 301 302 302 302 302 303 304 304
320 324 323 328 328 329 326 326 328 329 327 326 327 327 324 311 308 307 306 305 304 302 300 298 297 296 296 296 297 298 298 298 298 298 298 299 300 301 302 302 302 303 304 305
320 320 326 328 328 329 329 328 328 329 329 326 326 313 309 307 306 303 301 300 299 298 296 296 294 293 293 293 294 295 295 295 295 296 296 298 300 301 301 301 302 304 304 306
321 321 324 325 329 334 328 326 322 321 323 319 314 312 311 315 315 303 299 298 296 295 294 294 292 291 291 292 293 294 294 294 294 294 296 298 299 300 300 300 302 303 304 305
325 326 322 323 328 327 323 323 322 325 323 315 312 312 309 305 303 298 296 295 294 293 293 291 291 290 290 291 292 293 293 292 292 293 294 296 297 298 299 299 302 303 304 305
321 324 325 322 326 329 323 322 322 315 309 307 305 303 301 298 297 295 294 293 292 291 290 290 290 290 290 290 291 292 291 291 291 291 293 295 296 296 298 300 302 303 304 305
322 321 319 316 314 311 310 309 307 307 306 304 302 300 299 296 294 293 292 291 291 290 290 290 290 290 290 290 290 291 291 292 292 291 292 293 294 295 297 299 300 302 303 304
317 313 310 310 307 307 306 304 303 303 301 300 299 297 295 293 293 292 291 290 290 289 289 289 290 290 290 291 291 292 292 292 291 291 292 293 293 294 296 298 299 301 300 302
315 310 307 307 306 305 303 302 301 299 298 296 295 294 293 293 293 292 292 291 290 290 289 289 289 290 290 290 291 291 291 291 290 291 292 291 292 293 294 296 298 299 299 298
314 310 312 311 307 305 302 301 299 298 296 295 294 293 292 292 292 291 291 291 290 290 290 290 290 289 289 290 290 290 291 290 290 290 291 290 291 291 292 294 297 297 297 296

GFSCGP_925_thetae_132.txt.gz
Theta_e
311 320 321 319 318 315 310 312 312 311 312 310 307 307 307 307 308 308 308 309 309 333 337 338 337 338 340 340 342 343 344 345 344 344 343 343 343 343 343 342 343 344 345 345
315 321 318 317 317 317 312 314 313 312 311 309 310 309 308 308 308 307 308 308 309 311 329 334 336 337 338 339 340 340 340 344 344 344 344 343 341 342 343 344 344 341 339 342
314 317 317 316 316 315 315 315 312 313 312 311 312 310 311 311 308 308 308 308 309 309 311 325 335 337 337 337 339 339 338 338 343 344 345 344 344 343 343 344 343 342 339 341
313 314 317 318 318 315 315 316 313 313 311 312 310 310 311 311 310 310 308 307 307 308 309 315 332 332 336 335 332 333 335 335 338 342 342 342 338 335 337 339 339 338 335 334
319 318 319 319 318 317 316 317 316 316 311 311 311 310 310 311 314 312 315 319 321 319 306 309 327 332 331 332 331 332 332 334 335 336 336 338 338 333 333 332 331 331 333 335
316 318 318 320 318 317 316 317 316 310 308 311 309 310 309 312 324 320 320 325 325 324 321 317 320 326 327 329 331 333 333 333 334 335 335 334 334 333 333 332 334 333 334 331
320 321 319 320 320 318 317 317 313 312 311 313 308 310 310 325 324 323 322 324 323 324 325 325 323 327 328 329 329 330 333 332 334 335 334 333 331 330 329 329 328 325 322 321
321 324 322 320 320 320 317 314 310 314 312 310 310 311 316 326 325 326 324 324 324 324 322 323 324 323 322 322 323 324 325 323 324 323 322 322 322 321 319 319 318 316 316 315
325 323 320 320 318 318 319 317 309 310 311 311 316 327 328 327 327 328 325 325 324 322 323 322 319 318 318 317 318 318 319 319 319 319 320 319 318 317 316 316 315 314 314 313
323 327 321 321 319 319 318 314 315 312 316 318 329 329 330 331 331 329 326 325 325 323 321 319 317 315 315 315 316 317 318 317 317 317 317 316 315 314 314 313 313 312 312 311
324 324 324 321 324 323 318 317 313 310 315 323 329 329 325 328 327 328 326 325 321 318 315 311 310 309 309 312 313 314 314 314 313 312 312 312 312 312 312 312 310 308 308 308
323 323 324 322 322 320 318 315 311 314 323 320 321 332 326 325 323 324 323 317 313 310 309 308 308 308 307 307 308 309 310 310 310 311 311 312 311 310 309 308 306 306 306 305
324 325 326 326 323 322 321 317 312 314 319 323 323 329 325 326 326 323 317 313 311 309 308 307 306 306 305 305 306 307 308 309 310 310 310 309 307 307 306 306 305 305 305 304
323 322 319 323 322 321 321 318 314 318 319 323 323 331 331 328 324 320 314 312 310 309 307 306 305 303 303 303 304 306 307 307 307 307 306 306 305 305 305 305 304 304 304 303
325 325 325 322 321 320 317 317 315 317 319 320 327 330 330 326 324 316 313 312 310 308 307 305 303 302 301 301 302 303 304 304 304 304 303 303 303 304 303 303 303 303 303 304
321 324 324 326 325 324 320 318 316 318 325 327 328 331 325 322 315 314 313 311 308 307 304 302 301 300 299 299 299 300 300 300 301 301 301 301 302 302 302 302 302 302 304 304
322 323 320 327 327 326 327 328 323 326 326 326 329 328 325 318 316 314 311 310 307 305 302 300 298 296 296 296 297 297 298 298 299 299 299 299 300 301 301 301 302 303 304 304
321 323 320 326 324 325 324 324 326 328 327 326 326 326 317 310 306 306 306 306 303 301 299 296 294 293 293 294 295 296 296 296 296 296 297 298 300 301 301 301 302 303 304 305
318 319 326 326 325 329 330 327 327 326 328 325 316 309 306 305 304 301 300 299 298 297 295 293 292 291 292 292 293 294 294 294 295 295 296 297 299 300 300 300 301 303 305 306
320 321 324 326 330 331 327 325 323 323 328 314 310 308 308 312 313 302 298 296 295 294 293 292 291 290 291 292 293 293 293 292 292 293 294 296 297 298 299 299 301 303 305 305
321 319 324 324 326 327 325 323 318 323 323 313 311 311 310 306 303 297 295 294 293 292 291 291 290 290 290 291 292 292 291 291 291 292 293 295 296 296 298 299 301 303 304 305
320 322 324 321 329 329 314 319 322 315 312 307 304 300 298 297 296 295 294 293 291 290 290 290 289 289 290 290 290 291 291 292 292 292 293 294 295 296 297 299 301 303 303 303
319 316 314 314 315 308 308 309 308 307 306 304 301 299 297 295 294 293 292 290 289 290 290 290 290 290 290 290 291 291 292 292 291 291 292 293 294 295 296 298 300 300 301 301
312 311 311 310 307 305 303 302 302 301 300 299 298 296 295 293 292 291 290 290 290 290 290 289 290 290 290 290 291 291 291 290 291 291 292 292 293 294 295 297 298 298 298 297
310 308 306 307 305 304 301 300 299 298 296 295 294 293 292 292 291 291 291 290 290 290 290 290 290 290 290 290 290 290 291 290 290 291 291 291 291 292 293 295 296 296 293 293
309 308 313 312 305 302 300 298 297 296 295 294 293 292 292 291 291 290 290 289 289 288 287 287 287 288 289 289 289 290 291 291 290 290 290 290 290 291 291 292 294 294 294 293

GFSCGP_925_thetae_135.txt.gz
Theta_e
313 319 322 320 318 315 318 317 317 315 313 312 313 312 313 315 313 315 316 316 317 332 337 343 344 344 344 344 343 345 347 347 346 346 346 347 346 346 345 345 344 342 341 345
313 318 317 317 317 317 316 317 316 315 315 314 314 314 314 315 315 316 316 317 317 318 328 335 340 342 343 344 344 343 346 346 346 346 345 345 345 344 345 343 342 342 342 342
313 313 315 318 319 319 319 316 316 316 314 314 315 315 315 315 315 315 315 316 317 318 319 324 334 339 341 342 343 343 342 345 345 343 343 342 342 341 342 343 342 342 343 342
313 313 315 318 319 319 320 318 315 314 315 315 314 315 316 316 316 315 317 317 316 317 318 319 329 338 341 340 339 339 339 341 340 342 343 343 344 344 340 339 339 338 337 338
315 314 314 318 317 318 317 316 316 317 316 316 315 315 316 316 316 317 321 322 322 322 318 317 318 331 339 335 335 336 337 338 337 340 342 342 341 339 337 334 334 332 333 332
313 314 314 317 317 316 316 317 316 316 317 318 317 315 316 317 322 325 327 329 328 329 327 320 322 331 333 334 335 335 336 336 336 336 336 337 337 337 336 334 333 332 332 329
314 316 314 316 319 317 317 318 320 318 317 318 317 317 316 327 329 328 327 329 327 327 328 327 331 331 330 331 332 332 331 331 331 331 332 332 332 332 331 329 327 325 323 322
318 317 317 319 319 320 319 319 318 319 318 318 314 317 318 329 329 327 327 327 326 325 325 326 326 326 328 329 330 330 329 327 326 325 324 324 323 322 321 321 320 320 318 317
318 316 313 318 320 320 320 319 316 316 317 317 315 327 329 331 329 327 326 327 326 325 323 324 324 325 325 325 325 325 324 322 322 321 320 319 319 319 318 316 315 314 313 312
316 318 315 321 320 319 320 318 315 317 318 318 320 325 321 334 331 328 327 327 325 323 322 323 322 321 321 321 320 321 321 321 320 319 318 317 316 315 314 313 311 310 309 308
319 320 319 322 324 323 320 319 317 316 319 321 324 325 329 334 330 330 328 325 322 320 319 317 316 316 316 316 316 316 315 315 315 315 315 314 313 312 311 310 309 309 308 307
320 323 327 327 323 321 320 319 318 319 322 328 324 334 330 331 329 328 323 320 317 315 314 313 312 311 311 312 312 312 312 313 313 313 312 311 311 310 310 309 308 308 307 307
323 324 328 328 323 323 322 320 318 320 322 328 328 334 329 330 327 321 319 316 314 313 312 312 312 311 310 310 310 311 311 311 310 310 310 309 309 309 308 308 307 307 306 306
323 324 324 328 326 323 323 320 318 318 322 327 332 332 333 330 324 319 316 314 313 312 312 310 310 309 308 308 308 308 308 308 308 308 308 308 307 307 306 306 306 306 305 306
324 326 324 323 324 323 322 320 318 317 320 320 331 333 332 327 321 317 315 313 313 311 310 309 308 307 306 306 306 306 305 305 305 305 306 305 305 305 305 305 305 305 305 306
322 328 325 325 324 323 324 320 317 316 326 328 330 333 329 322 316 316 314 314 312 310 308 307 306 304 304 303 303 303 302 302 302 303 303 303 303 304 304 304 304 305 305 306
322 326 328 330 324 323 323 319 318 322 327 330 334 329 322 319 317 316 314 312 310 308 306 304 303 301 300 300 300 300 299 299 300 300 300 301 302 303 303 303 304 305 306 307
324 326 327 329 325 328 325 327 322 327 328 328 330 325 321 318 314 312 311 310 307 304 302 301 299 298 297 297 297 298 298 298 298 299 300 300 301 303 303 303 304 305 307 308
322 326 329 331 330 329 329 327 327 326 331 328 325 316 310 307 306 303 303 302 301 300 296 296 296 295 295 295 296 297 297 297 297 298 298 299 301 301 302 302 303 305 307 307
322 323 327 328 330 327 330 327 323 325 327 316 312 310 311 315 318 304 299 298 296 294 293 293 292 293 294 295 295 296 296 296 296 296 296 297 298 300 301 301 303 304 305 306
322 324 328 327 329 328 317 317 319 327 327 313 312 314 316 315 312 301 298 296 294 294 293 292 293 293 293 293 294 295 295 295 295 295 294 296 298 299 300 300 302 303 304 306
323 324 325 326 329 332 309 319 325 319 313 313 313 307 303 301 299 297 296 294 292 291 291 291 292 292 292 292 293 293 293 294 294 294 295 297 297 297 298 300 302 302 303 303
318 315 316 314 312 306 307 311 312 311 309 306 304 302 301 299 296 294 293 292 292 292 291 292 292 292 292 292 292 293 293 293 294 295 296 296 296 296 297 299 301 301 301 299
312 310 311 310 303 304 304 304 303 304 303 300 299 298 296 294 293 293 293 293 292 292 291 291 292 292 292 291 292 292 293 292 293 294 294 294 294 295 297 298 299 296 295 296
310 309 306 305 304 302 300 299 299 298 297 296 295 294 294 294 294 294 293 292 291 291 290 290 290 290 291 291 292 292 292 292 292 292 292 291 292 292 295 296 296 294 291 291
303 309 314 310 302 300 298 297 296 296 295 294 295 295 294 294 294 292 292 291 290 290 289 289 289 290 291 291 291 292 292 292 291 292 292 290 290 291 292 292 294 293 292 291